<?xml version='1.0' encoding='UTF-8'?><gpx version="1.1" creator="JPX - https://github.com/jenetics/jpx" xmlns="http://www.topografix.com/GPX/1/1"><trk><trkseg><trkpt lat="42.0218724" lon="11.967349"><ele>12.999999999999998</ele><time>2026-04-30T08:00:13.931Z</time></trkpt><trkpt lat="42.0218013" lon="11.9673019"><ele>13.0</ele><time>2026-04-30T08:00:17.768Z</time></trkpt><trkpt lat="42.021734" lon="11.9673309"><ele>13.0</ele><time>2026-04-30T08:00:18.925Z</time></trkpt><trkpt lat="42.0216852" lon="11.9673927"><ele>13.0</ele><time>2026-04-30T08:00:20.11Z</time></trkpt><trkpt lat="42.0216508" lon="11.9675082"><ele>12.999999999999998</ele><time>2026-04-30T08:00:23.012Z</time></trkpt><trkpt lat="42.0216994" lon="11.9676238"><ele>13.0</ele><time>2026-04-30T08:00:25.827Z</time></trkpt><trkpt lat="42.0217575" lon="11.9676893"><ele>13.2</ele><time>2026-04-30T08:00:27.114Z</time></trkpt><trkpt lat="42.0218284" lon="11.9677476"><ele>13.4</ele><time>2026-04-30T08:00:28.201Z</time></trkpt><trkpt lat="42.0219564" lon="11.9678403"><ele>13.599999999999998</ele><time>2026-04-30T08:00:29.989Z</time></trkpt><trkpt lat="42.0220208" lon="11.9678929"><ele>13.799999999999999</ele><time>2026-04-30T08:00:30.921Z</time></trkpt><trkpt lat="42.0220938" lon="11.9679504"><ele>14.0</ele><time>2026-04-30T08:00:31.993Z</time></trkpt><trkpt lat="42.0221611" lon="11.9680076"><ele>14.0</ele><time>2026-04-30T08:00:33.042Z</time></trkpt><trkpt lat="42.0222368" lon="11.9680709"><ele>14.0</ele><time>2026-04-30T08:00:34.235Z</time></trkpt><trkpt lat="42.0223478" lon="11.9681594"><ele>14.0</ele><time>2026-04-30T08:00:35.903Z</time></trkpt><trkpt lat="42.0224333" lon="11.9682246"><ele>14.0</ele><time>2026-04-30T08:00:37.187Z</time></trkpt><trkpt lat="42.0225541" lon="11.9683058"><ele>14.0</ele><time>2026-04-30T08:00:38.919Z</time></trkpt><trkpt lat="42.0226249" lon="11.9683556"><ele>14.0</ele><time>2026-04-30T08:00:39.879Z</time></trkpt><trkpt lat="42.0227022" lon="11.9684087"><ele>14.0</ele><time>2026-04-30T08:00:40.882Z</time></trkpt><trkpt lat="42.0227867" lon="11.9684811"><ele>14.0</ele><time>2026-04-30T08:00:42.052Z</time></trkpt><trkpt lat="42.0229418" lon="11.9686147"><ele>14.799999999999999</ele><time>2026-04-30T08:00:43.956Z</time></trkpt><trkpt lat="42.0230334" lon="11.968704"><ele>15.599999999999998</ele><time>2026-04-30T08:00:45.185Z</time></trkpt><trkpt lat="42.0231573" lon="11.9688401"><ele>16.4</ele><time>2026-04-30T08:00:47.039Z</time></trkpt><trkpt lat="42.0232256" lon="11.9689079"><ele>17.2</ele><time>2026-04-30T08:00:48.063Z</time></trkpt><trkpt lat="42.0232906" lon="11.9689716"><ele>18.0</ele><time>2026-04-30T08:00:49.066Z</time></trkpt><trkpt lat="42.0233716" lon="11.969052"><ele>18.5</ele><time>2026-04-30T08:00:50.917Z</time></trkpt><trkpt lat="42.0235476" lon="11.9690259"><ele>19.0</ele><time>2026-04-30T08:00:54.085Z</time></trkpt><trkpt lat="42.0236144" lon="11.9689582"><ele>19.5</ele><time>2026-04-30T08:00:55.075Z</time></trkpt><trkpt lat="42.0237361" lon="11.9687692"><ele>20.0</ele><time>2026-04-30T08:00:57.012Z</time></trkpt><trkpt lat="42.023798" lon="11.9686867"><ele>20.0</ele><time>2026-04-30T08:00:58.055Z</time></trkpt><trkpt lat="42.023872" lon="11.9686341"><ele>20.0</ele><time>2026-04-30T08:00:58.975Z</time></trkpt><trkpt lat="42.0239743" lon="11.968575"><ele>20.0</ele><time>2026-04-30T08:01:00.129Z</time></trkpt><trkpt lat="42.0240552" lon="11.9685274"><ele>20.0</ele><time>2026-04-30T08:01:01.029Z</time></trkpt><trkpt lat="42.0242295" lon="11.968433"><ele>19.75</ele><time>2026-04-30T08:01:02.995Z</time></trkpt><trkpt lat="42.0243218" lon="11.9683881"><ele>19.5</ele><time>2026-04-30T08:01:03.906Z</time></trkpt><trkpt lat="42.0244271" lon="11.9683294"><ele>19.25</ele><time>2026-04-30T08:01:05.05Z</time></trkpt><trkpt lat="42.0246304" lon="11.9682283"><ele>19.0</ele><time>2026-04-30T08:01:07.123Z</time></trkpt><trkpt lat="42.0247434" lon="11.9681739"><ele>19.0</ele><time>2026-04-30T08:01:08.077Z</time></trkpt><trkpt lat="42.0248595" lon="11.9681321"><ele>19.0</ele><time>2026-04-30T08:01:09.122Z</time></trkpt><trkpt lat="42.0250539" lon="11.9680608"><ele>19.0</ele><time>2026-04-30T08:01:11.165Z</time></trkpt><trkpt lat="42.0252197" lon="11.968005"><ele>19.75</ele><time>2026-04-30T08:01:12.915Z</time></trkpt><trkpt lat="42.0253432" lon="11.9679695"><ele>20.5</ele><time>2026-04-30T08:01:14.024Z</time></trkpt><trkpt lat="42.025451" lon="11.9679343"><ele>21.25</ele><time>2026-04-30T08:01:14.997Z</time></trkpt><trkpt lat="42.0255663" lon="11.9678943"><ele>22.0</ele><time>2026-04-30T08:01:16.164Z</time></trkpt><trkpt lat="42.0257388" lon="11.9678393"><ele>22.0</ele><time>2026-04-30T08:01:18.057Z</time></trkpt><trkpt lat="42.0258498" lon="11.9678003"><ele>22.0</ele><time>2026-04-30T08:01:19.225Z</time></trkpt><trkpt lat="42.0259384" lon="11.9677763"><ele>22.0</ele><time>2026-04-30T08:01:20.144Z</time></trkpt><trkpt lat="42.0261379" lon="11.967702"><ele>22.0</ele><time>2026-04-30T08:01:22.093Z</time></trkpt><trkpt lat="42.0262325" lon="11.9676667"><ele>22.0</ele><time>2026-04-30T08:01:23.025Z</time></trkpt><trkpt lat="42.0263418" lon="11.9676372"><ele>22.0</ele><time>2026-04-30T08:01:24.156Z</time></trkpt><trkpt lat="42.0265257" lon="11.9675729"><ele>22.0</ele><time>2026-04-30T08:01:26.089Z</time></trkpt><trkpt lat="42.0267127" lon="11.9675114"><ele>21.75</ele><time>2026-04-30T08:01:28.022Z</time></trkpt><trkpt lat="42.0268125" lon="11.9674725"><ele>21.5</ele><time>2026-04-30T08:01:29.165Z</time></trkpt><trkpt lat="42.0269716" lon="11.9674159"><ele>21.25</ele><time>2026-04-30T08:01:30.975Z</time></trkpt><trkpt lat="42.0270601" lon="11.9673909"><ele>21.0</ele><time>2026-04-30T08:01:31.958Z</time></trkpt><trkpt lat="42.0271528" lon="11.9673641"><ele>21.0</ele><time>2026-04-30T08:01:32.966Z</time></trkpt><trkpt lat="42.0272487" lon="11.9673375"><ele>21.0</ele><time>2026-04-30T08:01:33.987Z</time></trkpt><trkpt lat="42.0274463" lon="11.9672801"><ele>21.0</ele><time>2026-04-30T08:01:36.037Z</time></trkpt><trkpt lat="42.0275483" lon="11.9672498"><ele>21.0</ele><time>2026-04-30T08:01:37.028Z</time></trkpt><trkpt lat="42.027656" lon="11.9672156"><ele>21.666666666666668</ele><time>2026-04-30T08:01:38.083Z</time></trkpt><trkpt lat="42.0278549" lon="11.9671487"><ele>22.333333333333336</ele><time>2026-04-30T08:01:40.076Z</time></trkpt><trkpt lat="42.0280304" lon="11.9670921"><ele>23.0</ele><time>2026-04-30T08:01:41.913Z</time></trkpt><trkpt lat="42.028145" lon="11.9670715"><ele>23.0</ele><time>2026-04-30T08:01:43.034Z</time></trkpt><trkpt lat="42.0282567" lon="11.9670647"><ele>23.0</ele><time>2026-04-30T08:01:43.984Z</time></trkpt><trkpt lat="42.0283749" lon="11.9670653"><ele>23.0</ele><time>2026-04-30T08:01:44.999Z</time></trkpt><trkpt lat="42.0284828" lon="11.9670662"><ele>23.0</ele><time>2026-04-30T08:01:45.957Z</time></trkpt><trkpt lat="42.0285922" lon="11.9670695"><ele>23.0</ele><time>2026-04-30T08:01:46.894Z</time></trkpt><trkpt lat="42.0287102" lon="11.9670724"><ele>23.0</ele><time>2026-04-30T08:01:47.845Z</time></trkpt><trkpt lat="42.0288483" lon="11.967088"><ele>23.0</ele><time>2026-04-30T08:01:48.943Z</time></trkpt><trkpt lat="42.0289692" lon="11.967122"><ele>23.0</ele><time>2026-04-30T08:01:49.854Z</time></trkpt><trkpt lat="42.0291136" lon="11.9671444"><ele>23.0</ele><time>2026-04-30T08:01:51.031Z</time></trkpt><trkpt lat="42.0292044" lon="11.967157"><ele>23.0</ele><time>2026-04-30T08:01:51.968Z</time></trkpt><trkpt lat="42.0293386" lon="11.9671761"><ele>23.0</ele><time>2026-04-30T08:01:53.058Z</time></trkpt><trkpt lat="42.0295801" lon="11.9672009"><ele>23.0</ele><time>2026-04-30T08:01:54.81Z</time></trkpt><trkpt lat="42.0297457" lon="11.9672354"><ele>23.0</ele><time>2026-04-30T08:01:56.098Z</time></trkpt><trkpt lat="42.0298692" lon="11.9672536"><ele>23.0</ele><time>2026-04-30T08:01:57.133Z</time></trkpt><trkpt lat="42.0301082" lon="11.9672859"><ele>23.0</ele><time>2026-04-30T08:01:59.09Z</time></trkpt><trkpt lat="42.0303501" lon="11.9672679"><ele>24.333333333333336</ele><time>2026-04-30T08:02:01.092Z</time></trkpt><trkpt lat="42.0304386" lon="11.9672292"><ele>25.666666666666668</ele><time>2026-04-30T08:02:01.853Z</time></trkpt><trkpt lat="42.0306826" lon="11.9670602"><ele>27.0</ele><time>2026-04-30T08:02:04.077Z</time></trkpt><trkpt lat="42.0307873" lon="11.9669575"><ele>27.333333333333336</ele><time>2026-04-30T08:02:05.002Z</time></trkpt><trkpt lat="42.0309101" lon="11.9668134"><ele>27.666666666666668</ele><time>2026-04-30T08:02:06.197Z</time></trkpt><trkpt lat="42.0310748" lon="11.9666052"><ele>28.0</ele><time>2026-04-30T08:02:08.018Z</time></trkpt><trkpt lat="42.0311825" lon="11.9664579"><ele>28.0</ele><time>2026-04-30T08:02:09.107Z</time></trkpt><trkpt lat="42.0312711" lon="11.9663277"><ele>28.0</ele><time>2026-04-30T08:02:10.028Z</time></trkpt><trkpt lat="42.0313618" lon="11.9662071"><ele>28.0</ele><time>2026-04-30T08:02:11.104Z</time></trkpt><trkpt lat="42.0314453" lon="11.9661088"><ele>28.0</ele><time>2026-04-30T08:02:12.077Z</time></trkpt><trkpt lat="42.0315267" lon="11.9660172"><ele>28.0</ele><time>2026-04-30T08:02:13.127Z</time></trkpt><trkpt lat="42.0316777" lon="11.9658691"><ele>28.0</ele><time>2026-04-30T08:02:15.049Z</time></trkpt><trkpt lat="42.0317715" lon="11.9658171"><ele>28.0</ele><time>2026-04-30T08:02:16.074Z</time></trkpt><trkpt lat="42.0320039" lon="11.9657544"><ele>28.0</ele><time>2026-04-30T08:02:18.075Z</time></trkpt><trkpt lat="42.0322584" lon="11.9656781"><ele>28.0</ele><time>2026-04-30T08:02:20.179Z</time></trkpt><trkpt lat="42.0325181" lon="11.9655991"><ele>29.0</ele><time>2026-04-30T08:02:22.235Z</time></trkpt><trkpt lat="42.0327598" lon="11.9655245"><ele>30.0</ele><time>2026-04-30T08:02:24.2Z</time></trkpt><trkpt lat="42.0328414" lon="11.9655057"><ele>31.0</ele><time>2026-04-30T08:02:24.917Z</time></trkpt><trkpt lat="42.0329697" lon="11.9654773"><ele>31.0</ele><time>2026-04-30T08:02:25.916Z</time></trkpt><trkpt lat="42.0331229" lon="11.9654507"><ele>31.0</ele><time>2026-04-30T08:02:27.174Z</time></trkpt><trkpt lat="42.0333299" lon="11.9654477"><ele>31.0</ele><time>2026-04-30T08:02:28.887Z</time></trkpt><trkpt lat="42.0334552" lon="11.9654488"><ele>31.5</ele><time>2026-04-30T08:02:29.938Z</time></trkpt><trkpt lat="42.0335939" lon="11.9654592"><ele>32.0</ele><time>2026-04-30T08:02:31.071Z</time></trkpt><trkpt lat="42.0337147" lon="11.9654783"><ele>32.5</ele><time>2026-04-30T08:02:31.989Z</time></trkpt><trkpt lat="42.0338367" lon="11.9655013"><ele>33.0</ele><time>2026-04-30T08:02:32.923Z</time></trkpt><trkpt lat="42.0339815" lon="11.9655326"><ele>33.0</ele><time>2026-04-30T08:02:34.11Z</time></trkpt><trkpt lat="42.0340954" lon="11.9655578"><ele>33.0</ele><time>2026-04-30T08:02:35.047Z</time></trkpt><trkpt lat="42.0342418" lon="11.9655792"><ele>33.0</ele><time>2026-04-30T08:02:36.251Z</time></trkpt><trkpt lat="42.0344864" lon="11.965599"><ele>33.666666666666664</ele><time>2026-04-30T08:02:38.084Z</time></trkpt><trkpt lat="42.0347488" lon="11.9656127"><ele>34.33333333333333</ele><time>2026-04-30T08:02:40.094Z</time></trkpt><trkpt lat="42.0348562" lon="11.9656235"><ele>35.0</ele><time>2026-04-30T08:02:41.028Z</time></trkpt><trkpt lat="42.0350614" lon="11.9656482"><ele>35.666666666666664</ele><time>2026-04-30T08:02:42.871Z</time></trkpt><trkpt lat="42.0351943" lon="11.9656755"><ele>36.333333333333336</ele><time>2026-04-30T08:02:44.006Z</time></trkpt><trkpt lat="42.0353093" lon="11.9656885"><ele>37.0</ele><time>2026-04-30T08:02:44.97Z</time></trkpt><trkpt lat="42.0355766" lon="11.965726"><ele>37.0</ele><time>2026-04-30T08:02:47.098Z</time></trkpt><trkpt lat="42.0357866" lon="11.9657492"><ele>37.0</ele><time>2026-04-30T08:02:48.907Z</time></trkpt><trkpt lat="42.0359172" lon="11.9657598"><ele>37.0</ele><time>2026-04-30T08:02:50.009Z</time></trkpt><trkpt lat="42.0360416" lon="11.9657619"><ele>37.0</ele><time>2026-04-30T08:02:51.043Z</time></trkpt><trkpt lat="42.0361598" lon="11.9657601"><ele>37.0</ele><time>2026-04-30T08:02:51.952Z</time></trkpt><trkpt lat="42.0363008" lon="11.9657679"><ele>37.0</ele><time>2026-04-30T08:02:53.004Z</time></trkpt><trkpt lat="42.0365458" lon="11.9657951"><ele>37.4</ele><time>2026-04-30T08:02:55.016Z</time></trkpt><trkpt lat="42.0366574" lon="11.9658049"><ele>37.800000000000004</ele><time>2026-04-30T08:02:56.057Z</time></trkpt><trkpt lat="42.0367698" lon="11.965816"><ele>38.2</ele><time>2026-04-30T08:02:57.117Z</time></trkpt><trkpt lat="42.0368652" lon="11.9658227"><ele>38.6</ele><time>2026-04-30T08:02:58.055Z</time></trkpt><trkpt lat="42.0369638" lon="11.965825"><ele>39.0</ele><time>2026-04-30T08:02:59.138Z</time></trkpt><trkpt lat="42.037123" lon="11.9657408"><ele>39.0</ele><time>2026-04-30T08:03:01.112Z</time></trkpt><trkpt lat="42.037275" lon="11.965541"><ele>39.0</ele><time>2026-04-30T08:03:03.16Z</time></trkpt><trkpt lat="42.0373447" lon="11.9654422"><ele>39.0</ele><time>2026-04-30T08:03:04.083Z</time></trkpt><trkpt lat="42.0374046" lon="11.9653289"><ele>39.0</ele><time>2026-04-30T08:03:04.984Z</time></trkpt><trkpt lat="42.0374714" lon="11.9652091"><ele>41.2</ele><time>2026-04-30T08:03:05.923Z</time></trkpt><trkpt lat="42.0375233" lon="11.9650847"><ele>43.4</ele><time>2026-04-30T08:03:06.995Z</time></trkpt><trkpt lat="42.0375569" lon="11.9649868"><ele>45.6</ele><time>2026-04-30T08:03:07.949Z</time></trkpt><trkpt lat="42.0375959" lon="11.9649002"><ele>47.8</ele><time>2026-04-30T08:03:09.016Z</time></trkpt><trkpt lat="42.0376871" lon="11.9648277"><ele>50.0</ele><time>2026-04-30T08:03:10.991Z</time></trkpt><trkpt lat="42.0378173" lon="11.9649106"><ele>50.0</ele><time>2026-04-30T08:03:12.904Z</time></trkpt><trkpt lat="42.0379108" lon="11.964983"><ele>50.0</ele><time>2026-04-30T08:03:13.956Z</time></trkpt><trkpt lat="42.0380235" lon="11.9650599"><ele>50.0</ele><time>2026-04-30T08:03:15.044Z</time></trkpt><trkpt lat="42.0381427" lon="11.9651266"><ele>50.0</ele><time>2026-04-30T08:03:16.119Z</time></trkpt><trkpt lat="42.0382281" lon="11.9651975"><ele>53.66666666666667</ele><time>2026-04-30T08:03:17.044Z</time></trkpt><trkpt lat="42.0383186" lon="11.9653012"><ele>57.33333333333333</ele><time>2026-04-30T08:03:18.156Z</time></trkpt><trkpt lat="42.0384956" lon="11.965501"><ele>61.0</ele><time>2026-04-30T08:03:20.088Z</time></trkpt><trkpt lat="42.038596" lon="11.9655957"><ele>61.0</ele><time>2026-04-30T08:03:21.088Z</time></trkpt><trkpt lat="42.038703" lon="11.9656552"><ele>61.0</ele><time>2026-04-30T08:03:22.018Z</time></trkpt><trkpt lat="42.0388235" lon="11.9656927"><ele>61.0</ele><time>2026-04-30T08:03:22.969Z</time></trkpt><trkpt lat="42.0389414" lon="11.9657237"><ele>61.0</ele><time>2026-04-30T08:03:23.943Z</time></trkpt><trkpt lat="42.0390648" lon="11.9657309"><ele>65.0</ele><time>2026-04-30T08:03:25.06Z</time></trkpt><trkpt lat="42.0391675" lon="11.9657064"><ele>69.0</ele><time>2026-04-30T08:03:26.008Z</time></trkpt><trkpt lat="42.0392928" lon="11.9656481"><ele>73.0</ele><time>2026-04-30T08:03:27.103Z</time></trkpt><trkpt lat="42.0394099" lon="11.9655834"><ele>77.0</ele><time>2026-04-30T08:03:28.052Z</time></trkpt><trkpt lat="42.0395143" lon="11.9655399"><ele>77.0</ele><time>2026-04-30T08:03:28.963Z</time></trkpt><trkpt lat="42.0396176" lon="11.965515"><ele>77.0</ele><time>2026-04-30T08:03:29.971Z</time></trkpt><trkpt lat="42.0397084" lon="11.9655121"><ele>77.0</ele><time>2026-04-30T08:03:30.877Z</time></trkpt><trkpt lat="42.0398295" lon="11.9655299"><ele>77.0</ele><time>2026-04-30T08:03:31.997Z</time></trkpt><trkpt lat="42.0399336" lon="11.9655603"><ele>77.0</ele><time>2026-04-30T08:03:32.951Z</time></trkpt><trkpt lat="42.0400667" lon="11.9656183"><ele>79.33333333333334</ele><time>2026-04-30T08:03:34.032Z</time></trkpt><trkpt lat="42.040301" lon="11.9657298"><ele>81.66666666666667</ele><time>2026-04-30T08:03:36.002Z</time></trkpt><trkpt lat="42.0404209" lon="11.9657522"><ele>84.0</ele><time>2026-04-30T08:03:37.049Z</time></trkpt><trkpt lat="42.0405368" lon="11.9657662"><ele>85.0</ele><time>2026-04-30T08:03:37.952Z</time></trkpt><trkpt lat="42.0408269" lon="11.9658588"><ele>86.0</ele><time>2026-04-30T08:03:39.907Z</time></trkpt><trkpt lat="42.0409801" lon="11.9659088"><ele>81.66666666666667</ele><time>2026-04-30T08:03:40.866Z</time></trkpt><trkpt lat="42.0411779" lon="11.9659502"><ele>77.33333333333333</ele><time>2026-04-30T08:03:42.022Z</time></trkpt><trkpt lat="42.0413579" lon="11.9659466"><ele>73.0</ele><time>2026-04-30T08:03:43.051Z</time></trkpt><trkpt lat="42.0415442" lon="11.9659449"><ele>75.33333333333333</ele><time>2026-04-30T08:03:44.186Z</time></trkpt><trkpt lat="42.0417711" lon="11.9660042"><ele>77.66666666666667</ele><time>2026-04-30T08:03:46.051Z</time></trkpt><trkpt lat="42.0418662" lon="11.9660633"><ele>80.0</ele><time>2026-04-30T08:03:46.979Z</time></trkpt><trkpt lat="42.0421314" lon="11.9663142"><ele>80.0</ele><time>2026-04-30T08:03:49.122Z</time></trkpt><trkpt lat="42.0424225" lon="11.9666003"><ele>80.0</ele><time>2026-04-30T08:03:51.083Z</time></trkpt><trkpt lat="42.042581" lon="11.966728"><ele>82.0</ele><time>2026-04-30T08:03:52.046Z</time></trkpt><trkpt lat="42.0427478" lon="11.9668585"><ele>84.0</ele><time>2026-04-30T08:03:53.016Z</time></trkpt><trkpt lat="42.0430384" lon="11.9671141"><ele>84.0</ele><time>2026-04-30T08:03:55.018Z</time></trkpt><trkpt lat="42.0431411" lon="11.9672248"><ele>84.0</ele><time>2026-04-30T08:03:55.926Z</time></trkpt><trkpt lat="42.0432319" lon="11.9673285"><ele>84.0</ele><time>2026-04-30T08:03:56.836Z</time></trkpt><trkpt lat="42.0433123" lon="11.9674499"><ele>84.0</ele><time>2026-04-30T08:03:58.063Z</time></trkpt><trkpt lat="42.0433723" lon="11.9675712"><ele>85.5</ele><time>2026-04-30T08:03:58.976Z</time></trkpt><trkpt lat="42.0434757" lon="11.9678252"><ele>87.0</ele><time>2026-04-30T08:04:00.932Z</time></trkpt><trkpt lat="42.043559" lon="11.9679043"><ele>88.5</ele><time>2026-04-30T08:04:01.924Z</time></trkpt><trkpt lat="42.0436611" lon="11.9679546"><ele>90.0</ele><time>2026-04-30T08:04:03.058Z</time></trkpt><trkpt lat="42.0437658" lon="11.967971"><ele>90.0</ele><time>2026-04-30T08:04:04.059Z</time></trkpt><trkpt lat="42.0438711" lon="11.9679624"><ele>90.0</ele><time>2026-04-30T08:04:04.989Z</time></trkpt><trkpt lat="42.0440108" lon="11.9679171"><ele>90.0</ele><time>2026-04-30T08:04:06.107Z</time></trkpt><trkpt lat="42.0441372" lon="11.9678572"><ele>90.0</ele><time>2026-04-30T08:04:07.036Z</time></trkpt><trkpt lat="42.0442661" lon="11.9677875"><ele>91.2</ele><time>2026-04-30T08:04:07.972Z</time></trkpt><trkpt lat="42.0443925" lon="11.9677254"><ele>92.4</ele><time>2026-04-30T08:04:09.135Z</time></trkpt><trkpt lat="42.0445592" lon="11.9676759"><ele>93.6</ele><time>2026-04-30T08:04:11.108Z</time></trkpt><trkpt lat="42.0446225" lon="11.9676911"><ele>94.8</ele><time>2026-04-30T08:04:12.064Z</time></trkpt><trkpt lat="42.0446809" lon="11.9677324"><ele>96.0</ele><time>2026-04-30T08:04:13.13Z</time></trkpt><trkpt lat="42.0447375" lon="11.9678051"><ele>96.0</ele><time>2026-04-30T08:04:14.937Z</time></trkpt><trkpt lat="42.0447107" lon="11.967966"><ele>96.0</ele><time>2026-04-30T08:04:16.928Z</time></trkpt><trkpt lat="42.0446855" lon="11.9680588"><ele>96.0</ele><time>2026-04-30T08:04:17.899Z</time></trkpt><trkpt lat="42.0446673" lon="11.9681621"><ele>96.0</ele><time>2026-04-30T08:04:19.134Z</time></trkpt><trkpt lat="42.0447304" lon="11.9682699"><ele>96.0</ele><time>2026-04-30T08:04:21.027Z</time></trkpt><trkpt lat="42.0447759" lon="11.9684115"><ele>97.75</ele><time>2026-04-30T08:04:22.976Z</time></trkpt><trkpt lat="42.0447938" lon="11.9685494"><ele>99.5</ele><time>2026-04-30T08:04:24.926Z</time></trkpt><trkpt lat="42.0448997" lon="11.9686241"><ele>101.25</ele><time>2026-04-30T08:04:27.115Z</time></trkpt><trkpt lat="42.0450562" lon="11.9686561"><ele>103.0</ele><time>2026-04-30T08:04:28.943Z</time></trkpt><trkpt lat="42.0451375" lon="11.9686894"><ele>105.75</ele><time>2026-04-30T08:04:30.029Z</time></trkpt><trkpt lat="42.0452081" lon="11.9687471"><ele>108.5</ele><time>2026-04-30T08:04:31.048Z</time></trkpt><trkpt lat="42.0452931" lon="11.9688396"><ele>111.25</ele><time>2026-04-30T08:04:32.221Z</time></trkpt><trkpt lat="42.0454566" lon="11.9690338"><ele>114.0</ele><time>2026-04-30T08:04:34.087Z</time></trkpt><trkpt lat="42.0455478" lon="11.9691508"><ele>113.80000000000001</ele><time>2026-04-30T08:04:35.118Z</time></trkpt><trkpt lat="42.0456284" lon="11.9692179"><ele>113.60000000000001</ele><time>2026-04-30T08:04:36.043Z</time></trkpt><trkpt lat="42.0457299" lon="11.9692667"><ele>113.4</ele><time>2026-04-30T08:04:37.093Z</time></trkpt><trkpt lat="42.0458377" lon="11.9693046"><ele>113.2</ele><time>2026-04-30T08:04:38.043Z</time></trkpt><trkpt lat="42.0459515" lon="11.9693368"><ele>113.0</ele><time>2026-04-30T08:04:39.022Z</time></trkpt><trkpt lat="42.0460757" lon="11.9693781"><ele>116.5</ele><time>2026-04-30T08:04:40.066Z</time></trkpt><trkpt lat="42.0463365" lon="11.969509"><ele>120.0</ele><time>2026-04-30T08:04:42.14Z</time></trkpt><trkpt lat="42.0465064" lon="11.9696321"><ele>120.0</ele><time>2026-04-30T08:04:43.946Z</time></trkpt><trkpt lat="42.0466184" lon="11.9696818"><ele>120.0</ele><time>2026-04-30T08:04:44.937Z</time></trkpt><trkpt lat="42.0467582" lon="11.9697185"><ele>120.0</ele><time>2026-04-30T08:04:46.143Z</time></trkpt><trkpt lat="42.0469384" lon="11.96973"><ele>120.0</ele><time>2026-04-30T08:04:47.983Z</time></trkpt><trkpt lat="42.0470396" lon="11.9697647"><ele>122.25</ele><time>2026-04-30T08:04:49.034Z</time></trkpt><trkpt lat="42.0471267" lon="11.9698192"><ele>124.5</ele><time>2026-04-30T08:04:50.019Z</time></trkpt><trkpt lat="42.0472228" lon="11.969896"><ele>126.75</ele><time>2026-04-30T08:04:50.928Z</time></trkpt><trkpt lat="42.0473444" lon="11.9700337"><ele>129.0</ele><time>2026-04-30T08:04:52.114Z</time></trkpt><trkpt lat="42.0474164" lon="11.9701267"><ele>134.66666666666666</ele><time>2026-04-30T08:04:53.05Z</time></trkpt><trkpt lat="42.0475134" lon="11.9702491"><ele>140.33333333333331</ele><time>2026-04-30T08:04:54.117Z</time></trkpt><trkpt lat="42.047702" lon="11.970442"><ele>146.0</ele><time>2026-04-30T08:04:56.103Z</time></trkpt><trkpt lat="42.0478147" lon="11.970507"><ele>146.0</ele><time>2026-04-30T08:04:57.144Z</time></trkpt><trkpt lat="42.0479953" lon="11.970616"><ele>146.0</ele><time>2026-04-30T08:04:58.892Z</time></trkpt><trkpt lat="42.0481451" lon="11.9706801"><ele>146.0</ele><time>2026-04-30T08:04:59.974Z</time></trkpt><trkpt lat="42.0482897" lon="11.9707385"><ele>148.5</ele><time>2026-04-30T08:05:01.251Z</time></trkpt><trkpt lat="42.0484696" lon="11.9708092"><ele>151.0</ele><time>2026-04-30T08:05:03.087Z</time></trkpt><trkpt lat="42.048553" lon="11.9708702"><ele>153.5</ele><time>2026-04-30T08:05:04.045Z</time></trkpt><trkpt lat="42.0486371" lon="11.9709286"><ele>156.0</ele><time>2026-04-30T08:05:05.045Z</time></trkpt><trkpt lat="42.0487227" lon="11.9709482"><ele>156.0</ele><time>2026-04-30T08:05:05.995Z</time></trkpt><trkpt lat="42.048829" lon="11.9709415"><ele>156.0</ele><time>2026-04-30T08:05:07.04Z</time></trkpt><trkpt lat="42.0490011" lon="11.9708479"><ele>156.0</ele><time>2026-04-30T08:05:08.977Z</time></trkpt><trkpt lat="42.0490504" lon="11.9707765"><ele>156.0</ele><time>2026-04-30T08:05:10.068Z</time></trkpt><trkpt lat="42.0490647" lon="11.9705827"><ele>156.0</ele><time>2026-04-30T08:05:12.048Z</time></trkpt><trkpt lat="42.0489978" lon="11.9703774"><ele>156.0</ele><time>2026-04-30T08:05:14.007Z</time></trkpt><trkpt lat="42.0489554" lon="11.9702046"><ele>156.0</ele><time>2026-04-30T08:05:15.088Z</time></trkpt><trkpt lat="42.0489122" lon="11.9700812"><ele>156.0</ele><time>2026-04-30T08:05:16.04Z</time></trkpt><trkpt lat="42.0488648" lon="11.9699545"><ele>157.2</ele><time>2026-04-30T08:05:17.077Z</time></trkpt><trkpt lat="42.0488401" lon="11.9696847"><ele>158.39999999999998</ele><time>2026-04-30T08:05:18.996Z</time></trkpt><trkpt lat="42.0488518" lon="11.9695836"><ele>159.6</ele><time>2026-04-30T08:05:19.964Z</time></trkpt><trkpt lat="42.0488701" lon="11.9694892"><ele>160.79999999999998</ele><time>2026-04-30T08:05:20.911Z</time></trkpt><trkpt lat="42.0489121" lon="11.9693892"><ele>162.0</ele><time>2026-04-30T08:05:22.151Z</time></trkpt><trkpt lat="42.0489813" lon="11.9693324"><ele>162.0</ele><time>2026-04-30T08:05:23.052Z</time></trkpt><trkpt lat="42.0490804" lon="11.9692724"><ele>162.0</ele><time>2026-04-30T08:05:24.053Z</time></trkpt><trkpt lat="42.0492068" lon="11.9692091"><ele>162.0</ele><time>2026-04-30T08:05:25.067Z</time></trkpt><trkpt lat="42.0493574" lon="11.9691443"><ele>162.0</ele><time>2026-04-30T08:05:26.26Z</time></trkpt><trkpt lat="42.0495288" lon="11.9690217"><ele>165.6</ele><time>2026-04-30T08:05:28.067Z</time></trkpt><trkpt lat="42.0496228" lon="11.9689563"><ele>169.2</ele><time>2026-04-30T08:05:29.186Z</time></trkpt><trkpt lat="42.0497219" lon="11.9688055"><ele>172.8</ele><time>2026-04-30T08:05:31.114Z</time></trkpt><trkpt lat="42.0497634" lon="11.968712"><ele>176.4</ele><time>2026-04-30T08:05:32.063Z</time></trkpt><trkpt lat="42.0498096" lon="11.968606"><ele>180.0</ele><time>2026-04-30T08:05:33.168Z</time></trkpt><trkpt lat="42.0499117" lon="11.9685131"><ele>182.5</ele><time>2026-04-30T08:05:35.127Z</time></trkpt><trkpt lat="42.0499886" lon="11.9684933"><ele>185.0</ele><time>2026-04-30T08:05:36.03Z</time></trkpt><trkpt lat="42.0500853" lon="11.9684564"><ele>187.5</ele><time>2026-04-30T08:05:37.076Z</time></trkpt><trkpt lat="42.050275" lon="11.9683597"><ele>190.0</ele><time>2026-04-30T08:05:39.058Z</time></trkpt><trkpt lat="42.0503387" lon="11.9683005"><ele>190.0</ele><time>2026-04-30T08:05:40.075Z</time></trkpt><trkpt lat="42.0504312" lon="11.9682439"><ele>190.0</ele><time>2026-04-30T08:05:41.08Z</time></trkpt><trkpt lat="42.0505356" lon="11.9681852"><ele>190.0</ele><time>2026-04-30T08:05:42.097Z</time></trkpt><trkpt lat="42.0506359" lon="11.9681147"><ele>190.0</ele><time>2026-04-30T08:05:43.242Z</time></trkpt><trkpt lat="42.050748" lon="11.9679411"><ele>192.5</ele><time>2026-04-30T08:05:44.887Z</time></trkpt><trkpt lat="42.0508201" lon="11.9678572"><ele>195.0</ele><time>2026-04-30T08:05:46.199Z</time></trkpt><trkpt lat="42.0509211" lon="11.9677311"><ele>197.5</ele><time>2026-04-30T08:05:47.994Z</time></trkpt><trkpt lat="42.0510026" lon="11.9676227"><ele>200.0</ele><time>2026-04-30T08:05:49.048Z</time></trkpt><trkpt lat="42.051083" lon="11.967521"><ele>200.0</ele><time>2026-04-30T08:05:49.997Z</time></trkpt><trkpt lat="42.0511654" lon="11.9674159"><ele>200.0</ele><time>2026-04-30T08:05:51.057Z</time></trkpt><trkpt lat="42.0512092" lon="11.9673376"><ele>200.0</ele><time>2026-04-30T08:05:51.999Z</time></trkpt><trkpt lat="42.0512306" lon="11.9672381"><ele>200.0</ele><time>2026-04-30T08:05:53.027Z</time></trkpt><trkpt lat="42.0512278" lon="11.9671198"><ele>200.0</ele><time>2026-04-30T08:05:54.007Z</time></trkpt><trkpt lat="42.0511983" lon="11.9668629"><ele>199.5</ele><time>2026-04-30T08:05:56.065Z</time></trkpt><trkpt lat="42.0512097" lon="11.9666173"><ele>199.0</ele><time>2026-04-30T08:05:58.078Z</time></trkpt><trkpt lat="42.0512265" lon="11.9664407"><ele>198.5</ele><time>2026-04-30T08:05:59.128Z</time></trkpt><trkpt lat="42.0512336" lon="11.966272"><ele>198.0</ele><time>2026-04-30T08:06:00.181Z</time></trkpt><trkpt lat="42.0513066" lon="11.9661049"><ele>198.0</ele><time>2026-04-30T08:06:01.909Z</time></trkpt><trkpt lat="42.0513595" lon="11.9659692"><ele>198.0</ele><time>2026-04-30T08:06:03.018Z</time></trkpt><trkpt lat="42.0514088" lon="11.9658518"><ele>198.0</ele><time>2026-04-30T08:06:04.019Z</time></trkpt><trkpt lat="42.0514612" lon="11.9657447"><ele>198.0</ele><time>2026-04-30T08:06:05.031Z</time></trkpt><trkpt lat="42.0516022" lon="11.965402"><ele>205.33333333333331</ele><time>2026-04-30T08:06:08.067Z</time></trkpt><trkpt lat="42.0517044" lon="11.965183"><ele>212.66666666666666</ele><time>2026-04-30T08:06:10.025Z</time></trkpt><trkpt lat="42.0518562" lon="11.9649704"><ele>220.0</ele><time>2026-04-30T08:06:12.061Z</time></trkpt><trkpt lat="42.0519679" lon="11.9648661"><ele>220.0</ele><time>2026-04-30T08:06:13.954Z</time></trkpt><trkpt lat="42.0520564" lon="11.9647578"><ele>220.0</ele><time>2026-04-30T08:06:14.983Z</time></trkpt><trkpt lat="42.0521426" lon="11.9646181"><ele>220.0</ele><time>2026-04-30T08:06:15.921Z</time></trkpt><trkpt lat="42.0522237" lon="11.9644732"><ele>220.0</ele><time>2026-04-30T08:06:16.841Z</time></trkpt><trkpt lat="42.0523372" lon="11.9643116"><ele>218.66666666666666</ele><time>2026-04-30T08:06:18.023Z</time></trkpt><trkpt lat="42.0524336" lon="11.9641588"><ele>217.33333333333331</ele><time>2026-04-30T08:06:19.123Z</time></trkpt><trkpt lat="42.052595" lon="11.9639039"><ele>216.0</ele><time>2026-04-30T08:06:21.118Z</time></trkpt><trkpt lat="42.0527137" lon="11.9637231"><ele>219.0</ele><time>2026-04-30T08:06:23.094Z</time></trkpt><trkpt lat="42.0528989" lon="11.963579"><ele>222.0</ele><time>2026-04-30T08:06:25.067Z</time></trkpt><trkpt lat="42.0530056" lon="11.9635271"><ele>225.0</ele><time>2026-04-30T08:06:26.01Z</time></trkpt><trkpt lat="42.0531249" lon="11.9634845"><ele>225.0</ele><time>2026-04-30T08:06:27.06Z</time></trkpt><trkpt lat="42.0532273" lon="11.9634388"><ele>225.0</ele><time>2026-04-30T08:06:28.07Z</time></trkpt><trkpt lat="42.0533206" lon="11.963401"><ele>225.0</ele><time>2026-04-30T08:06:29.03Z</time></trkpt><trkpt lat="42.0534156" lon="11.9633815"><ele>225.0</ele><time>2026-04-30T08:06:29.944Z</time></trkpt><trkpt lat="42.0535602" lon="11.9633609"><ele>225.0</ele><time>2026-04-30T08:06:31.171Z</time></trkpt><trkpt lat="42.0538136" lon="11.9633647"><ele>227.33333333333331</ele><time>2026-04-30T08:06:33.136Z</time></trkpt><trkpt lat="42.0540254" lon="11.9633958"><ele>229.66666666666666</ele><time>2026-04-30T08:06:35.136Z</time></trkpt><trkpt lat="42.0542158" lon="11.9633729"><ele>232.0</ele><time>2026-04-30T08:06:36.997Z</time></trkpt><trkpt lat="42.0543256" lon="11.96337"><ele>232.0</ele><time>2026-04-30T08:06:38.075Z</time></trkpt><trkpt lat="42.0545198" lon="11.9633792"><ele>232.0</ele><time>2026-04-30T08:06:40.07Z</time></trkpt><trkpt lat="42.0546162" lon="11.9633834"><ele>232.0</ele><time>2026-04-30T08:06:41.018Z</time></trkpt><trkpt lat="42.0546996" lon="11.9633634"><ele>232.0</ele><time>2026-04-30T08:06:41.926Z</time></trkpt><trkpt lat="42.0547975" lon="11.9633261"><ele>228.8</ele><time>2026-04-30T08:06:43.103Z</time></trkpt><trkpt lat="42.0548543" lon="11.9632607"><ele>225.6</ele><time>2026-04-30T08:06:44.004Z</time></trkpt><trkpt lat="42.0549227" lon="11.9632419"><ele>222.40000000000003</ele><time>2026-04-30T08:06:44.973Z</time></trkpt><trkpt lat="42.0549984" lon="11.9632484"><ele>219.20000000000002</ele><time>2026-04-30T08:06:46.016Z</time></trkpt><trkpt lat="42.0550835" lon="11.9632815"><ele>216.0</ele><time>2026-04-30T08:06:47.132Z</time></trkpt><trkpt lat="42.0552432" lon="11.9633416"><ele>214.8</ele><time>2026-04-30T08:06:49.028Z</time></trkpt><trkpt lat="42.0553246" lon="11.9633262"><ele>213.60000000000002</ele><time>2026-04-30T08:06:50.068Z</time></trkpt><trkpt lat="42.0553942" lon="11.9632922"><ele>212.4</ele><time>2026-04-30T08:06:51.056Z</time></trkpt><trkpt lat="42.0554268" lon="11.9631848"><ele>211.2</ele><time>2026-04-30T08:06:52.987Z</time></trkpt><trkpt lat="42.0554324" lon="11.9629583"><ele>210.0</ele><time>2026-04-30T08:06:55.924Z</time></trkpt><trkpt lat="42.0554395" lon="11.9628594"><ele>210.0</ele><time>2026-04-30T08:06:57.058Z</time></trkpt><trkpt lat="42.0554482" lon="11.962775"><ele>210.0</ele><time>2026-04-30T08:06:58.066Z</time></trkpt><trkpt lat="42.0554838" lon="11.9626501"><ele>210.0</ele><time>2026-04-30T08:06:59.984Z</time></trkpt><trkpt lat="42.055597" lon="11.9625819"><ele>210.0</ele><time>2026-04-30T08:07:02.085Z</time></trkpt><trkpt lat="42.0557395" lon="11.9625309"><ele>210.0</ele><time>2026-04-30T08:07:03.892Z</time></trkpt><trkpt lat="42.0558293" lon="11.9625027"><ele>208.8</ele><time>2026-04-30T08:07:04.989Z</time></trkpt><trkpt lat="42.0559272" lon="11.9625197"><ele>207.6</ele><time>2026-04-30T08:07:05.954Z</time></trkpt><trkpt lat="42.0560675" lon="11.9625369"><ele>206.39999999999998</ele><time>2026-04-30T08:07:06.957Z</time></trkpt><trkpt lat="42.0561731" lon="11.962524"><ele>205.2</ele><time>2026-04-30T08:07:07.995Z</time></trkpt><trkpt lat="42.0562762" lon="11.9625151"><ele>204.0</ele><time>2026-04-30T08:07:08.966Z</time></trkpt><trkpt lat="42.0563931" lon="11.962506"><ele>200.0</ele><time>2026-04-30T08:07:10.076Z</time></trkpt><trkpt lat="42.0564814" lon="11.9624919"><ele>196.0</ele><time>2026-04-30T08:07:10.976Z</time></trkpt><trkpt lat="42.0565746" lon="11.9624733"><ele>192.0</ele><time>2026-04-30T08:07:11.956Z</time></trkpt><trkpt lat="42.0566694" lon="11.9624641"><ele>188.0</ele><time>2026-04-30T08:07:13.051Z</time></trkpt><trkpt lat="42.0567525" lon="11.9624676"><ele>184.0</ele><time>2026-04-30T08:07:14.001Z</time></trkpt><trkpt lat="42.0570534" lon="11.9624979"><ele>183.2</ele><time>2026-04-30T08:07:17.009Z</time></trkpt><trkpt lat="42.0571507" lon="11.9624842"><ele>182.39999999999998</ele><time>2026-04-30T08:07:18.123Z</time></trkpt><trkpt lat="42.0572453" lon="11.9624973"><ele>181.6</ele><time>2026-04-30T08:07:19.095Z</time></trkpt><trkpt lat="42.0574044" lon="11.9624976"><ele>180.8</ele><time>2026-04-30T08:07:20.946Z</time></trkpt><trkpt lat="42.0574788" lon="11.9624917"><ele>180.0</ele><time>2026-04-30T08:07:22.08Z</time></trkpt><trkpt lat="42.0575836" lon="11.9624655"><ele>180.0</ele><time>2026-04-30T08:07:24.111Z</time></trkpt><trkpt lat="42.0576887" lon="11.9624438"><ele>180.0</ele><time>2026-04-30T08:07:25.96Z</time></trkpt><trkpt lat="42.0578103" lon="11.9623569"><ele>180.0</ele><time>2026-04-30T08:07:27.988Z</time></trkpt><trkpt lat="42.057864" lon="11.9622964"><ele>180.0</ele><time>2026-04-30T08:07:29.004Z</time></trkpt><trkpt lat="42.0579158" lon="11.9622351"><ele>180.0</ele><time>2026-04-30T08:07:30.045Z</time></trkpt><trkpt lat="42.0580449" lon="11.9621738"><ele>180.0</ele><time>2026-04-30T08:07:33.039Z</time></trkpt><trkpt lat="42.058146" lon="11.962097"><ele>180.0</ele><time>2026-04-30T08:07:34.975Z</time></trkpt><trkpt lat="42.0582004" lon="11.9620267"><ele>180.0</ele><time>2026-04-30T08:07:36.017Z</time></trkpt><trkpt lat="42.0582955" lon="11.9619354"><ele>180.0</ele><time>2026-04-30T08:07:38.066Z</time></trkpt><trkpt lat="42.0584158" lon="11.9618998"><ele>180.0</ele><time>2026-04-30T08:07:39.954Z</time></trkpt><trkpt lat="42.0584828" lon="11.9618676"><ele>179.83333333333334</ele><time>2026-04-30T08:07:41.063Z</time></trkpt><trkpt lat="42.0585459" lon="11.9618283"><ele>179.66666666666666</ele><time>2026-04-30T08:07:42.027Z</time></trkpt><trkpt lat="42.0586184" lon="11.9617427"><ele>179.5</ele><time>2026-04-30T08:07:44.104Z</time></trkpt><trkpt lat="42.0587342" lon="11.9616563"><ele>179.33333333333331</ele><time>2026-04-30T08:07:45.941Z</time></trkpt><trkpt lat="42.0587914" lon="11.9615912"><ele>179.16666666666666</ele><time>2026-04-30T08:07:47.021Z</time></trkpt><trkpt lat="42.0588444" lon="11.9615424"><ele>179.0</ele><time>2026-04-30T08:07:47.886Z</time></trkpt><trkpt lat="42.0589104" lon="11.9614816"><ele>176.0</ele><time>2026-04-30T08:07:48.846Z</time></trkpt><trkpt lat="42.0589819" lon="11.9614192"><ele>173.0</ele><time>2026-04-30T08:07:49.94Z</time></trkpt><trkpt lat="42.05908" lon="11.9613233"><ele>170.0</ele><time>2026-04-30T08:07:51.975Z</time></trkpt><trkpt lat="42.0591336" lon="11.9612646"><ele>167.0</ele><time>2026-04-30T08:07:53.177Z</time></trkpt><trkpt lat="42.0592368" lon="11.9611845"><ele>164.0</ele><time>2026-04-30T08:07:55.033Z</time></trkpt><trkpt lat="42.0593253" lon="11.9611023"><ele>163.6</ele><time>2026-04-30T08:07:57.059Z</time></trkpt><trkpt lat="42.0594248" lon="11.9610508"><ele>163.2</ele><time>2026-04-30T08:08:00.023Z</time></trkpt><trkpt lat="42.0595374" lon="11.9610781"><ele>162.79999999999998</ele><time>2026-04-30T08:08:02.045Z</time></trkpt><trkpt lat="42.0596225" lon="11.9611196"><ele>162.39999999999998</ele><time>2026-04-30T08:08:04.002Z</time></trkpt><trkpt lat="42.0596837" lon="11.9611659"><ele>162.0</ele><time>2026-04-30T08:08:05.09Z</time></trkpt><trkpt lat="42.0597659" lon="11.9612668"><ele>162.0</ele><time>2026-04-30T08:08:07.038Z</time></trkpt><trkpt lat="42.0598726" lon="11.9613028"><ele>162.0</ele><time>2026-04-30T08:08:08.916Z</time></trkpt><trkpt lat="42.0599906" lon="11.961302"><ele>162.0</ele><time>2026-04-30T08:08:11.096Z</time></trkpt><trkpt lat="42.0600883" lon="11.961263"><ele>162.0</ele><time>2026-04-30T08:08:12.863Z</time></trkpt><trkpt lat="42.0602303" lon="11.9611562"><ele>160.79999999999998</ele><time>2026-04-30T08:08:16.062Z</time></trkpt><trkpt lat="42.0603008" lon="11.9610296"><ele>159.6</ele><time>2026-04-30T08:08:18.023Z</time></trkpt><trkpt lat="42.0603565" lon="11.9609309"><ele>158.39999999999998</ele><time>2026-04-30T08:08:20.164Z</time></trkpt><trkpt lat="42.0604371" lon="11.9608896"><ele>157.2</ele><time>2026-04-30T08:08:21.964Z</time></trkpt><trkpt lat="42.0605369" lon="11.9609294"><ele>156.0</ele><time>2026-04-30T08:08:23.988Z</time></trkpt><trkpt lat="42.0606358" lon="11.9609598"><ele>156.0</ele><time>2026-04-30T08:08:25.83Z</time></trkpt><trkpt lat="42.060704" lon="11.9609472"><ele>156.0</ele><time>2026-04-30T08:08:26.987Z</time></trkpt><trkpt lat="42.0607763" lon="11.96095"><ele>156.0</ele><time>2026-04-30T08:08:28.845Z</time></trkpt><trkpt lat="42.0608585" lon="11.9610352"><ele>156.0</ele><time>2026-04-30T08:08:30.864Z</time></trkpt><trkpt lat="42.0609127" lon="11.9610897"><ele>156.0</ele><time>2026-04-30T08:08:32.005Z</time></trkpt><trkpt lat="42.0610672" lon="11.9612249"><ele>156.6</ele><time>2026-04-30T08:08:35.028Z</time></trkpt><trkpt lat="42.061158" lon="11.9612629"><ele>157.2</ele><time>2026-04-30T08:08:36.084Z</time></trkpt><trkpt lat="42.0612585" lon="11.9612961"><ele>157.8</ele><time>2026-04-30T08:08:37.247Z</time></trkpt><trkpt lat="42.0613542" lon="11.961399"><ele>158.4</ele><time>2026-04-30T08:08:39.046Z</time></trkpt><trkpt lat="42.0614048" lon="11.9614743"><ele>159.0</ele><time>2026-04-30T08:08:40.041Z</time></trkpt><trkpt lat="42.0614829" lon="11.9616418"><ele>161.16666666666666</ele><time>2026-04-30T08:08:42.055Z</time></trkpt><trkpt lat="42.0615056" lon="11.961752"><ele>163.33333333333334</ele><time>2026-04-30T08:08:43.102Z</time></trkpt><trkpt lat="42.0615241" lon="11.9618404"><ele>165.5</ele><time>2026-04-30T08:08:44.053Z</time></trkpt><trkpt lat="42.0615478" lon="11.9619228"><ele>167.66666666666669</ele><time>2026-04-30T08:08:45.041Z</time></trkpt><trkpt lat="42.0615737" lon="11.9620004"><ele>169.83333333333334</ele><time>2026-04-30T08:08:46.057Z</time></trkpt><trkpt lat="42.0616731" lon="11.9621281"><ele>172.0</ele><time>2026-04-30T08:08:49.007Z</time></trkpt><trkpt lat="42.0617584" lon="11.9621129"><ele>174.0</ele><time>2026-04-30T08:08:50.968Z</time></trkpt><trkpt lat="42.0618552" lon="11.9621208"><ele>176.0</ele><time>2026-04-30T08:08:53.021Z</time></trkpt><trkpt lat="42.0619478" lon="11.9621094"><ele>178.0</ele><time>2026-04-30T08:08:55.029Z</time></trkpt><trkpt lat="42.0620363" lon="11.9621393"><ele>180.0</ele><time>2026-04-30T08:08:57.106Z</time></trkpt><trkpt lat="42.0621287" lon="11.9621755"><ele>182.0</ele><time>2026-04-30T08:08:58.965Z</time></trkpt><trkpt lat="42.0622355" lon="11.9622146"><ele>182.0</ele><time>2026-04-30T08:09:01.101Z</time></trkpt><trkpt lat="42.0623051" lon="11.9623406"><ele>182.0</ele><time>2026-04-30T08:09:04.03Z</time></trkpt><trkpt lat="42.0623637" lon="11.9624442"><ele>182.0</ele><time>2026-04-30T08:09:06.181Z</time></trkpt><trkpt lat="42.0623844" lon="11.9625619"><ele>182.0</ele><time>2026-04-30T08:09:10.823Z</time></trkpt><trkpt lat="42.0623447" lon="11.9626417"><ele>182.0</ele><time>2026-04-30T08:09:24.886Z</time></trkpt><trkpt lat="42.0623933" lon="11.9626963"><ele>182.0</ele><time>2026-04-30T08:09:28.011Z</time></trkpt><trkpt lat="42.0624231" lon="11.9628106"><ele>186.66666666666666</ele><time>2026-04-30T08:09:31.024Z</time></trkpt><trkpt lat="42.0624703" lon="11.9629323"><ele>191.33333333333331</ele><time>2026-04-30T08:09:33.988Z</time></trkpt><trkpt lat="42.0625519" lon="11.9629872"><ele>196.0</ele><time>2026-04-30T08:09:36.138Z</time></trkpt><trkpt lat="42.0626124" lon="11.9630786"><ele>200.66666666666666</ele><time>2026-04-30T08:09:38.152Z</time></trkpt><trkpt lat="42.0626685" lon="11.9631748"><ele>205.33333333333334</ele><time>2026-04-30T08:09:40.088Z</time></trkpt><trkpt lat="42.0627295" lon="11.9632181"><ele>210.0</ele><time>2026-04-30T08:09:41.915Z</time></trkpt><trkpt lat="42.0627701" lon="11.9633078"><ele>213.2</ele><time>2026-04-30T08:09:44.022Z</time></trkpt><trkpt lat="42.062806" lon="11.9634308"><ele>216.4</ele><time>2026-04-30T08:09:46.021Z</time></trkpt><trkpt lat="42.062834" lon="11.9635294"><ele>219.60000000000002</ele><time>2026-04-30T08:09:48.06Z</time></trkpt><trkpt lat="42.06284" lon="11.9636482"><ele>222.8</ele><time>2026-04-30T08:09:49.883Z</time></trkpt><trkpt lat="42.0628681" lon="11.9637859"><ele>226.0</ele><time>2026-04-30T08:09:52.063Z</time></trkpt><trkpt lat="42.0628714" lon="11.9639648"><ele>226.0</ele><time>2026-04-30T08:09:54.1Z</time></trkpt><trkpt lat="42.0628871" lon="11.9641466"><ele>226.00000000000003</ele><time>2026-04-30T08:09:55.932Z</time></trkpt><trkpt lat="42.0628844" lon="11.9642315"><ele>226.00000000000003</ele><time>2026-04-30T08:09:56.976Z</time></trkpt><trkpt lat="42.0628783" lon="11.9643634"><ele>226.0</ele><time>2026-04-30T08:09:58.946Z</time></trkpt><trkpt lat="42.0628769" lon="11.9645136"><ele>226.0</ele><time>2026-04-30T08:10:01.048Z</time></trkpt><trkpt lat="42.0628746" lon="11.9646003"><ele>227.60000000000002</ele><time>2026-04-30T08:10:02.105Z</time></trkpt><trkpt lat="42.0628489" lon="11.9647368"><ele>229.20000000000002</ele><time>2026-04-30T08:10:03.959Z</time></trkpt><trkpt lat="42.0627986" lon="11.9648522"><ele>230.79999999999998</ele><time>2026-04-30T08:10:06.099Z</time></trkpt><trkpt lat="42.0627306" lon="11.9649238"><ele>232.39999999999998</ele><time>2026-04-30T08:10:07.973Z</time></trkpt><trkpt lat="42.0626472" lon="11.9649887"><ele>234.0</ele><time>2026-04-30T08:10:10.069Z</time></trkpt><trkpt lat="42.0625885" lon="11.9650485"><ele>234.66666666666666</ele><time>2026-04-30T08:10:12.09Z</time></trkpt><trkpt lat="42.0625506" lon="11.9651764"><ele>235.33333333333331</ele><time>2026-04-30T08:10:14.985Z</time></trkpt><trkpt lat="42.0624839" lon="11.9652833"><ele>236.0</ele><time>2026-04-30T08:10:16.937Z</time></trkpt><trkpt lat="42.0624419" lon="11.9653526"><ele>236.66666666666666</ele><time>2026-04-30T08:10:17.959Z</time></trkpt><trkpt lat="42.0624152" lon="11.9654404"><ele>237.33333333333331</ele><time>2026-04-30T08:10:18.966Z</time></trkpt><trkpt lat="42.0623907" lon="11.9655453"><ele>238.0</ele><time>2026-04-30T08:10:19.941Z</time></trkpt><trkpt lat="42.0623591" lon="11.9656704"><ele>238.0</ele><time>2026-04-30T08:10:20.953Z</time></trkpt><trkpt lat="42.0623176" lon="11.9658224"><ele>238.0</ele><time>2026-04-30T08:10:21.94Z</time></trkpt><trkpt lat="42.0622699" lon="11.9659668"><ele>238.0</ele><time>2026-04-30T08:10:23.014Z</time></trkpt><trkpt lat="42.0622185" lon="11.966091"><ele>238.0</ele><time>2026-04-30T08:10:24.086Z</time></trkpt><trkpt lat="42.0621855" lon="11.9661842"><ele>238.0</ele><time>2026-04-30T08:10:25.122Z</time></trkpt><trkpt lat="42.0621321" lon="11.96632"><ele>238.2</ele><time>2026-04-30T08:10:27.077Z</time></trkpt><trkpt lat="42.0621023" lon="11.9664142"><ele>238.4</ele><time>2026-04-30T08:10:29.192Z</time></trkpt><trkpt lat="42.06212" lon="11.9665017"><ele>238.59999999999997</ele><time>2026-04-30T08:10:50.01Z</time></trkpt><trkpt lat="42.0620923" lon="11.9666226"><ele>238.79999999999998</ele><time>2026-04-30T08:11:55.246Z</time></trkpt><trkpt lat="42.0620589" lon="11.966868"><ele>239.0</ele><time>2026-04-30T08:11:57.132Z</time></trkpt><trkpt lat="42.0620314" lon="11.9669928"><ele>238.5</ele><time>2026-04-30T08:11:57.971Z</time></trkpt><trkpt lat="42.0620111" lon="11.9671497"><ele>238.0</ele><time>2026-04-30T08:11:59.002Z</time></trkpt><trkpt lat="42.0620079" lon="11.9672776"><ele>237.5</ele><time>2026-04-30T08:11:59.907Z</time></trkpt><trkpt lat="42.0620225" lon="11.9674344"><ele>237.0</ele><time>2026-04-30T08:12:01.124Z</time></trkpt><trkpt lat="42.0619965" lon="11.9676613"><ele>234.33333333333331</ele><time>2026-04-30T08:12:02.987Z</time></trkpt><trkpt lat="42.0619728" lon="11.9679157"><ele>231.66666666666666</ele><time>2026-04-30T08:12:05.133Z</time></trkpt><trkpt lat="42.0619783" lon="11.9681243"><ele>229.0</ele><time>2026-04-30T08:12:06.884Z</time></trkpt><trkpt lat="42.0619701" lon="11.9683022"><ele>227.75</ele><time>2026-04-30T08:12:08.105Z</time></trkpt><trkpt lat="42.0619436" lon="11.9685664"><ele>226.5</ele><time>2026-04-30T08:12:10.013Z</time></trkpt><trkpt lat="42.0619336" lon="11.968697"><ele>225.25</ele><time>2026-04-30T08:12:10.997Z</time></trkpt><trkpt lat="42.0619248" lon="11.9688337"><ele>224.0</ele><time>2026-04-30T08:12:12.06Z</time></trkpt><trkpt lat="42.0619265" lon="11.9689616"><ele>224.0</ele><time>2026-04-30T08:12:13.057Z</time></trkpt><trkpt lat="42.0619214" lon="11.9691061"><ele>224.0</ele><time>2026-04-30T08:12:14.016Z</time></trkpt><trkpt lat="42.0619125" lon="11.9692294"><ele>224.0</ele><time>2026-04-30T08:12:14.969Z</time></trkpt><trkpt lat="42.0619058" lon="11.9693619"><ele>224.0</ele><time>2026-04-30T08:12:16.061Z</time></trkpt><trkpt lat="42.0619107" lon="11.9695894"><ele>222.5</ele><time>2026-04-30T08:12:18.047Z</time></trkpt><trkpt lat="42.0619316" lon="11.9696742"><ele>221.0</ele><time>2026-04-30T08:12:19.088Z</time></trkpt><trkpt lat="42.0620449" lon="11.9698055"><ele>219.5</ele><time>2026-04-30T08:12:21.261Z</time></trkpt><trkpt lat="42.0621742" lon="11.9698307"><ele>218.0</ele><time>2026-04-30T08:12:23.112Z</time></trkpt><trkpt lat="42.0622505" lon="11.9699535"><ele>216.66666666666669</ele><time>2026-04-30T08:12:26.16Z</time></trkpt><trkpt lat="42.0622614" lon="11.9700577"><ele>215.33333333333331</ele><time>2026-04-30T08:12:28.114Z</time></trkpt><trkpt lat="42.0623232" lon="11.9701074"><ele>214.0</ele><time>2026-04-30T08:12:30.094Z</time></trkpt><trkpt lat="42.0620314" lon="11.9669928"><ele>217.75</ele><time>2026-04-30T08:11:57.971Z</time></trkpt><trkpt lat="42.0620111" lon="11.9671497"><ele>221.5</ele><time>2026-04-30T08:11:59.002Z</time></trkpt><trkpt lat="42.0620079" lon="11.9672776"><ele>225.25</ele><time>2026-04-30T08:11:59.907Z</time></trkpt><trkpt lat="42.0620225" lon="11.9674344"><ele>229.0</ele><time>2026-04-30T08:12:01.124Z</time></trkpt><trkpt lat="42.0619965" lon="11.9676613"><ele>229.0</ele><time>2026-04-30T08:12:02.987Z</time></trkpt><trkpt lat="42.0619728" lon="11.9679157"><ele>229.0</ele><time>2026-04-30T08:12:05.133Z</time></trkpt><trkpt lat="42.0619783" lon="11.9681243"><ele>229.0</ele><time>2026-04-30T08:12:06.884Z</time></trkpt><trkpt lat="42.0619701" lon="11.9683022"><ele>227.75</ele><time>2026-04-30T08:12:08.105Z</time></trkpt><trkpt lat="42.0619436" lon="11.9685664"><ele>226.5</ele><time>2026-04-30T08:12:10.013Z</time></trkpt><trkpt lat="42.0619336" lon="11.968697"><ele>225.25</ele><time>2026-04-30T08:12:10.997Z</time></trkpt><trkpt lat="42.0619248" lon="11.9688337"><ele>224.0</ele><time>2026-04-30T08:12:12.06Z</time></trkpt><trkpt lat="42.0619265" lon="11.9689616"><ele>224.0</ele><time>2026-04-30T08:12:13.057Z</time></trkpt><trkpt lat="42.0619214" lon="11.9691061"><ele>224.0</ele><time>2026-04-30T08:12:14.016Z</time></trkpt><trkpt lat="42.0619125" lon="11.9692294"><ele>224.0</ele><time>2026-04-30T08:12:14.969Z</time></trkpt><trkpt lat="42.0619058" lon="11.9693619"><ele>224.0</ele><time>2026-04-30T08:12:16.061Z</time></trkpt><trkpt lat="42.0619107" lon="11.9695894"><ele>222.5</ele><time>2026-04-30T08:12:18.047Z</time></trkpt><trkpt lat="42.0619316" lon="11.9696742"><ele>221.0</ele><time>2026-04-30T08:12:19.088Z</time></trkpt><trkpt lat="42.0620449" lon="11.9698055"><ele>219.5</ele><time>2026-04-30T08:12:21.261Z</time></trkpt><trkpt lat="42.0621742" lon="11.9698307"><ele>218.0</ele><time>2026-04-30T08:12:23.112Z</time></trkpt><trkpt lat="42.0622505" lon="11.9699535"><ele>218.60000000000002</ele><time>2026-04-30T08:12:26.16Z</time></trkpt><trkpt lat="42.0622614" lon="11.9700577"><ele>219.20000000000002</ele><time>2026-04-30T08:12:28.114Z</time></trkpt><trkpt lat="42.0623232" lon="11.9701074"><ele>219.8</ele><time>2026-04-30T08:12:30.094Z</time></trkpt><trkpt lat="42.0624159" lon="11.9701024"><ele>220.4</ele><time>2026-04-30T08:12:33.968Z</time></trkpt><trkpt lat="42.0625675" lon="11.970104"><ele>221.0</ele><time>2026-04-30T08:12:36.878Z</time></trkpt><trkpt lat="42.0626632" lon="11.9701029"><ele>221.0</ele><time>2026-04-30T08:12:38.136Z</time></trkpt><trkpt lat="42.0628286" lon="11.9700531"><ele>221.0</ele><time>2026-04-30T08:12:40.015Z</time></trkpt><trkpt lat="42.0629749" lon="11.9700072"><ele>221.0</ele><time>2026-04-30T08:12:41.964Z</time></trkpt><trkpt lat="42.0630499" lon="11.9699818"><ele>221.0</ele><time>2026-04-30T08:12:43.061Z</time></trkpt><trkpt lat="42.0631111" lon="11.9699014"><ele>221.75</ele><time>2026-04-30T08:12:45.134Z</time></trkpt><trkpt lat="42.063103" lon="11.9697234"><ele>222.5</ele><time>2026-04-30T08:12:47.027Z</time></trkpt><trkpt lat="42.0630448" lon="11.9695926"><ele>223.25</ele><time>2026-04-30T08:12:48.123Z</time></trkpt><trkpt lat="42.0629953" lon="11.9695046"><ele>224.0</ele><time>2026-04-30T08:12:49.065Z</time></trkpt><trkpt lat="42.0630397" lon="11.9692455"><ele>225.39999999999998</ele><time>2026-04-30T08:12:52.059Z</time></trkpt><trkpt lat="42.0630959" lon="11.9690995"><ele>226.79999999999998</ele><time>2026-04-30T08:12:53.924Z</time></trkpt><trkpt lat="42.0631273" lon="11.9689638"><ele>228.20000000000002</ele><time>2026-04-30T08:12:56.012Z</time></trkpt><trkpt lat="42.0630961" lon="11.9687803"><ele>229.60000000000002</ele><time>2026-04-30T08:12:57.9Z</time></trkpt><trkpt lat="42.0630548" lon="11.9687034"><ele>231.0</ele><time>2026-04-30T08:12:58.936Z</time></trkpt><trkpt lat="42.0630233" lon="11.9685528"><ele>231.0</ele><time>2026-04-30T08:13:00.909Z</time></trkpt><trkpt lat="42.0630245" lon="11.9684671"><ele>231.00000000000003</ele><time>2026-04-30T08:13:01.87Z</time></trkpt><trkpt lat="42.0630503" lon="11.968333"><ele>231.00000000000003</ele><time>2026-04-30T08:13:03.254Z</time></trkpt><trkpt lat="42.0630962" lon="11.96818"><ele>231.0</ele><time>2026-04-30T08:13:04.959Z</time></trkpt><trkpt lat="42.063112" lon="11.9680806"><ele>231.0</ele><time>2026-04-30T08:13:05.909Z</time></trkpt><trkpt lat="42.0631267" lon="11.9679501"><ele>232.0</ele><time>2026-04-30T08:13:07.019Z</time></trkpt><trkpt lat="42.0631196" lon="11.9678523"><ele>233.0</ele><time>2026-04-30T08:13:07.978Z</time></trkpt><trkpt lat="42.0631215" lon="11.9677303"><ele>234.0</ele><time>2026-04-30T08:13:09.096Z</time></trkpt><trkpt lat="42.0631763" lon="11.9675214"><ele>235.0</ele><time>2026-04-30T08:13:11.006Z</time></trkpt><trkpt lat="42.0632612" lon="11.9673739"><ele>238.75</ele><time>2026-04-30T08:13:12.978Z</time></trkpt><trkpt lat="42.0634398" lon="11.9672587"><ele>242.5</ele><time>2026-04-30T08:13:15.881Z</time></trkpt><trkpt lat="42.0635557" lon="11.9672397"><ele>246.25</ele><time>2026-04-30T08:13:18.078Z</time></trkpt><trkpt lat="42.063681" lon="11.9671801"><ele>250.0</ele><time>2026-04-30T08:13:20.061Z</time></trkpt><trkpt lat="42.0637451" lon="11.9671248"><ele>250.0</ele><time>2026-04-30T08:13:20.978Z</time></trkpt><trkpt lat="42.0638179" lon="11.9670367"><ele>250.0</ele><time>2026-04-30T08:13:22.08Z</time></trkpt><trkpt lat="42.0638672" lon="11.9669773"><ele>250.0</ele><time>2026-04-30T08:13:23.078Z</time></trkpt><trkpt lat="42.0640013" lon="11.9669182"><ele>250.0</ele><time>2026-04-30T08:13:25.075Z</time></trkpt><trkpt lat="42.0643259" lon="11.9668171"><ele>251.5</ele><time>2026-04-30T08:13:28.236Z</time></trkpt><trkpt lat="42.0646439" lon="11.9666443"><ele>253.0</ele><time>2026-04-30T08:13:30.997Z</time></trkpt><trkpt lat="42.0648213" lon="11.9665381"><ele>254.75</ele><time>2026-04-30T08:13:33.008Z</time></trkpt><trkpt lat="42.0649732" lon="11.966404"><ele>256.5</ele><time>2026-04-30T08:13:34.913Z</time></trkpt><trkpt lat="42.0650471" lon="11.9663594"><ele>258.25</ele><time>2026-04-30T08:13:36.051Z</time></trkpt><trkpt lat="42.0651774" lon="11.9663639"><ele>260.0</ele><time>2026-04-30T08:13:38.099Z</time></trkpt><trkpt lat="42.0653053" lon="11.9664038"><ele>260.0</ele><time>2026-04-30T08:13:39.996Z</time></trkpt><trkpt lat="42.065389" lon="11.9664198"><ele>260.0</ele><time>2026-04-30T08:13:40.98Z</time></trkpt><trkpt lat="42.0654777" lon="11.9664228"><ele>260.0</ele><time>2026-04-30T08:13:42.053Z</time></trkpt><trkpt lat="42.0655524" lon="11.9664118"><ele>260.0</ele><time>2026-04-30T08:13:43.069Z</time></trkpt><trkpt lat="42.0656496" lon="11.9663232"><ele>260.0</ele><time>2026-04-30T08:13:46.047Z</time></trkpt><trkpt lat="42.0656887" lon="11.9662496"><ele>260.0</ele><time>2026-04-30T08:13:46.982Z</time></trkpt><trkpt lat="42.0657152" lon="11.9661656"><ele>261.75</ele><time>2026-04-30T08:13:47.941Z</time></trkpt><trkpt lat="42.0657865" lon="11.9660285"><ele>263.5</ele><time>2026-04-30T08:13:50.049Z</time></trkpt><trkpt lat="42.0658677" lon="11.9658942"><ele>265.25</ele><time>2026-04-30T08:13:51.99Z</time></trkpt><trkpt lat="42.0659263" lon="11.9658405"><ele>267.0</ele><time>2026-04-30T08:13:53.133Z</time></trkpt><trkpt lat="42.066062" lon="11.965786"><ele>270.0</ele><time>2026-04-30T08:13:55.956Z</time></trkpt><trkpt lat="42.0662458" lon="11.9657154"><ele>273.0</ele><time>2026-04-30T08:13:58.114Z</time></trkpt><trkpt lat="42.0664747" lon="11.9656013"><ele>276.0</ele><time>2026-04-30T08:14:00.038Z</time></trkpt><trkpt lat="42.0665848" lon="11.9655344"><ele>278.6</ele><time>2026-04-30T08:14:02.018Z</time></trkpt><trkpt lat="42.0666491" lon="11.9654925"><ele>281.20000000000005</ele><time>2026-04-30T08:14:03.151Z</time></trkpt><trkpt lat="42.0667644" lon="11.9654387"><ele>283.79999999999995</ele><time>2026-04-30T08:14:04.913Z</time></trkpt><trkpt lat="42.0668462" lon="11.9654081"><ele>286.4</ele><time>2026-04-30T08:14:06.076Z</time></trkpt><trkpt lat="42.0669326" lon="11.9653775"><ele>289.0</ele><time>2026-04-30T08:14:07.995Z</time></trkpt><trkpt lat="42.0669855" lon="11.9652237"><ele>289.0</ele><time>2026-04-30T08:14:11.108Z</time></trkpt><trkpt lat="42.0670449" lon="11.9651821"><ele>289.0</ele><time>2026-04-30T08:14:14.078Z</time></trkpt><trkpt lat="42.0670849" lon="11.9650686"><ele>289.0</ele><time>2026-04-30T08:14:17.145Z</time></trkpt><trkpt lat="42.0671316" lon="11.9649346"><ele>289.0</ele><time>2026-04-30T08:14:19.085Z</time></trkpt><trkpt lat="42.0672084" lon="11.9648541"><ele>289.0</ele><time>2026-04-30T08:14:21.124Z</time></trkpt><trkpt lat="42.0673145" lon="11.9648419"><ele>290.0</ele><time>2026-04-30T08:14:23.047Z</time></trkpt><trkpt lat="42.0674123" lon="11.9648643"><ele>291.0</ele><time>2026-04-30T08:14:24.041Z</time></trkpt><trkpt lat="42.0675032" lon="11.964893"><ele>292.0</ele><time>2026-04-30T08:14:25.047Z</time></trkpt><trkpt lat="42.0675817" lon="11.964913"><ele>293.0</ele><time>2026-04-30T08:14:25.967Z</time></trkpt><trkpt lat="42.0676862" lon="11.9649491"><ele>294.0</ele><time>2026-04-30T08:14:27.087Z</time></trkpt><trkpt lat="42.0677962" lon="11.9650069"><ele>294.75</ele><time>2026-04-30T08:14:28.126Z</time></trkpt><trkpt lat="42.0679351" lon="11.9651226"><ele>295.5</ele><time>2026-04-30T08:14:29.941Z</time></trkpt><trkpt lat="42.0679964" lon="11.9651641"><ele>296.25</ele><time>2026-04-30T08:14:30.959Z</time></trkpt><trkpt lat="42.0681882" lon="11.9652649"><ele>297.0</ele><time>2026-04-30T08:14:33.86Z</time></trkpt><trkpt lat="42.0682621" lon="11.9653261"><ele>298.4</ele><time>2026-04-30T08:14:38.864Z</time></trkpt><trkpt lat="42.0683348" lon="11.9653695"><ele>299.79999999999995</ele><time>2026-04-30T08:14:40.004Z</time></trkpt><trkpt lat="42.0684357" lon="11.9654353"><ele>301.2</ele><time>2026-04-30T08:14:41.121Z</time></trkpt><trkpt lat="42.0685589" lon="11.9655403"><ele>302.59999999999997</ele><time>2026-04-30T08:14:42.913Z</time></trkpt><trkpt lat="42.0686166" lon="11.965601"><ele>304.0</ele><time>2026-04-30T08:14:43.902Z</time></trkpt><trkpt lat="42.0686947" lon="11.9656485"><ele>304.0</ele><time>2026-04-30T08:14:45.051Z</time></trkpt><trkpt lat="42.068786" lon="11.9656726"><ele>304.0</ele><time>2026-04-30T08:14:46.015Z</time></trkpt><trkpt lat="42.0688707" lon="11.9656896"><ele>304.0</ele><time>2026-04-30T08:14:47.063Z</time></trkpt><trkpt lat="42.0689896" lon="11.9657392"><ele>304.0</ele><time>2026-04-30T08:14:49.061Z</time></trkpt><trkpt lat="42.0691193" lon="11.9657686"><ele>304.0</ele><time>2026-04-30T08:14:50.954Z</time></trkpt><trkpt lat="42.0691858" lon="11.9657956"><ele>304.7142857142857</ele><time>2026-04-30T08:14:51.897Z</time></trkpt><trkpt lat="42.069257" lon="11.9658428"><ele>305.42857142857144</ele><time>2026-04-30T08:14:52.989Z</time></trkpt><trkpt lat="42.0693059" lon="11.9659011"><ele>306.14285714285717</ele><time>2026-04-30T08:14:54.047Z</time></trkpt><trkpt lat="42.0693456" lon="11.9659857"><ele>306.8571428571429</ele><time>2026-04-30T08:14:55.036Z</time></trkpt><trkpt lat="42.0693693" lon="11.9660786"><ele>307.57142857142856</ele><time>2026-04-30T08:14:56.07Z</time></trkpt><trkpt lat="42.0693817" lon="11.9661633"><ele>308.28571428571433</ele><time>2026-04-30T08:14:57.06Z</time></trkpt><trkpt lat="42.0693869" lon="11.9662767"><ele>309.0</ele><time>2026-04-30T08:14:58.049Z</time></trkpt><trkpt lat="42.0694004" lon="11.966375"><ele>309.0</ele><time>2026-04-30T08:14:59.047Z</time></trkpt><trkpt lat="42.069423" lon="11.9664695"><ele>309.0</ele><time>2026-04-30T08:15:00.169Z</time></trkpt><trkpt lat="42.0694887" lon="11.9666607"><ele>309.0</ele><time>2026-04-30T08:15:02.16Z</time></trkpt><trkpt lat="42.0695588" lon="11.966908"><ele>309.0</ele><time>2026-04-30T08:15:04.025Z</time></trkpt><trkpt lat="42.0695801" lon="11.9670001"><ele>309.2</ele><time>2026-04-30T08:15:04.927Z</time></trkpt><trkpt lat="42.069654" lon="11.9671357"><ele>309.4</ele><time>2026-04-30T08:15:06.972Z</time></trkpt><trkpt lat="42.0697042" lon="11.9673337"><ele>309.6</ele><time>2026-04-30T08:15:10.018Z</time></trkpt><trkpt lat="42.0696962" lon="11.9674562"><ele>309.8</ele><time>2026-04-30T08:15:10.999Z</time></trkpt><trkpt lat="42.0696781" lon="11.9675425"><ele>310.0</ele><time>2026-04-30T08:15:12.024Z</time></trkpt><trkpt lat="42.0696423" lon="11.9677319"><ele>310.4</ele><time>2026-04-30T08:15:14.029Z</time></trkpt><trkpt lat="42.0696579" lon="11.9678811"><ele>310.8</ele><time>2026-04-30T08:15:16.021Z</time></trkpt><trkpt lat="42.0696924" lon="11.9679525"><ele>311.2</ele><time>2026-04-30T08:15:17.153Z</time></trkpt><trkpt lat="42.0697356" lon="11.968027"><ele>311.6</ele><time>2026-04-30T08:15:18.137Z</time></trkpt><trkpt lat="42.0698331" lon="11.9682533"><ele>312.0</ele><time>2026-04-30T08:15:21.094Z</time></trkpt><trkpt lat="42.0698504" lon="11.9683898"><ele>312.0</ele><time>2026-04-30T08:15:22.163Z</time></trkpt><trkpt lat="42.069852" lon="11.9685808"><ele>312.0</ele><time>2026-04-30T08:15:24.212Z</time></trkpt><trkpt lat="42.0698637" lon="11.9687338"><ele>312.0</ele><time>2026-04-30T08:15:26.051Z</time></trkpt><trkpt lat="42.0699285" lon="11.9689816"><ele>311.8</ele><time>2026-04-30T08:15:29.141Z</time></trkpt><trkpt lat="42.0699512" lon="11.9691779"><ele>311.6</ele><time>2026-04-30T08:15:31.001Z</time></trkpt><trkpt lat="42.0700172" lon="11.9692926"><ele>311.40000000000003</ele><time>2026-04-30T08:15:33.027Z</time></trkpt><trkpt lat="42.0700816" lon="11.969333"><ele>311.2</ele><time>2026-04-30T08:15:34.061Z</time></trkpt><trkpt lat="42.070164" lon="11.9693459"><ele>311.0</ele><time>2026-04-30T08:15:36.084Z</time></trkpt><trkpt lat="42.0702106" lon="11.9694815"><ele>311.0</ele><time>2026-04-30T08:15:42.915Z</time></trkpt><trkpt lat="42.0702802" lon="11.9696151"><ele>311.0</ele><time>2026-04-30T08:15:45.036Z</time></trkpt><trkpt lat="42.0703706" lon="11.9696818"><ele>311.0</ele><time>2026-04-30T08:15:47.046Z</time></trkpt><trkpt lat="42.0705384" lon="11.9697357"><ele>311.0</ele><time>2026-04-30T08:15:48.948Z</time></trkpt><trkpt lat="42.07061" lon="11.9697629"><ele>311.0</ele><time>2026-04-30T08:15:50.071Z</time></trkpt><trkpt lat="42.0707588" lon="11.9698343"><ele>311.0</ele><time>2026-04-30T08:15:52.11Z</time></trkpt><trkpt lat="42.0708816" lon="11.9698843"><ele>311.0</ele><time>2026-04-30T08:15:53.343Z</time></trkpt><trkpt lat="42.0709678" lon="11.9699165"><ele>311.0</ele><time>2026-04-30T08:15:54.917Z</time></trkpt><trkpt lat="42.0710647" lon="11.9699694"><ele>311.2</ele><time>2026-04-30T08:15:56.07Z</time></trkpt><trkpt lat="42.071139" lon="11.9700191"><ele>311.40000000000003</ele><time>2026-04-30T08:15:57.078Z</time></trkpt><trkpt lat="42.0712183" lon="11.9700532"><ele>311.6</ele><time>2026-04-30T08:15:59.116Z</time></trkpt><trkpt lat="42.0712953" lon="11.9700439"><ele>311.8</ele><time>2026-04-30T08:16:01.128Z</time></trkpt><trkpt lat="42.0714923" lon="11.9700791"><ele>312.0</ele><time>2026-04-30T08:16:04.264Z</time></trkpt><trkpt lat="42.0715821" lon="11.9700982"><ele>317.2</ele><time>2026-04-30T08:16:06.054Z</time></trkpt><trkpt lat="42.0716786" lon="11.9701655"><ele>322.4</ele><time>2026-04-30T08:16:08.004Z</time></trkpt><trkpt lat="42.0717836" lon="11.9702185"><ele>327.59999999999997</ele><time>2026-04-30T08:16:10.033Z</time></trkpt><trkpt lat="42.071903" lon="11.9702165"><ele>332.79999999999995</ele><time>2026-04-30T08:16:12.044Z</time></trkpt><trkpt lat="42.0719787" lon="11.9702043"><ele>338.0</ele><time>2026-04-30T08:16:13.94Z</time></trkpt><trkpt lat="42.0720701" lon="11.9702337"><ele>338.0</ele><time>2026-04-30T08:16:16.106Z</time></trkpt><trkpt lat="42.0722604" lon="11.9703011"><ele>338.0</ele><time>2026-04-30T08:16:18.936Z</time></trkpt><trkpt lat="42.0723474" lon="11.9703408"><ele>338.0</ele><time>2026-04-30T08:16:20.936Z</time></trkpt><trkpt lat="42.0724046" lon="11.9703895"><ele>338.0</ele><time>2026-04-30T08:16:23.001Z</time></trkpt><trkpt lat="42.0724465" lon="11.9704915"><ele>338.0</ele><time>2026-04-30T08:16:25.125Z</time></trkpt><trkpt lat="42.0725108" lon="11.9706516"><ele>339.25</ele><time>2026-04-30T08:16:27.104Z</time></trkpt><trkpt lat="42.0725414" lon="11.9707929"><ele>340.5</ele><time>2026-04-30T08:16:29.013Z</time></trkpt><trkpt lat="42.0725902" lon="11.9709382"><ele>341.75</ele><time>2026-04-30T08:16:30.866Z</time></trkpt><trkpt lat="42.0726723" lon="11.9709359"><ele>343.0</ele><time>2026-04-30T08:16:33.059Z</time></trkpt><trkpt lat="42.0728161" lon="11.9708694"><ele>343.0</ele><time>2026-04-30T08:16:35.846Z</time></trkpt><trkpt lat="42.0728949" lon="11.9708902"><ele>343.0</ele><time>2026-04-30T08:16:37.827Z</time></trkpt><trkpt lat="42.0729723" lon="11.9709372"><ele>343.0</ele><time>2026-04-30T08:16:39.842Z</time></trkpt><trkpt lat="42.0730451" lon="11.970992"><ele>343.0</ele><time>2026-04-30T08:16:41.849Z</time></trkpt><trkpt lat="42.0731234" lon="11.9710362"><ele>343.0</ele><time>2026-04-30T08:16:44.901Z</time></trkpt><trkpt lat="42.0732006" lon="11.9709985"><ele>343.0</ele><time>2026-04-30T08:16:48.894Z</time></trkpt><trkpt lat="42.073322" lon="11.9709614"><ele>346.0</ele><time>2026-04-30T08:16:51.102Z</time></trkpt><trkpt lat="42.0734186" lon="11.9709841"><ele>349.0</ele><time>2026-04-30T08:16:54.018Z</time></trkpt><trkpt lat="42.073498" lon="11.9710865"><ele>352.0</ele><time>2026-04-30T08:16:56.097Z</time></trkpt><trkpt lat="42.0735364" lon="11.9711539"><ele>355.0</ele><time>2026-04-30T08:16:57.129Z</time></trkpt><trkpt lat="42.0736194" lon="11.9712648"><ele>358.0</ele><time>2026-04-30T08:16:59.076Z</time></trkpt><trkpt lat="42.0736727" lon="11.9713354"><ele>358.0</ele><time>2026-04-30T08:17:00.283Z</time></trkpt><trkpt lat="42.0737401" lon="11.9714105"><ele>358.0</ele><time>2026-04-30T08:17:02.115Z</time></trkpt><trkpt lat="42.0737846" lon="11.9714757"><ele>358.0</ele><time>2026-04-30T08:17:04.125Z</time></trkpt><trkpt lat="42.0738769" lon="11.9715085"><ele>358.0</ele><time>2026-04-30T08:17:08.282Z</time></trkpt><trkpt lat="42.0740643" lon="11.9715421"><ele>358.0</ele><time>2026-04-30T08:17:11.099Z</time></trkpt><trkpt lat="42.0741449" lon="11.9715788"><ele>358.79999999999995</ele><time>2026-04-30T08:17:12.18Z</time></trkpt><trkpt lat="42.0742334" lon="11.9716285"><ele>359.6</ele><time>2026-04-30T08:17:13.82Z</time></trkpt><trkpt lat="42.0742962" lon="11.9716638"><ele>360.4</ele><time>2026-04-30T08:17:15.083Z</time></trkpt><trkpt lat="42.0743553" lon="11.9717041"><ele>361.20000000000005</ele><time>2026-04-30T08:17:16.147Z</time></trkpt><trkpt lat="42.0744519" lon="11.9717715"><ele>362.0</ele><time>2026-04-30T08:17:18.109Z</time></trkpt><trkpt lat="42.0745864" lon="11.9718597"><ele>360.0</ele><time>2026-04-30T08:17:20.092Z</time></trkpt><trkpt lat="42.0746443" lon="11.9718993"><ele>358.0</ele><time>2026-04-30T08:17:21.063Z</time></trkpt><trkpt lat="42.0747431" lon="11.9719808"><ele>356.0</ele><time>2026-04-30T08:17:23.164Z</time></trkpt><trkpt lat="42.0748144" lon="11.9720642"><ele>354.0</ele><time>2026-04-30T08:17:25.313Z</time></trkpt><trkpt lat="42.0749166" lon="11.972179"><ele>352.0</ele><time>2026-04-30T08:17:27.056Z</time></trkpt><trkpt lat="42.0749841" lon="11.9722479"><ele>354.0</ele><time>2026-04-30T08:17:28.122Z</time></trkpt><trkpt lat="42.0750876" lon="11.972318"><ele>356.0</ele><time>2026-04-30T08:17:30.052Z</time></trkpt><trkpt lat="42.0751747" lon="11.972403"><ele>358.0</ele><time>2026-04-30T08:17:32.164Z</time></trkpt><trkpt lat="42.0752522" lon="11.9724533"><ele>360.0</ele><time>2026-04-30T08:17:34.172Z</time></trkpt><trkpt lat="42.0753832" lon="11.9725328"><ele>360.0</ele><time>2026-04-30T08:17:36.988Z</time></trkpt><trkpt lat="42.075441" lon="11.9725723"><ele>360.0</ele><time>2026-04-30T08:17:39.051Z</time></trkpt><trkpt lat="42.0755008" lon="11.972648"><ele>360.0</ele><time>2026-04-30T08:17:40.999Z</time></trkpt><trkpt lat="42.0755575" lon="11.9727043"><ele>360.0</ele><time>2026-04-30T08:17:42.033Z</time></trkpt><trkpt lat="42.0756342" lon="11.9727673"><ele>360.0</ele><time>2026-04-30T08:17:43.024Z</time></trkpt><trkpt lat="42.0757328" lon="11.9727942"><ele>360.0</ele><time>2026-04-30T08:17:44.944Z</time></trkpt><trkpt lat="42.0758277" lon="11.9727744"><ele>358.2</ele><time>2026-04-30T08:17:47.162Z</time></trkpt><trkpt lat="42.0757757" lon="11.9728744"><ele>356.4</ele><time>2026-04-30T08:17:51.883Z</time></trkpt><trkpt lat="42.0758197" lon="11.9730658"><ele>354.6</ele><time>2026-04-30T08:17:55.173Z</time></trkpt><trkpt lat="42.0758865" lon="11.973214"><ele>352.8</ele><time>2026-04-30T08:17:56.941Z</time></trkpt><trkpt lat="42.0759302" lon="11.9732926"><ele>351.0</ele><time>2026-04-30T08:17:58.073Z</time></trkpt><trkpt lat="42.0759792" lon="11.9733636"><ele>351.0</ele><time>2026-04-30T08:17:59.837Z</time></trkpt><trkpt lat="42.0760775" lon="11.9735018"><ele>351.0</ele><time>2026-04-30T08:18:02.931Z</time></trkpt><trkpt lat="42.076101" lon="11.9735969"><ele>351.0</ele><time>2026-04-30T08:18:05.041Z</time></trkpt><trkpt lat="42.0761355" lon="11.9737157"><ele>351.0</ele><time>2026-04-30T08:18:06.989Z</time></trkpt><trkpt lat="42.0761484" lon="11.9738407"><ele>351.0</ele><time>2026-04-30T08:18:08.998Z</time></trkpt><trkpt lat="42.0761831" lon="11.9739428"><ele>351.0</ele><time>2026-04-30T08:18:11.044Z</time></trkpt><trkpt lat="42.0762251" lon="11.9740468"><ele>351.0</ele><time>2026-04-30T08:18:13.054Z</time></trkpt><trkpt lat="42.0762836" lon="11.9741695"><ele>351.0</ele><time>2026-04-30T08:18:15.078Z</time></trkpt><trkpt lat="42.0763051" lon="11.9742862"><ele>351.0</ele><time>2026-04-30T08:18:17.099Z</time></trkpt><trkpt lat="42.0763401" lon="11.9744197"><ele>351.0</ele><time>2026-04-30T08:18:20.015Z</time></trkpt><trkpt lat="42.0763661" lon="11.9745505"><ele>346.6</ele><time>2026-04-30T08:18:22.968Z</time></trkpt><trkpt lat="42.0763198" lon="11.9746879"><ele>342.20000000000005</ele><time>2026-04-30T08:18:26.896Z</time></trkpt><trkpt lat="42.0762688" lon="11.9748204"><ele>337.79999999999995</ele><time>2026-04-30T08:18:28.027Z</time></trkpt><trkpt lat="42.0762169" lon="11.9749416"><ele>333.4</ele><time>2026-04-30T08:18:30.044Z</time></trkpt><trkpt lat="42.0761425" lon="11.9749548"><ele>329.0</ele><time>2026-04-30T08:18:31.995Z</time></trkpt><trkpt lat="42.076028" lon="11.974948"><ele>329.0</ele><time>2026-04-30T08:18:34.1Z</time></trkpt><trkpt lat="42.0759268" lon="11.974974"><ele>329.0</ele><time>2026-04-30T08:18:36.018Z</time></trkpt><trkpt lat="42.0757719" lon="11.9749462"><ele>329.0</ele><time>2026-04-30T08:18:39.101Z</time></trkpt><trkpt lat="42.0756897" lon="11.9749895"><ele>329.0</ele><time>2026-04-30T08:18:41.007Z</time></trkpt><trkpt lat="42.0755687" lon="11.9749722"><ele>324.6666666666667</ele><time>2026-04-30T08:18:44.039Z</time></trkpt><trkpt lat="42.0755205" lon="11.9750566"><ele>320.33333333333337</ele><time>2026-04-30T08:18:47.033Z</time></trkpt><trkpt lat="42.0755013" lon="11.9751651"><ele>316.0</ele><time>2026-04-30T08:18:48.99Z</time></trkpt><trkpt lat="42.0755152" lon="11.9753246"><ele>311.6666666666667</ele><time>2026-04-30T08:18:53.158Z</time></trkpt><trkpt lat="42.0755322" lon="11.9754068"><ele>307.3333333333333</ele><time>2026-04-30T08:18:55.052Z</time></trkpt><trkpt lat="42.0755894" lon="11.9754585"><ele>303.0</ele><time>2026-04-30T08:18:56.957Z</time></trkpt><trkpt lat="42.0755659" lon="11.9755428"><ele>303.0</ele><time>2026-04-30T08:18:59.053Z</time></trkpt><trkpt lat="42.0755355" lon="11.9756735"><ele>303.0</ele><time>2026-04-30T08:19:03.071Z</time></trkpt><trkpt lat="42.0755752" lon="11.9757931"><ele>303.0</ele><time>2026-04-30T08:19:04.905Z</time></trkpt><trkpt lat="42.0756121" lon="11.97598"><ele>303.0</ele><time>2026-04-30T08:19:08.035Z</time></trkpt><trkpt lat="42.0756101" lon="11.9761119"><ele>303.0</ele><time>2026-04-30T08:19:09.977Z</time></trkpt><trkpt lat="42.0755853" lon="11.9762653"><ele>302.4</ele><time>2026-04-30T08:19:12.356Z</time></trkpt><trkpt lat="42.0756106" lon="11.9763601"><ele>301.8</ele><time>2026-04-30T08:19:13.921Z</time></trkpt><trkpt lat="42.0756546" lon="11.976436"><ele>301.2</ele><time>2026-04-30T08:19:14.863Z</time></trkpt><trkpt lat="42.0757407" lon="11.9765505"><ele>300.6</ele><time>2026-04-30T08:19:16.221Z</time></trkpt><trkpt lat="42.0758921" lon="11.9766758"><ele>300.0</ele><time>2026-04-30T08:19:18.021Z</time></trkpt><trkpt lat="42.0760212" lon="11.9767711"><ele>304.5</ele><time>2026-04-30T08:19:19.864Z</time></trkpt><trkpt lat="42.0760982" lon="11.9768492"><ele>309.0</ele><time>2026-04-30T08:19:20.978Z</time></trkpt><trkpt lat="42.07616" lon="11.9769303"><ele>313.5</ele><time>2026-04-30T08:19:22.064Z</time></trkpt><trkpt lat="42.0762887" lon="11.9771068"><ele>318.0</ele><time>2026-04-30T08:19:23.886Z</time></trkpt><trkpt lat="42.0763511" lon="11.9771833"><ele>318.0</ele><time>2026-04-30T08:19:24.897Z</time></trkpt><trkpt lat="42.0764255" lon="11.9772568"><ele>318.0</ele><time>2026-04-30T08:19:25.997Z</time></trkpt><trkpt lat="42.0765858" lon="11.9773884"><ele>318.0</ele><time>2026-04-30T08:19:27.984Z</time></trkpt><trkpt lat="42.0766599" lon="11.9774256"><ele>318.0</ele><time>2026-04-30T08:19:28.95Z</time></trkpt><trkpt lat="42.0767622" lon="11.9774502"><ele>318.6</ele><time>2026-04-30T08:19:30.085Z</time></trkpt><trkpt lat="42.0768667" lon="11.9774812"><ele>319.20000000000005</ele><time>2026-04-30T08:19:31.059Z</time></trkpt><trkpt lat="42.076958" lon="11.9775215"><ele>319.8</ele><time>2026-04-30T08:19:32.099Z</time></trkpt><trkpt lat="42.0770271" lon="11.9775546"><ele>320.40000000000003</ele><time>2026-04-30T08:19:33.059Z</time></trkpt><trkpt lat="42.0771204" lon="11.9776691"><ele>321.0</ele><time>2026-04-30T08:19:35.083Z</time></trkpt><trkpt lat="42.0771495" lon="11.9777594"><ele>321.0</ele><time>2026-04-30T08:19:36.099Z</time></trkpt><trkpt lat="42.0771722" lon="11.9778834"><ele>321.0</ele><time>2026-04-30T08:19:37.05Z</time></trkpt><trkpt lat="42.0771731" lon="11.9780222"><ele>321.0</ele><time>2026-04-30T08:19:38.026Z</time></trkpt><trkpt lat="42.0771787" lon="11.9781386"><ele>321.0</ele><time>2026-04-30T08:19:39.069Z</time></trkpt><trkpt lat="42.0771884" lon="11.978251"><ele>321.0</ele><time>2026-04-30T08:19:40.014Z</time></trkpt><trkpt lat="42.0772009" lon="11.9783371"><ele>321.0</ele><time>2026-04-30T08:19:40.997Z</time></trkpt><trkpt lat="42.0772178" lon="11.978443"><ele>321.5</ele><time>2026-04-30T08:19:42.148Z</time></trkpt><trkpt lat="42.0771941" lon="11.9786694"><ele>322.0</ele><time>2026-04-30T08:19:44.066Z</time></trkpt><trkpt lat="42.0771841" lon="11.9787804"><ele>322.5</ele><time>2026-04-30T08:19:44.971Z</time></trkpt><trkpt lat="42.077162" lon="11.9788734"><ele>323.0</ele><time>2026-04-30T08:19:46.109Z</time></trkpt><trkpt lat="42.0771779" lon="11.9790774"><ele>322.5</ele><time>2026-04-30T08:19:48.026Z</time></trkpt><trkpt lat="42.0771717" lon="11.9792515"><ele>322.0</ele><time>2026-04-30T08:19:48.909Z</time></trkpt><trkpt lat="42.0771655" lon="11.9794271"><ele>321.5</ele><time>2026-04-30T08:19:49.941Z</time></trkpt><trkpt lat="42.0771397" lon="11.9795143"><ele>321.0</ele><time>2026-04-30T08:19:50.883Z</time></trkpt><trkpt lat="42.0771013" lon="11.9796708"><ele>321.0</ele><time>2026-04-30T08:19:52.857Z</time></trkpt><trkpt lat="42.0770623" lon="11.9797735"><ele>321.0</ele><time>2026-04-30T08:19:53.963Z</time></trkpt><trkpt lat="42.0769985" lon="11.979924"><ele>321.0</ele><time>2026-04-30T08:19:55.045Z</time></trkpt><trkpt lat="42.0769232" lon="11.980115"><ele>321.0</ele><time>2026-04-30T08:19:56.916Z</time></trkpt><trkpt lat="42.0768867" lon="11.9802256"><ele>320.8</ele><time>2026-04-30T08:19:58.106Z</time></trkpt><trkpt lat="42.0768586" lon="11.9803793"><ele>320.6</ele><time>2026-04-30T08:19:59.977Z</time></trkpt><trkpt lat="42.0768911" lon="11.9805072"><ele>320.4</ele><time>2026-04-30T08:20:01.913Z</time></trkpt><trkpt lat="42.07692" lon="11.9806133"><ele>320.2</ele><time>2026-04-30T08:20:02.979Z</time></trkpt><trkpt lat="42.0769368" lon="11.980719"><ele>320.0</ele><time>2026-04-30T08:20:03.91Z</time></trkpt><trkpt lat="42.0769531" lon="11.980838"><ele>320.6</ele><time>2026-04-30T08:20:05.071Z</time></trkpt><trkpt lat="42.0769875" lon="11.9809639"><ele>321.2</ele><time>2026-04-30T08:20:06.017Z</time></trkpt><trkpt lat="42.077005" lon="11.9810539"><ele>321.79999999999995</ele><time>2026-04-30T08:20:06.966Z</time></trkpt><trkpt lat="42.0770198" lon="11.9812613"><ele>322.4</ele><time>2026-04-30T08:20:08.986Z</time></trkpt><trkpt lat="42.0770241" lon="11.9813591"><ele>323.0</ele><time>2026-04-30T08:20:10.005Z</time></trkpt><trkpt lat="42.0770137" lon="11.981478"><ele>323.0</ele><time>2026-04-30T08:20:11.008Z</time></trkpt><trkpt lat="42.0770046" lon="11.9815927"><ele>323.0</ele><time>2026-04-30T08:20:11.992Z</time></trkpt><trkpt lat="42.0770127" lon="11.9818193"><ele>323.0</ele><time>2026-04-30T08:20:14.091Z</time></trkpt><trkpt lat="42.0770447" lon="11.982029"><ele>323.0</ele><time>2026-04-30T08:20:15.912Z</time></trkpt><trkpt lat="42.0770949" lon="11.9821532"><ele>323.79999999999995</ele><time>2026-04-30T08:20:16.919Z</time></trkpt><trkpt lat="42.0771373" lon="11.9823011"><ele>324.6</ele><time>2026-04-30T08:20:18.19Z</time></trkpt><trkpt lat="42.0771516" lon="11.9824678"><ele>325.4</ele><time>2026-04-30T08:20:19.987Z</time></trkpt><trkpt lat="42.0771587" lon="11.9825612"><ele>326.20000000000005</ele><time>2026-04-30T08:20:20.976Z</time></trkpt><trkpt lat="42.0771662" lon="11.9826777"><ele>327.0</ele><time>2026-04-30T08:20:22.072Z</time></trkpt><trkpt lat="42.0771566" lon="11.9827905"><ele>327.8</ele><time>2026-04-30T08:20:23.049Z</time></trkpt><trkpt lat="42.077148" lon="11.9829023"><ele>328.6</ele><time>2026-04-30T08:20:24.029Z</time></trkpt><trkpt lat="42.0771332" lon="11.9831383"><ele>329.40000000000003</ele><time>2026-04-30T08:20:25.966Z</time></trkpt><trkpt lat="42.0771238" lon="11.9832501"><ele>330.20000000000005</ele><time>2026-04-30T08:20:26.959Z</time></trkpt><trkpt lat="42.0771152" lon="11.9833363"><ele>331.0</ele><time>2026-04-30T08:20:27.906Z</time></trkpt><trkpt lat="42.0771068" lon="11.9834381"><ele>331.8</ele><time>2026-04-30T08:20:28.866Z</time></trkpt><trkpt lat="42.0770941" lon="11.9835641"><ele>332.6</ele><time>2026-04-30T08:20:29.936Z</time></trkpt><trkpt lat="42.0770792" lon="11.9837649"><ele>333.4</ele><time>2026-04-30T08:20:31.893Z</time></trkpt><trkpt lat="42.0770801" lon="11.983853"><ele>334.2</ele><time>2026-04-30T08:20:32.886Z</time></trkpt><trkpt lat="42.0770694" lon="11.9840235"><ele>335.0</ele><time>2026-04-30T08:20:34.875Z</time></trkpt><trkpt lat="42.0770976" lon="11.9841922"><ele>335.33333333333337</ele><time>2026-04-30T08:20:36.932Z</time></trkpt><trkpt lat="42.0771163" lon="11.9842768"><ele>335.6666666666667</ele><time>2026-04-30T08:20:37.871Z</time></trkpt><trkpt lat="42.0771278" lon="11.9843667"><ele>336.0</ele><time>2026-04-30T08:20:38.872Z</time></trkpt><trkpt lat="42.0771385" lon="11.9844941"><ele>336.3333333333333</ele><time>2026-04-30T08:20:39.932Z</time></trkpt><trkpt lat="42.0771333" lon="11.984591"><ele>336.66666666666663</ele><time>2026-04-30T08:20:40.9Z</time></trkpt><trkpt lat="42.077106" lon="11.9847205"><ele>337.0</ele><time>2026-04-30T08:20:42.989Z</time></trkpt><trkpt lat="42.0770508" lon="11.9849058"><ele>337.5</ele><time>2026-04-30T08:20:44.952Z</time></trkpt><trkpt lat="42.0770465" lon="11.9850644"><ele>338.0</ele><time>2026-04-30T08:20:46.937Z</time></trkpt><trkpt lat="42.0770469" lon="11.985178"><ele>338.5</ele><time>2026-04-30T08:20:48.017Z</time></trkpt><trkpt lat="42.0770552" lon="11.9853798"><ele>339.0</ele><time>2026-04-30T08:20:50.075Z</time></trkpt><trkpt lat="42.0770579" lon="11.9855958"><ele>339.0</ele><time>2026-04-30T08:20:52.007Z</time></trkpt><trkpt lat="42.077057" lon="11.9857174"><ele>339.0</ele><time>2026-04-30T08:20:52.943Z</time></trkpt><trkpt lat="42.0770559" lon="11.9858398"><ele>339.0</ele><time>2026-04-30T08:20:54.011Z</time></trkpt><trkpt lat="42.0770571" lon="11.9859441"><ele>339.0</ele><time>2026-04-30T08:20:55.084Z</time></trkpt><trkpt lat="42.0770548" lon="11.9861375"><ele>339.0</ele><time>2026-04-30T08:20:57.004Z</time></trkpt><trkpt lat="42.0770496" lon="11.9862366"><ele>339.0</ele><time>2026-04-30T08:20:57.977Z</time></trkpt><trkpt lat="42.077036" lon="11.9863486"><ele>339.0</ele><time>2026-04-30T08:20:58.921Z</time></trkpt><trkpt lat="42.0770158" lon="11.9864524"><ele>339.0</ele><time>2026-04-30T08:21:00.001Z</time></trkpt><trkpt lat="42.0769901" lon="11.9865586"><ele>339.0</ele><time>2026-04-30T08:21:01.069Z</time></trkpt><trkpt lat="42.0769579" lon="11.9866474"><ele>339.0</ele><time>2026-04-30T08:21:01.985Z</time></trkpt><trkpt lat="42.0769243" lon="11.9867409"><ele>339.0</ele><time>2026-04-30T08:21:03.055Z</time></trkpt><trkpt lat="42.0768592" lon="11.9868905"><ele>339.2</ele><time>2026-04-30T08:21:04.973Z</time></trkpt><trkpt lat="42.0767932" lon="11.98701"><ele>339.4</ele><time>2026-04-30T08:21:06.961Z</time></trkpt><trkpt lat="42.0767517" lon="11.9871142"><ele>339.6</ele><time>2026-04-30T08:21:08.994Z</time></trkpt><trkpt lat="42.0767771" lon="11.9872596"><ele>339.8</ele><time>2026-04-30T08:21:10.897Z</time></trkpt><trkpt lat="42.0768339" lon="11.9873603"><ele>340.0</ele><time>2026-04-30T08:21:11.967Z</time></trkpt><trkpt lat="42.0768694" lon="11.9874664"><ele>340.2</ele><time>2026-04-30T08:21:13.032Z</time></trkpt><trkpt lat="42.0769069" lon="11.98764"><ele>340.4</ele><time>2026-04-30T08:21:14.868Z</time></trkpt><trkpt lat="42.076923" lon="11.9877599"><ele>340.6</ele><time>2026-04-30T08:21:15.972Z</time></trkpt><trkpt lat="42.0769348" lon="11.9878766"><ele>340.8</ele><time>2026-04-30T08:21:16.942Z</time></trkpt><trkpt lat="42.0769387" lon="11.9880023"><ele>341.0</ele><time>2026-04-30T08:21:18.024Z</time></trkpt><trkpt lat="42.0769271" lon="11.9881321"><ele>341.0</ele><time>2026-04-30T08:21:19.049Z</time></trkpt><trkpt lat="42.0769075" lon="11.9882478"><ele>341.0</ele><time>2026-04-30T08:21:20.101Z</time></trkpt><trkpt lat="42.0768965" lon="11.9883448"><ele>341.0</ele><time>2026-04-30T08:21:21.004Z</time></trkpt><trkpt lat="42.0768665" lon="11.9884649"><ele>341.0</ele><time>2026-04-30T08:21:22.083Z</time></trkpt><trkpt lat="42.0768305" lon="11.9885606"><ele>341.0</ele><time>2026-04-30T08:21:23.037Z</time></trkpt><trkpt lat="42.0767976" lon="11.9886487"><ele>341.0</ele><time>2026-04-30T08:21:24.008Z</time></trkpt><trkpt lat="42.0767634" lon="11.9887456"><ele>340.0</ele><time>2026-04-30T08:21:25.025Z</time></trkpt><trkpt lat="42.0767339" lon="11.9888533"><ele>339.0</ele><time>2026-04-30T08:21:26.064Z</time></trkpt><trkpt lat="42.0767132" lon="11.988963"><ele>338.0</ele><time>2026-04-30T08:21:27.023Z</time></trkpt><trkpt lat="42.0767165" lon="11.9890685"><ele>337.0</ele><time>2026-04-30T08:21:28.034Z</time></trkpt><trkpt lat="42.0767355" lon="11.9891923"><ele>336.0</ele><time>2026-04-30T08:21:29.056Z</time></trkpt><trkpt lat="42.0767732" lon="11.9893501"><ele>335.75</ele><time>2026-04-30T08:21:30.077Z</time></trkpt><trkpt lat="42.0768115" lon="11.9895133"><ele>335.5</ele><time>2026-04-30T08:21:31.067Z</time></trkpt><trkpt lat="42.0768363" lon="11.989655"><ele>335.25</ele><time>2026-04-30T08:21:31.972Z</time></trkpt><trkpt lat="42.0768586" lon="11.9898196"><ele>335.0</ele><time>2026-04-30T08:21:33.16Z</time></trkpt><trkpt lat="42.0769064" lon="11.9900556"><ele>335.5</ele><time>2026-04-30T08:21:34.956Z</time></trkpt><trkpt lat="42.0770026" lon="11.9903107"><ele>336.0</ele><time>2026-04-30T08:21:36.936Z</time></trkpt><trkpt lat="42.0770678" lon="11.9904492"><ele>336.5</ele><time>2026-04-30T08:21:37.907Z</time></trkpt><trkpt lat="42.0771186" lon="11.9905587"><ele>337.0</ele><time>2026-04-30T08:21:38.84Z</time></trkpt><trkpt lat="42.0771766" lon="11.9906935"><ele>337.0</ele><time>2026-04-30T08:21:40.066Z</time></trkpt><trkpt lat="42.077221" lon="11.9908716"><ele>337.0</ele><time>2026-04-30T08:21:41.936Z</time></trkpt><trkpt lat="42.0772369" lon="11.990997"><ele>337.0</ele><time>2026-04-30T08:21:43.06Z</time></trkpt><trkpt lat="42.0772599" lon="11.9911667"><ele>337.0</ele><time>2026-04-30T08:21:44.919Z</time></trkpt><trkpt lat="42.0772639" lon="11.9912537"><ele>337.0</ele><time>2026-04-30T08:21:46.07Z</time></trkpt><trkpt lat="42.077302" lon="11.9913707"><ele>337.0</ele><time>2026-04-30T08:21:48.031Z</time></trkpt><trkpt lat="42.0773711" lon="11.9915032"><ele>337.0</ele><time>2026-04-30T08:21:49.902Z</time></trkpt><trkpt lat="42.0774218" lon="11.991625"><ele>337.0</ele><time>2026-04-30T08:21:52.003Z</time></trkpt><trkpt lat="42.0774282" lon="11.9917552"><ele>337.0</ele><time>2026-04-30T08:21:53.828Z</time></trkpt><trkpt lat="42.0774071" lon="11.991851"><ele>337.0</ele><time>2026-04-30T08:21:54.912Z</time></trkpt><trkpt lat="42.0773754" lon="11.9919538"><ele>337.3333333333333</ele><time>2026-04-30T08:21:55.993Z</time></trkpt><trkpt lat="42.0773261" lon="11.9920778"><ele>337.66666666666663</ele><time>2026-04-30T08:21:57.852Z</time></trkpt><trkpt lat="42.0773496" lon="11.9921628"><ele>338.0</ele><time>2026-04-30T08:22:03.9Z</time></trkpt><trkpt lat="42.0773198" lon="11.9922392"><ele>338.3333333333333</ele><time>2026-04-30T08:22:06.532Z</time></trkpt><trkpt lat="42.0772455" lon="11.9923441"><ele>338.6666666666667</ele><time>2026-04-30T08:22:08.532Z</time></trkpt><trkpt lat="42.0772165" lon="11.9924283"><ele>339.0</ele><time>2026-04-30T08:22:09.532Z</time></trkpt><trkpt lat="42.0771829" lon="11.992508"><ele>340.3333333333333</ele><time>2026-04-30T08:22:10.531Z</time></trkpt><trkpt lat="42.0771366" lon="11.992667"><ele>341.6666666666667</ele><time>2026-04-30T08:22:12.532Z</time></trkpt><trkpt lat="42.0771091" lon="11.99276"><ele>343.0</ele><time>2026-04-30T08:22:13.532Z</time></trkpt><trkpt lat="42.0770869" lon="11.9928569"><ele>344.33333333333337</ele><time>2026-04-30T08:22:14.532Z</time></trkpt><trkpt lat="42.0770795" lon="11.9929599"><ele>345.6666666666667</ele><time>2026-04-30T08:22:15.532Z</time></trkpt><trkpt lat="42.07708" lon="11.9930544"><ele>347.0</ele><time>2026-04-30T08:22:16.532Z</time></trkpt><trkpt lat="42.0770727" lon="11.9931473"><ele>347.0</ele><time>2026-04-30T08:22:17.532Z</time></trkpt><trkpt lat="42.0770525" lon="11.9932408"><ele>347.0</ele><time>2026-04-30T08:22:18.532Z</time></trkpt><trkpt lat="42.0770568" lon="11.993415"><ele>347.0</ele><time>2026-04-30T08:22:20.532Z</time></trkpt><trkpt lat="42.0770183" lon="11.9935698"><ele>347.0</ele><time>2026-04-30T08:22:22.532Z</time></trkpt><trkpt lat="42.0769698" lon="11.9937307"><ele>348.0</ele><time>2026-04-30T08:22:24.532Z</time></trkpt><trkpt lat="42.0769618" lon="11.9938161"><ele>349.0</ele><time>2026-04-30T08:22:25.532Z</time></trkpt><trkpt lat="42.0769549" lon="11.9939118"><ele>350.0</ele><time>2026-04-30T08:22:26.532Z</time></trkpt><trkpt lat="42.0769523" lon="11.9940605"><ele>351.0</ele><time>2026-04-30T08:22:28.531Z</time></trkpt><trkpt lat="42.0769966" lon="11.9942243"><ele>352.0</ele><time>2026-04-30T08:22:30.532Z</time></trkpt><trkpt lat="42.0770101" lon="11.9943279"><ele>353.8</ele><time>2026-04-30T08:22:31.532Z</time></trkpt><trkpt lat="42.0769878" lon="11.9944842"><ele>355.6</ele><time>2026-04-30T08:22:33.532Z</time></trkpt><trkpt lat="42.0769067" lon="11.9945817"><ele>357.40000000000003</ele><time>2026-04-30T08:22:35.532Z</time></trkpt><trkpt lat="42.0768181" lon="11.994666"><ele>359.20000000000005</ele><time>2026-04-30T08:22:37.532Z</time></trkpt><trkpt lat="42.0767909" lon="11.9947591"><ele>361.0</ele><time>2026-04-30T08:22:39.532Z</time></trkpt><trkpt lat="42.0767969" lon="11.9948437"><ele>361.0</ele><time>2026-04-30T08:22:40.532Z</time></trkpt><trkpt lat="42.0767627" lon="11.9949705"><ele>361.0</ele><time>2026-04-30T08:22:42.532Z</time></trkpt><trkpt lat="42.076678" lon="11.9951209"><ele>361.0</ele><time>2026-04-30T08:22:44.532Z</time></trkpt><trkpt lat="42.0766197" lon="11.9952175"><ele>361.0</ele><time>2026-04-30T08:22:45.532Z</time></trkpt><trkpt lat="42.0765674" lon="11.9953039"><ele>361.0</ele><time>2026-04-30T08:22:46.532Z</time></trkpt><trkpt lat="42.0765361" lon="11.99544"><ele>363.20000000000005</ele><time>2026-04-30T08:22:48.532Z</time></trkpt><trkpt lat="42.0765519" lon="11.9955572"><ele>365.40000000000003</ele><time>2026-04-30T08:22:50.532Z</time></trkpt><trkpt lat="42.0766314" lon="11.9956161"><ele>367.6</ele><time>2026-04-30T08:22:52.532Z</time></trkpt><trkpt lat="42.076726" lon="11.9956952"><ele>369.8</ele><time>2026-04-30T08:22:54.532Z</time></trkpt><trkpt lat="42.0767647" lon="11.9957966"><ele>372.0</ele><time>2026-04-30T08:22:56.532Z</time></trkpt><trkpt lat="42.0767007" lon="11.9959125"><ele>373.6666666666667</ele><time>2026-04-30T08:22:59.532Z</time></trkpt><trkpt lat="42.0766492" lon="11.996029"><ele>375.3333333333333</ele><time>2026-04-30T08:23:01.532Z</time></trkpt><trkpt lat="42.0766037" lon="11.9961567"><ele>377.0</ele><time>2026-04-30T08:23:03.531Z</time></trkpt><trkpt lat="42.0765759" lon="11.9962444"><ele>378.66666666666663</ele><time>2026-04-30T08:23:04.532Z</time></trkpt><trkpt lat="42.076559" lon="11.9963432"><ele>380.3333333333333</ele><time>2026-04-30T08:23:05.532Z</time></trkpt><trkpt lat="42.0765469" lon="11.9964297"><ele>382.0</ele><time>2026-04-30T08:23:06.532Z</time></trkpt><trkpt lat="42.0765293" lon="11.9965124"><ele>384.5</ele><time>2026-04-30T08:23:07.532Z</time></trkpt><trkpt lat="42.0765071" lon="11.9966011"><ele>387.0</ele><time>2026-04-30T08:23:08.532Z</time></trkpt><trkpt lat="42.0764975" lon="11.9966915"><ele>389.5</ele><time>2026-04-30T08:23:09.532Z</time></trkpt><trkpt lat="42.0765138" lon="11.9968347"><ele>392.0</ele><time>2026-04-30T08:23:11.532Z</time></trkpt><trkpt lat="42.0765118" lon="11.9969467"><ele>394.50000000000006</ele><time>2026-04-30T08:23:13.532Z</time></trkpt><trkpt lat="42.0764823" lon="11.9970395"><ele>397.0</ele><time>2026-04-30T08:23:15.532Z</time></trkpt><trkpt lat="42.0764894" lon="11.9971532"><ele>398.33333333333337</ele><time>2026-04-30T08:23:17.532Z</time></trkpt><trkpt lat="42.0764935" lon="11.9972412"><ele>399.6666666666667</ele><time>2026-04-30T08:23:18.532Z</time></trkpt><trkpt lat="42.0764892" lon="11.9973307"><ele>401.0</ele><time>2026-04-30T08:23:19.532Z</time></trkpt><trkpt lat="42.0764339" lon="11.9974503"><ele>402.33333333333337</ele><time>2026-04-30T08:23:21.532Z</time></trkpt><trkpt lat="42.0764597" lon="11.997541"><ele>403.6666666666667</ele><time>2026-04-30T08:23:23.531Z</time></trkpt><trkpt lat="42.0764736" lon="11.9976495"><ele>405.0</ele><time>2026-04-30T08:23:25.532Z</time></trkpt><trkpt lat="42.0765326" lon="11.9978061"><ele>405.0</ele><time>2026-04-30T08:23:27.532Z</time></trkpt><trkpt lat="42.0766394" lon="11.9978596"><ele>405.0</ele><time>2026-04-30T08:23:28.532Z</time></trkpt><trkpt lat="42.0767248" lon="11.9978821"><ele>405.0</ele><time>2026-04-30T08:23:29.532Z</time></trkpt><trkpt lat="42.0767727" lon="11.9979583"><ele>405.0</ele><time>2026-04-30T08:23:31.532Z</time></trkpt><trkpt lat="42.0767981" lon="11.9980829"><ele>405.0</ele><time>2026-04-30T08:23:32.532Z</time></trkpt><trkpt lat="42.0768104" lon="11.9982051"><ele>405.4</ele><time>2026-04-30T08:23:33.532Z</time></trkpt><trkpt lat="42.0767968" lon="11.9983485"><ele>405.8</ele><time>2026-04-30T08:23:35.532Z</time></trkpt><trkpt lat="42.0767323" lon="11.9984408"><ele>406.20000000000005</ele><time>2026-04-30T08:23:37.532Z</time></trkpt><trkpt lat="42.0766351" lon="11.9984737"><ele>406.6</ele><time>2026-04-30T08:23:39.532Z</time></trkpt><trkpt lat="42.0765102" lon="11.9984034"><ele>407.0</ele><time>2026-04-30T08:23:41.532Z</time></trkpt><trkpt lat="42.076428" lon="11.9983737"><ele>407.0</ele><time>2026-04-30T08:23:42.532Z</time></trkpt><trkpt lat="42.0763605" lon="11.9983383"><ele>407.0</ele><time>2026-04-30T08:23:43.532Z</time></trkpt><trkpt lat="42.0762197" lon="11.9982937"><ele>407.0</ele><time>2026-04-30T08:23:45.532Z</time></trkpt><trkpt lat="42.0761403" lon="11.9983066"><ele>407.0</ele><time>2026-04-30T08:23:46.532Z</time></trkpt><trkpt lat="42.0760369" lon="11.9983189"><ele>407.0</ele><time>2026-04-30T08:23:48.532Z</time></trkpt><trkpt lat="42.0759707" lon="11.9983495"><ele>406.99999999999994</ele><time>2026-04-30T08:23:50.532Z</time></trkpt><trkpt lat="42.0759393" lon="11.998437"><ele>407.0</ele><time>2026-04-30T08:23:53.532Z</time></trkpt><trkpt lat="42.0759865" lon="11.9985117"><ele>407.0</ele><time>2026-04-30T08:23:55.532Z</time></trkpt><trkpt lat="42.0760463" lon="11.9985666"><ele>407.0</ele><time>2026-04-30T08:23:56.532Z</time></trkpt><trkpt lat="42.0761129" lon="11.9986519"><ele>406.99999999999994</ele><time>2026-04-30T08:23:57.532Z</time></trkpt><trkpt lat="42.0761842" lon="11.9987568"><ele>407.0</ele><time>2026-04-30T08:23:58.532Z</time></trkpt><trkpt lat="42.0762472" lon="11.9988615"><ele>407.0</ele><time>2026-04-30T08:23:59.532Z</time></trkpt><trkpt lat="42.0763113" lon="11.9989586"><ele>407.0</ele><time>2026-04-30T08:24:00.532Z</time></trkpt><trkpt lat="42.07638" lon="11.9990532"><ele>407.0</ele><time>2026-04-30T08:24:01.532Z</time></trkpt><trkpt lat="42.0764477" lon="11.9991608"><ele>407.0</ele><time>2026-04-30T08:24:02.532Z</time></trkpt><trkpt lat="42.0765173" lon="11.9992622"><ele>407.0</ele><time>2026-04-30T08:24:03.532Z</time></trkpt><trkpt lat="42.0765815" lon="11.9993702"><ele>407.40000000000003</ele><time>2026-04-30T08:24:04.532Z</time></trkpt><trkpt lat="42.0766442" lon="11.9994949"><ele>407.8</ele><time>2026-04-30T08:24:05.532Z</time></trkpt><trkpt lat="42.0767141" lon="11.9996102"><ele>408.2</ele><time>2026-04-30T08:24:06.532Z</time></trkpt><trkpt lat="42.0767813" lon="11.9997196"><ele>408.6</ele><time>2026-04-30T08:24:07.532Z</time></trkpt><trkpt lat="42.0768509" lon="11.9998298"><ele>409.0</ele><time>2026-04-30T08:24:08.532Z</time></trkpt><trkpt lat="42.0769291" lon="11.9999363"><ele>409.0</ele><time>2026-04-30T08:24:09.532Z</time></trkpt><trkpt lat="42.0769966" lon="12.0000212"><ele>409.0</ele><time>2026-04-30T08:24:10.532Z</time></trkpt><trkpt lat="42.0770866" lon="12.0001196"><ele>409.0</ele><time>2026-04-30T08:24:11.532Z</time></trkpt><trkpt lat="42.0771857" lon="12.0001976"><ele>409.0</ele><time>2026-04-30T08:24:12.531Z</time></trkpt><trkpt lat="42.0772708" lon="12.000272"><ele>409.0</ele><time>2026-04-30T08:24:13.532Z</time></trkpt><trkpt lat="42.0773617" lon="12.0003323"><ele>410.0</ele><time>2026-04-30T08:24:14.531Z</time></trkpt><trkpt lat="42.0774562" lon="12.0003597"><ele>411.0</ele><time>2026-04-30T08:24:15.532Z</time></trkpt><trkpt lat="42.0775582" lon="12.0003921"><ele>412.0</ele><time>2026-04-30T08:24:16.532Z</time></trkpt><trkpt lat="42.0776707" lon="12.0004194"><ele>413.0</ele><time>2026-04-30T08:24:17.532Z</time></trkpt><trkpt lat="42.0777842" lon="12.0004457"><ele>414.0</ele><time>2026-04-30T08:24:18.532Z</time></trkpt><trkpt lat="42.077907" lon="12.0004831"><ele>414.0</ele><time>2026-04-30T08:24:19.532Z</time></trkpt><trkpt lat="42.0780296" lon="12.0005209"><ele>414.0</ele><time>2026-04-30T08:24:20.532Z</time></trkpt><trkpt lat="42.0781592" lon="12.0005566"><ele>414.0</ele><time>2026-04-30T08:24:21.532Z</time></trkpt><trkpt lat="42.0782868" lon="12.0005846"><ele>414.0</ele><time>2026-04-30T08:24:22.532Z</time></trkpt><trkpt lat="42.0784095" lon="12.0006251"><ele>416.0</ele><time>2026-04-30T08:24:23.531Z</time></trkpt><trkpt lat="42.0785239" lon="12.0006736"><ele>418.0</ele><time>2026-04-30T08:24:24.532Z</time></trkpt><trkpt lat="42.0786459" lon="12.0007139"><ele>420.0</ele><time>2026-04-30T08:24:25.532Z</time></trkpt><trkpt lat="42.0787663" lon="12.0007466"><ele>422.0</ele><time>2026-04-30T08:24:26.531Z</time></trkpt><trkpt lat="42.0788802" lon="12.0007746"><ele>422.0</ele><time>2026-04-30T08:24:27.532Z</time></trkpt><trkpt lat="42.0789847" lon="12.0007979"><ele>422.0</ele><time>2026-04-30T08:24:28.532Z</time></trkpt><trkpt lat="42.079092" lon="12.0008217"><ele>422.0</ele><time>2026-04-30T08:24:29.532Z</time></trkpt><trkpt lat="42.0792081" lon="12.0008491"><ele>422.0</ele><time>2026-04-30T08:24:30.532Z</time></trkpt><trkpt lat="42.079325" lon="12.0008827"><ele>426.25</ele><time>2026-04-30T08:24:31.532Z</time></trkpt><trkpt lat="42.0794379" lon="12.0009104"><ele>430.5</ele><time>2026-04-30T08:24:32.532Z</time></trkpt><trkpt lat="42.0795488" lon="12.0009371"><ele>434.75</ele><time>2026-04-30T08:24:33.532Z</time></trkpt><trkpt lat="42.0796643" lon="12.0009598"><ele>439.0</ele><time>2026-04-30T08:24:34.532Z</time></trkpt><trkpt lat="42.0797825" lon="12.0009821"><ele>439.0</ele><time>2026-04-30T08:24:35.532Z</time></trkpt><trkpt lat="42.0799133" lon="12.0010229"><ele>439.0</ele><time>2026-04-30T08:24:36.532Z</time></trkpt><trkpt lat="42.0800396" lon="12.001065"><ele>439.0</ele><time>2026-04-30T08:24:37.532Z</time></trkpt><trkpt lat="42.0801614" lon="12.0011013"><ele>439.0</ele><time>2026-04-30T08:24:38.532Z</time></trkpt><trkpt lat="42.0802839" lon="12.0011278"><ele>440.2</ele><time>2026-04-30T08:24:39.532Z</time></trkpt><trkpt lat="42.0803876" lon="12.0011407"><ele>441.4</ele><time>2026-04-30T08:24:40.532Z</time></trkpt><trkpt lat="42.0804809" lon="12.0011393"><ele>442.6</ele><time>2026-04-30T08:24:41.532Z</time></trkpt><trkpt lat="42.0805816" lon="12.0011286"><ele>443.8</ele><time>2026-04-30T08:24:42.532Z</time></trkpt><trkpt lat="42.0806902" lon="12.0010904"><ele>445.0</ele><time>2026-04-30T08:24:43.532Z</time></trkpt><trkpt lat="42.0807899" lon="12.0010421"><ele>446.1666666666667</ele><time>2026-04-30T08:24:44.532Z</time></trkpt><trkpt lat="42.0808767" lon="12.0009895"><ele>447.33333333333337</ele><time>2026-04-30T08:24:45.532Z</time></trkpt><trkpt lat="42.0809491" lon="12.0009456"><ele>448.5</ele><time>2026-04-30T08:24:46.532Z</time></trkpt><trkpt lat="42.0810326" lon="12.0008976"><ele>449.66666666666663</ele><time>2026-04-30T08:24:48.532Z</time></trkpt><trkpt lat="42.0810633" lon="12.0009748"><ele>450.8333333333333</ele><time>2026-04-30T08:24:56.532Z</time></trkpt><trkpt lat="42.0810044" lon="12.0010301"><ele>452.0</ele><time>2026-04-30T08:25:29.532Z</time></trkpt><trkpt lat="42.0808947" lon="12.0011328"><ele>452.0</ele><time>2026-04-30T08:25:31.532Z</time></trkpt><trkpt lat="42.0808266" lon="12.0012083"><ele>452.0</ele><time>2026-04-30T08:25:32.532Z</time></trkpt><trkpt lat="42.0807534" lon="12.0013186"><ele>452.0</ele><time>2026-04-30T08:25:33.532Z</time></trkpt><trkpt lat="42.0806826" lon="12.0014896"><ele>452.0</ele><time>2026-04-30T08:25:35.067Z</time></trkpt><trkpt lat="42.0806155" lon="12.0016388"><ele>451.66666666666663</ele><time>2026-04-30T08:25:36.047Z</time></trkpt><trkpt lat="42.0805579" lon="12.001793"><ele>451.33333333333337</ele><time>2026-04-30T08:25:37.099Z</time></trkpt><trkpt lat="42.0804718" lon="12.0019587"><ele>451.0</ele><time>2026-04-30T08:25:38.341Z</time></trkpt><trkpt lat="42.0803917" lon="12.0021863"><ele>451.0</ele><time>2026-04-30T08:25:40Z</time></trkpt><trkpt lat="42.0803368" lon="12.0023046"><ele>451.0</ele><time>2026-04-30T08:25:40.987Z</time></trkpt><trkpt lat="42.0802686" lon="12.0024385"><ele>451.0</ele><time>2026-04-30T08:25:42.098Z</time></trkpt><trkpt lat="42.0802003" lon="12.0025556"><ele>451.0</ele><time>2026-04-30T08:25:43.178Z</time></trkpt><trkpt lat="42.0801395" lon="12.0026444"><ele>451.0</ele><time>2026-04-30T08:25:44.088Z</time></trkpt><trkpt lat="42.0800547" lon="12.0028014"><ele>452.0</ele><time>2026-04-30T08:25:45.256Z</time></trkpt><trkpt lat="42.0799779" lon="12.0030255"><ele>453.0</ele><time>2026-04-30T08:25:47.05Z</time></trkpt><trkpt lat="42.0799127" lon="12.0031746"><ele>454.0</ele><time>2026-04-30T08:25:48.153Z</time></trkpt><trkpt lat="42.0797953" lon="12.0034773"><ele>456.25</ele><time>2026-04-30T08:25:50.972Z</time></trkpt><trkpt lat="42.079776" lon="12.0035818"><ele>458.5</ele><time>2026-04-30T08:25:51.995Z</time></trkpt><trkpt lat="42.079783" lon="12.0038148"><ele>460.75</ele><time>2026-04-30T08:25:54.006Z</time></trkpt><trkpt lat="42.0797766" lon="12.0039466"><ele>463.0</ele><time>2026-04-30T08:25:55.01Z</time></trkpt><trkpt lat="42.079755" lon="12.004127"><ele>460.5</ele><time>2026-04-30T08:25:56.14Z</time></trkpt><trkpt lat="42.0797399" lon="12.0042776"><ele>458.0</ele><time>2026-04-30T08:25:57.063Z</time></trkpt><trkpt lat="42.079731" lon="12.0044081"><ele>455.5</ele><time>2026-04-30T08:25:58.078Z</time></trkpt><trkpt lat="42.0797187" lon="12.0046309"><ele>453.0</ele><time>2026-04-30T08:25:59.983Z</time></trkpt><trkpt lat="42.0797068" lon="12.0047325"><ele>453.0</ele><time>2026-04-30T08:26:00.998Z</time></trkpt><trkpt lat="42.0796785" lon="12.0048491"><ele>453.0</ele><time>2026-04-30T08:26:02.162Z</time></trkpt><trkpt lat="42.0795905" lon="12.0049972"><ele>453.0</ele><time>2026-04-30T08:26:04.064Z</time></trkpt><trkpt lat="42.0794552" lon="12.0050794"><ele>453.0</ele><time>2026-04-30T08:26:05.168Z</time></trkpt><trkpt lat="42.079327" lon="12.0051347"><ele>449.0</ele><time>2026-04-30T08:26:06.121Z</time></trkpt><trkpt lat="42.0792148" lon="12.0052202"><ele>445.0</ele><time>2026-04-30T08:26:07.04Z</time></trkpt><trkpt lat="42.0789564" lon="12.0055724"><ele>440.75</ele><time>2026-04-30T08:26:10.131Z</time></trkpt><trkpt lat="42.0788446" lon="12.005822"><ele>436.5</ele><time>2026-04-30T08:26:12.009Z</time></trkpt><trkpt lat="42.0788006" lon="12.0059398"><ele>432.25</ele><time>2026-04-30T08:26:12.921Z</time></trkpt><trkpt lat="42.0787383" lon="12.0061004"><ele>428.0</ele><time>2026-04-30T08:26:14.054Z</time></trkpt><trkpt lat="42.0786681" lon="12.0062794"><ele>428.0</ele><time>2026-04-30T08:26:15.108Z</time></trkpt><trkpt lat="42.0785111" lon="12.0065603"><ele>428.0</ele><time>2026-04-30T08:26:17.017Z</time></trkpt><trkpt lat="42.0784563" lon="12.0066845"><ele>428.0</ele><time>2026-04-30T08:26:17.946Z</time></trkpt><trkpt lat="42.0784126" lon="12.0068049"><ele>428.25</ele><time>2026-04-30T08:26:18.987Z</time></trkpt><trkpt lat="42.0783631" lon="12.0069275"><ele>428.5</ele><time>2026-04-30T08:26:19.951Z</time></trkpt><trkpt lat="42.0783118" lon="12.0070513"><ele>428.75</ele><time>2026-04-30T08:26:20.984Z</time></trkpt><trkpt lat="42.0782438" lon="12.0072151"><ele>429.0</ele><time>2026-04-30T08:26:22.173Z</time></trkpt><trkpt lat="42.0781042" lon="12.0074875"><ele>427.0</ele><time>2026-04-30T08:26:24.249Z</time></trkpt><trkpt lat="42.0780467" lon="12.0077461"><ele>425.0</ele><time>2026-04-30T08:26:26.032Z</time></trkpt><trkpt lat="42.0780009" lon="12.0078749"><ele>423.0</ele><time>2026-04-30T08:26:27.151Z</time></trkpt><trkpt lat="42.0779125" lon="12.0080409"><ele>423.0</ele><time>2026-04-30T08:26:28.89Z</time></trkpt><trkpt lat="42.0778217" lon="12.0082574"><ele>423.0</ele><time>2026-04-30T08:26:30.321Z</time></trkpt><trkpt lat="42.0776978" lon="12.008453"><ele>423.0</ele><time>2026-04-30T08:26:32.001Z</time></trkpt><trkpt lat="42.0776258" lon="12.0085611"><ele>423.79999999999995</ele><time>2026-04-30T08:26:32.926Z</time></trkpt><trkpt lat="42.0775548" lon="12.0086581"><ele>424.6</ele><time>2026-04-30T08:26:33.908Z</time></trkpt><trkpt lat="42.0774658" lon="12.0087954"><ele>425.40000000000003</ele><time>2026-04-30T08:26:35.098Z</time></trkpt><trkpt lat="42.077414" lon="12.008909"><ele>426.20000000000005</ele><time>2026-04-30T08:26:36.075Z</time></trkpt><trkpt lat="42.0773617" lon="12.0090118"><ele>427.0</ele><time>2026-04-30T08:26:37.02Z</time></trkpt><trkpt lat="42.0773079" lon="12.0091301"><ele>425.8</ele><time>2026-04-30T08:26:38.118Z</time></trkpt><trkpt lat="42.0772178" lon="12.0093374"><ele>424.6</ele><time>2026-04-30T08:26:40.047Z</time></trkpt><trkpt lat="42.0771877" lon="12.009459"><ele>423.40000000000003</ele><time>2026-04-30T08:26:41.085Z</time></trkpt><trkpt lat="42.0771931" lon="12.00958"><ele>422.20000000000005</ele><time>2026-04-30T08:26:42.141Z</time></trkpt><trkpt lat="42.077232" lon="12.0096738"><ele>421.0</ele><time>2026-04-30T08:26:43.055Z</time></trkpt><trkpt lat="42.0772938" lon="12.0097842"><ele>421.25</ele><time>2026-04-30T08:26:44.176Z</time></trkpt><trkpt lat="42.0774583" lon="12.0099901"><ele>421.5</ele><time>2026-04-30T08:26:46.125Z</time></trkpt><trkpt lat="42.0775021" lon="12.0101169"><ele>421.75</ele><time>2026-04-30T08:26:47.098Z</time></trkpt><trkpt lat="42.0775446" lon="12.0102441"><ele>422.0</ele><time>2026-04-30T08:26:48.005Z</time></trkpt><trkpt lat="42.077593" lon="12.0103905"><ele>422.66666666666663</ele><time>2026-04-30T08:26:49.236Z</time></trkpt><trkpt lat="42.0775889" lon="12.0106104"><ele>423.33333333333337</ele><time>2026-04-30T08:26:51.176Z</time></trkpt><trkpt lat="42.0774217" lon="12.0108636"><ele>424.0</ele><time>2026-04-30T08:26:54.126Z</time></trkpt><trkpt lat="42.0772531" lon="12.0110352"><ele>426.79999999999995</ele><time>2026-04-30T08:26:56.086Z</time></trkpt><trkpt lat="42.0771821" lon="12.0111429"><ele>429.59999999999997</ele><time>2026-04-30T08:26:57.063Z</time></trkpt><trkpt lat="42.0771338" lon="12.0112533"><ele>432.4</ele><time>2026-04-30T08:26:57.983Z</time></trkpt><trkpt lat="42.0770967" lon="12.0113745"><ele>435.2</ele><time>2026-04-30T08:26:58.968Z</time></trkpt><trkpt lat="42.0770701" lon="12.011491"><ele>438.0</ele><time>2026-04-30T08:26:59.884Z</time></trkpt><trkpt lat="42.0770305" lon="12.0116385"><ele>437.4</ele><time>2026-04-30T08:27:00.897Z</time></trkpt><trkpt lat="42.076995" lon="12.0117661"><ele>436.79999999999995</ele><time>2026-04-30T08:27:01.865Z</time></trkpt><trkpt lat="42.0769716" lon="12.0119083"><ele>436.2</ele><time>2026-04-30T08:27:02.9Z</time></trkpt><trkpt lat="42.0769639" lon="12.0120281"><ele>435.6</ele><time>2026-04-30T08:27:03.897Z</time></trkpt><trkpt lat="42.076984" lon="12.0121894"><ele>435.0</ele><time>2026-04-30T08:27:05.131Z</time></trkpt><trkpt lat="42.0770628" lon="12.012475"><ele>435.0</ele><time>2026-04-30T08:27:06.965Z</time></trkpt><trkpt lat="42.0770962" lon="12.0126184"><ele>435.0</ele><time>2026-04-30T08:27:08.046Z</time></trkpt><trkpt lat="42.0771386" lon="12.0128473"><ele>435.0</ele><time>2026-04-30T08:27:10.092Z</time></trkpt><trkpt lat="42.0771462" lon="12.0129436"><ele>435.0</ele><time>2026-04-30T08:27:11.021Z</time></trkpt><trkpt lat="42.077152" lon="12.0130458"><ele>435.0</ele><time>2026-04-30T08:27:11.924Z</time></trkpt><trkpt lat="42.0771383" lon="12.0131747"><ele>435.25</ele><time>2026-04-30T08:27:13.069Z</time></trkpt><trkpt lat="42.0771329" lon="12.0134057"><ele>435.5</ele><time>2026-04-30T08:27:14.869Z</time></trkpt><trkpt lat="42.0771373" lon="12.0135152"><ele>435.75</ele><time>2026-04-30T08:27:15.817Z</time></trkpt><trkpt lat="42.077141" lon="12.0136753"><ele>436.0</ele><time>2026-04-30T08:27:17.091Z</time></trkpt><trkpt lat="42.077133" lon="12.013801"><ele>436.0</ele><time>2026-04-30T08:27:18.155Z</time></trkpt><trkpt lat="42.0771216" lon="12.0139727"><ele>436.0</ele><time>2026-04-30T08:27:19.951Z</time></trkpt><trkpt lat="42.077125" lon="12.0141595"><ele>436.0</ele><time>2026-04-30T08:27:23.067Z</time></trkpt><trkpt lat="42.0771847" lon="12.0142565"><ele>436.0</ele><time>2026-04-30T08:27:24.955Z</time></trkpt><trkpt lat="42.0772371" lon="12.0143152"><ele>436.0</ele><time>2026-04-30T08:27:25.998Z</time></trkpt><trkpt lat="42.0772897" lon="12.0143668"><ele>434.4</ele><time>2026-04-30T08:27:27.032Z</time></trkpt><trkpt lat="42.0773544" lon="12.0145156"><ele>432.8</ele><time>2026-04-30T08:27:30.174Z</time></trkpt><trkpt lat="42.0774118" lon="12.0146179"><ele>431.19999999999993</ele><time>2026-04-30T08:27:31.925Z</time></trkpt><trkpt lat="42.0774895" lon="12.0147249"><ele>429.59999999999997</ele><time>2026-04-30T08:27:34.098Z</time></trkpt><trkpt lat="42.0775309" lon="12.0148047"><ele>428.0</ele><time>2026-04-30T08:27:36.891Z</time></trkpt><trkpt lat="42.0775866" lon="12.0148943"><ele>428.4</ele><time>2026-04-30T08:27:40.143Z</time></trkpt><trkpt lat="42.0775544" lon="12.0149814"><ele>428.79999999999995</ele><time>2026-04-30T08:27:45.143Z</time></trkpt><trkpt lat="42.0774811" lon="12.0150237"><ele>429.2</ele><time>2026-04-30T08:27:47.004Z</time></trkpt><trkpt lat="42.07731" lon="12.0149928"><ele>429.6</ele><time>2026-04-30T08:27:50.037Z</time></trkpt><trkpt lat="42.0772218" lon="12.0150353"><ele>430.0</ele><time>2026-04-30T08:27:52.053Z</time></trkpt><trkpt lat="42.0771675" lon="12.0150817"><ele>430.0</ele><time>2026-04-30T08:27:54.781Z</time></trkpt><trkpt lat="42.0771635" lon="12.0152063"><ele>430.0</ele><time>2026-04-30T08:27:57.147Z</time></trkpt><trkpt lat="42.0772416" lon="12.015385"><ele>430.0</ele><time>2026-04-30T08:27:59.924Z</time></trkpt><trkpt lat="42.0772303" lon="12.0155439"><ele>430.0</ele><time>2026-04-30T08:28:04.995Z</time></trkpt><trkpt lat="42.0772338" lon="12.015639"><ele>430.0</ele><time>2026-04-30T08:28:06.129Z</time></trkpt><trkpt lat="42.0772396" lon="12.0158266"><ele>432.0</ele><time>2026-04-30T08:28:07.935Z</time></trkpt><trkpt lat="42.0772575" lon="12.0159319"><ele>434.0</ele><time>2026-04-30T08:28:09.242Z</time></trkpt><trkpt lat="42.0772899" lon="12.0160698"><ele>436.0</ele><time>2026-04-30T08:28:11.073Z</time></trkpt><trkpt lat="42.0773468" lon="12.0162252"><ele>438.0</ele><time>2026-04-30T08:28:12.908Z</time></trkpt><trkpt lat="42.0773867" lon="12.016304"><ele>440.0</ele><time>2026-04-30T08:28:14.191Z</time></trkpt><trkpt lat="42.0774689" lon="12.0164481"><ele>440.2</ele><time>2026-04-30T08:28:16.021Z</time></trkpt><trkpt lat="42.0775247" lon="12.0165432"><ele>440.4</ele><time>2026-04-30T08:28:17.055Z</time></trkpt><trkpt lat="42.0775679" lon="12.0166345"><ele>440.6</ele><time>2026-04-30T08:28:18.125Z</time></trkpt><trkpt lat="42.0776166" lon="12.0167317"><ele>440.8</ele><time>2026-04-30T08:28:19.114Z</time></trkpt><trkpt lat="42.0776764" lon="12.0169144"><ele>441.0</ele><time>2026-04-30T08:28:21.027Z</time></trkpt><trkpt lat="42.0777243" lon="12.0170258"><ele>443.4</ele><time>2026-04-30T08:28:23.105Z</time></trkpt><trkpt lat="42.0778407" lon="12.0171025"><ele>445.8</ele><time>2026-04-30T08:28:25.219Z</time></trkpt><trkpt lat="42.0779047" lon="12.0172299"><ele>448.19999999999993</ele><time>2026-04-30T08:28:27.033Z</time></trkpt><trkpt lat="42.0779648" lon="12.0173637"><ele>450.59999999999997</ele><time>2026-04-30T08:28:28.833Z</time></trkpt><trkpt lat="42.0779892" lon="12.0174615"><ele>453.0</ele><time>2026-04-30T08:28:30.009Z</time></trkpt><trkpt lat="42.0780067" lon="12.0175598"><ele>454.0</ele><time>2026-04-30T08:28:30.974Z</time></trkpt><trkpt lat="42.0780426" lon="12.0176908"><ele>454.99999999999994</ele><time>2026-04-30T08:28:32.059Z</time></trkpt><trkpt lat="42.0780776" lon="12.0178022"><ele>455.99999999999994</ele><time>2026-04-30T08:28:33.08Z</time></trkpt><trkpt lat="42.0781556" lon="12.0179299"><ele>457.0</ele><time>2026-04-30T08:28:35.119Z</time></trkpt><trkpt lat="42.0782747" lon="12.0180025"><ele>458.0</ele><time>2026-04-30T08:28:37.069Z</time></trkpt><trkpt lat="42.0783303" lon="12.0180522"><ele>458.4</ele><time>2026-04-30T08:28:39.067Z</time></trkpt><trkpt lat="42.0783791" lon="12.0181454"><ele>458.79999999999995</ele><time>2026-04-30T08:28:42.025Z</time></trkpt><trkpt lat="42.0784064" lon="12.018297"><ele>459.2</ele><time>2026-04-30T08:28:45.11Z</time></trkpt><trkpt lat="42.0784143" lon="12.0184187"><ele>459.6</ele><time>2026-04-30T08:28:48.179Z</time></trkpt><trkpt lat="42.0784844" lon="12.0184889"><ele>460.0</ele><time>2026-04-30T08:28:50.178Z</time></trkpt><trkpt lat="42.0785559" lon="12.0185447"><ele>459.6</ele><time>2026-04-30T08:28:52.046Z</time></trkpt><trkpt lat="42.0785361" lon="12.0186576"><ele>459.2</ele><time>2026-04-30T08:28:55.068Z</time></trkpt><trkpt lat="42.0784479" lon="12.0187698"><ele>458.79999999999995</ele><time>2026-04-30T08:28:57.932Z</time></trkpt><trkpt lat="42.0783624" lon="12.0188221"><ele>458.4</ele><time>2026-04-30T08:28:59.972Z</time></trkpt><trkpt lat="42.078247" lon="12.018889"><ele>458.0</ele><time>2026-04-30T08:29:02.037Z</time></trkpt><trkpt lat="42.0781722" lon="12.0190301"><ele>457.99999999999994</ele><time>2026-04-30T08:29:03.917Z</time></trkpt><trkpt lat="42.0781506" lon="12.0191226"><ele>458.0</ele><time>2026-04-30T08:29:05.087Z</time></trkpt><trkpt lat="42.0781394" lon="12.0192069"><ele>458.0</ele><time>2026-04-30T08:29:06.105Z</time></trkpt><trkpt lat="42.078084" lon="12.0193943"><ele>458.0</ele><time>2026-04-30T08:29:08.019Z</time></trkpt><trkpt lat="42.0780624" lon="12.0195065"><ele>457.99999999999994</ele><time>2026-04-30T08:29:08.987Z</time></trkpt><trkpt lat="42.0780327" lon="12.0195894"><ele>458.0</ele><time>2026-04-30T08:29:09.932Z</time></trkpt><trkpt lat="42.0779679" lon="12.0196874"><ele>460.2</ele><time>2026-04-30T08:29:12.047Z</time></trkpt><trkpt lat="42.077905" lon="12.0197195"><ele>462.4</ele><time>2026-04-30T08:29:13.012Z</time></trkpt><trkpt lat="42.0777875" lon="12.0197761"><ele>464.59999999999997</ele><time>2026-04-30T08:29:14.902Z</time></trkpt><trkpt lat="42.077692" lon="12.0198031"><ele>466.79999999999995</ele><time>2026-04-30T08:29:15.927Z</time></trkpt><trkpt lat="42.0775976" lon="12.0198175"><ele>469.0</ele><time>2026-04-30T08:29:17.015Z</time></trkpt><trkpt lat="42.0775215" lon="12.0197968"><ele>469.0</ele><time>2026-04-30T08:29:17.943Z</time></trkpt><trkpt lat="42.0774565" lon="12.0197474"><ele>469.0</ele><time>2026-04-30T08:29:19.052Z</time></trkpt><trkpt lat="42.0773738" lon="12.0196"><ele>469.0</ele><time>2026-04-30T08:29:20.943Z</time></trkpt><trkpt lat="42.0772251" lon="12.0195603"><ele>469.0</ele><time>2026-04-30T08:29:22.984Z</time></trkpt><trkpt lat="42.0771435" lon="12.0195296"><ele>469.0</ele><time>2026-04-30T08:29:23.949Z</time></trkpt><trkpt lat="42.0770678" lon="12.0195059"><ele>468.4</ele><time>2026-04-30T08:29:24.945Z</time></trkpt><trkpt lat="42.0769718" lon="12.0194807"><ele>467.79999999999995</ele><time>2026-04-30T08:29:27.075Z</time></trkpt><trkpt lat="42.0768966" lon="12.0194739"><ele>467.20000000000005</ele><time>2026-04-30T08:29:30.877Z</time></trkpt><trkpt lat="42.0768243" lon="12.0194582"><ele>466.6</ele><time>2026-04-30T08:29:32.818Z</time></trkpt><trkpt lat="42.0767551" lon="12.0194591"><ele>466.0</ele><time>2026-04-30T08:29:43.909Z</time></trkpt><trkpt lat="42.0766053" lon="12.0194638"><ele>466.6666666666667</ele><time>2026-04-30T08:29:46.09Z</time></trkpt><trkpt lat="42.0765369" lon="12.0194614"><ele>467.33333333333337</ele><time>2026-04-30T08:29:47.088Z</time></trkpt><trkpt lat="42.0764016" lon="12.0194479"><ele>468.0</ele><time>2026-04-30T08:29:49.039Z</time></trkpt><trkpt lat="42.0763312" lon="12.0194535"><ele>468.66666666666663</ele><time>2026-04-30T08:29:50.051Z</time></trkpt><trkpt lat="42.0762626" lon="12.0194845"><ele>469.3333333333333</ele><time>2026-04-30T08:29:51.049Z</time></trkpt><trkpt lat="42.0761945" lon="12.0195376"><ele>470.0</ele><time>2026-04-30T08:29:52.056Z</time></trkpt><trkpt lat="42.0761172" lon="12.0195714"><ele>470.0</ele><time>2026-04-30T08:29:53.118Z</time></trkpt><trkpt lat="42.0760451" lon="12.0196112"><ele>470.0</ele><time>2026-04-30T08:29:54.087Z</time></trkpt><trkpt lat="42.0759501" lon="12.0196579"><ele>470.0</ele><time>2026-04-30T08:29:55.215Z</time></trkpt><trkpt lat="42.0758646" lon="12.0197431"><ele>470.0</ele><time>2026-04-30T08:29:56.967Z</time></trkpt><trkpt lat="42.0757983" lon="12.0198347"><ele>470.0</ele><time>2026-04-30T08:29:59.099Z</time></trkpt><trkpt lat="42.0757394" lon="12.0199197"><ele>466.0</ele><time>2026-04-30T08:30:01.08Z</time></trkpt><trkpt lat="42.0756942" lon="12.0200146"><ele>462.0</ele><time>2026-04-30T08:30:03.2Z</time></trkpt><trkpt lat="42.075637" lon="12.0201417"><ele>458.0</ele><time>2026-04-30T08:30:06.147Z</time></trkpt><trkpt lat="42.0756561" lon="12.0202681"><ele>454.0</ele><time>2026-04-30T08:30:07.937Z</time></trkpt><trkpt lat="42.0756002" lon="12.0204002"><ele>450.0</ele><time>2026-04-30T08:30:10.062Z</time></trkpt><trkpt lat="42.0755214" lon="12.0205287"><ele>450.0</ele><time>2026-04-30T08:30:12.214Z</time></trkpt><trkpt lat="42.0755199" lon="12.0207345"><ele>450.0</ele><time>2026-04-30T08:30:14.944Z</time></trkpt><trkpt lat="42.0755235" lon="12.0208689"><ele>450.0</ele><time>2026-04-30T08:30:17.067Z</time></trkpt><trkpt lat="42.0755202" lon="12.0209603"><ele>450.0</ele><time>2026-04-30T08:30:18.103Z</time></trkpt><trkpt lat="42.0754953" lon="12.0211152"><ele>450.0</ele><time>2026-04-30T08:30:20.19Z</time></trkpt><trkpt lat="42.0754858" lon="12.0212151"><ele>448.8</ele><time>2026-04-30T08:30:22.177Z</time></trkpt><trkpt lat="42.0754248" lon="12.0213372"><ele>447.6</ele><time>2026-04-30T08:30:24.263Z</time></trkpt><trkpt lat="42.0754056" lon="12.0214366"><ele>446.4</ele><time>2026-04-30T08:30:26.14Z</time></trkpt><trkpt lat="42.0753853" lon="12.0215368"><ele>445.2</ele><time>2026-04-30T08:30:27.997Z</time></trkpt><trkpt lat="42.0753137" lon="12.0216452"><ele>444.0</ele><time>2026-04-30T08:30:30.019Z</time></trkpt><trkpt lat="42.0752484" lon="12.0218846"><ele>443.5</ele><time>2026-04-30T08:30:33.984Z</time></trkpt><trkpt lat="42.075238" lon="12.0219992"><ele>443.0</ele><time>2026-04-30T08:30:36.124Z</time></trkpt><trkpt lat="42.0752825" lon="12.0221054"><ele>442.5</ele><time>2026-04-30T08:30:39.177Z</time></trkpt><trkpt lat="42.0753086" lon="12.0221959"><ele>442.0</ele><time>2026-04-30T08:30:41.058Z</time></trkpt><trkpt lat="42.0752546" lon="12.0222954"><ele>441.5</ele><time>2026-04-30T08:30:42.935Z</time></trkpt><trkpt lat="42.0752195" lon="12.0223898"><ele>441.0</ele><time>2026-04-30T08:30:44.968Z</time></trkpt><trkpt lat="42.0751838" lon="12.0225314"><ele>440.5</ele><time>2026-04-30T08:30:47.171Z</time></trkpt><trkpt lat="42.0751437" lon="12.0226154"><ele>440.0</ele><time>2026-04-30T08:30:48.885Z</time></trkpt><trkpt lat="42.0751393" lon="12.0227045"><ele>439.5</ele><time>2026-04-30T08:30:50.188Z</time></trkpt><trkpt lat="42.0751405" lon="12.0228596"><ele>439.0</ele><time>2026-04-30T08:30:52.233Z</time></trkpt><trkpt lat="42.0751217" lon="12.0229957"><ele>438.5</ele><time>2026-04-30T08:30:55.119Z</time></trkpt><trkpt lat="42.0751124" lon="12.0230805"><ele>438.0</ele><time>2026-04-30T08:30:57.097Z</time></trkpt><trkpt lat="42.0751071" lon="12.0231897"><ele>438.0</ele><time>2026-04-30T08:30:59.08Z</time></trkpt><trkpt lat="42.0750909" lon="12.02331"><ele>437.99999999999994</ele><time>2026-04-30T08:31:01.039Z</time></trkpt><trkpt lat="42.0751011" lon="12.0234659"><ele>437.99999999999994</ele><time>2026-04-30T08:31:03.037Z</time></trkpt><trkpt lat="42.0751668" lon="12.0234995"><ele>438.0</ele><time>2026-04-30T08:31:04.974Z</time></trkpt><trkpt lat="42.0752694" lon="12.0234281"><ele>438.0</ele><time>2026-04-30T08:31:08.002Z</time></trkpt><trkpt lat="42.075326" lon="12.023352"><ele>438.0</ele><time>2026-04-30T08:31:09.005Z</time></trkpt><trkpt lat="42.0753829" lon="12.023271"><ele>437.99999999999994</ele><time>2026-04-30T08:31:09.913Z</time></trkpt><trkpt lat="42.0754568" lon="12.0231747"><ele>437.99999999999994</ele><time>2026-04-30T08:31:10.995Z</time></trkpt><trkpt lat="42.0755218" lon="12.0230829"><ele>438.0</ele><time>2026-04-30T08:31:11.975Z</time></trkpt><trkpt lat="42.0755995" lon="12.0229636"><ele>438.0</ele><time>2026-04-30T08:31:13.138Z</time></trkpt><trkpt lat="42.0757615" lon="12.0227553"><ele>438.3333333333333</ele><time>2026-04-30T08:31:15.21Z</time></trkpt><trkpt lat="42.0758676" lon="12.0226423"><ele>438.66666666666663</ele><time>2026-04-30T08:31:17.136Z</time></trkpt><trkpt lat="42.0759103" lon="12.0225691"><ele>439.0</ele><time>2026-04-30T08:31:18.069Z</time></trkpt><trkpt lat="42.0759511" lon="12.0224836"><ele>439.3333333333333</ele><time>2026-04-30T08:31:19.116Z</time></trkpt><trkpt lat="42.0759899" lon="12.0224108"><ele>439.66666666666663</ele><time>2026-04-30T08:31:20.053Z</time></trkpt><trkpt lat="42.0760293" lon="12.0223378"><ele>440.0</ele><time>2026-04-30T08:31:21.083Z</time></trkpt><trkpt lat="42.0761112" lon="12.022155"><ele>442.5</ele><time>2026-04-30T08:31:23.113Z</time></trkpt><trkpt lat="42.0761582" lon="12.0220514"><ele>445.0</ele><time>2026-04-30T08:31:25.072Z</time></trkpt><trkpt lat="42.0763025" lon="12.0220024"><ele>447.5</ele><time>2026-04-30T08:31:28Z</time></trkpt><trkpt lat="42.0763687" lon="12.0220478"><ele>450.0</ele><time>2026-04-30T08:31:29.01Z</time></trkpt><trkpt lat="42.076466" lon="12.0222017"><ele>450.0</ele><time>2026-04-30T08:31:31.018Z</time></trkpt><trkpt lat="42.0765193" lon="12.0223028"><ele>450.0</ele><time>2026-04-30T08:31:32.056Z</time></trkpt><trkpt lat="42.0765786" lon="12.0223764"><ele>450.0</ele><time>2026-04-30T08:31:32.964Z</time></trkpt><trkpt lat="42.0766437" lon="12.0224558"><ele>450.0</ele><time>2026-04-30T08:31:33.943Z</time></trkpt><trkpt lat="42.0767096" lon="12.0225251"><ele>450.0</ele><time>2026-04-30T08:31:34.917Z</time></trkpt><trkpt lat="42.0767942" lon="12.0225875"><ele>450.0</ele><time>2026-04-30T08:31:36.058Z</time></trkpt><trkpt lat="42.0768595" lon="12.0226172"><ele>448.8</ele><time>2026-04-30T08:31:36.963Z</time></trkpt><trkpt lat="42.0769455" lon="12.0226775"><ele>447.6</ele><time>2026-04-30T08:31:38.069Z</time></trkpt><trkpt lat="42.0770277" lon="12.0226842"><ele>446.4</ele><time>2026-04-30T08:31:39.099Z</time></trkpt><trkpt lat="42.0771798" lon="12.0226861"><ele>445.2</ele><time>2026-04-30T08:31:40.961Z</time></trkpt><trkpt lat="42.0772793" lon="12.02262"><ele>444.0</ele><time>2026-04-30T08:31:41.969Z</time></trkpt><trkpt lat="42.0773677" lon="12.0225673"><ele>445.2</ele><time>2026-04-30T08:31:42.914Z</time></trkpt><trkpt lat="42.0774847" lon="12.0224882"><ele>446.4</ele><time>2026-04-30T08:31:43.954Z</time></trkpt><trkpt lat="42.077564" lon="12.0224161"><ele>447.6</ele><time>2026-04-30T08:31:45.061Z</time></trkpt><trkpt lat="42.077641" lon="12.0223954"><ele>448.8</ele><time>2026-04-30T08:31:46.035Z</time></trkpt><trkpt lat="42.0777228" lon="12.0223862"><ele>450.0</ele><time>2026-04-30T08:31:47.038Z</time></trkpt><trkpt lat="42.0777949" lon="12.0224221"><ele>450.0</ele><time>2026-04-30T08:31:47.993Z</time></trkpt><trkpt lat="42.0778867" lon="12.0224885"><ele>450.0</ele><time>2026-04-30T08:31:49.173Z</time></trkpt><trkpt lat="42.0780042" lon="12.0225794"><ele>450.0</ele><time>2026-04-30T08:31:50.89Z</time></trkpt><trkpt lat="42.0780885" lon="12.0226795"><ele>450.0</ele><time>2026-04-30T08:31:53.049Z</time></trkpt><trkpt lat="42.0782207" lon="12.0228173"><ele>451.0</ele><time>2026-04-30T08:31:56.148Z</time></trkpt><trkpt lat="42.0783123" lon="12.022883"><ele>452.0</ele><time>2026-04-30T08:31:58.013Z</time></trkpt><trkpt lat="42.0784009" lon="12.0229059"><ele>453.0</ele><time>2026-04-30T08:31:59.926Z</time></trkpt><trkpt lat="42.0785215" lon="12.0229497"><ele>454.0</ele><time>2026-04-30T08:32:02.007Z</time></trkpt><trkpt lat="42.0785872" lon="12.0229328"><ele>455.0</ele><time>2026-04-30T08:32:03.103Z</time></trkpt><trkpt lat="42.078699" lon="12.0229034"><ele>455.0</ele><time>2026-04-30T08:32:05.159Z</time></trkpt><trkpt lat="42.0787602" lon="12.0228242"><ele>455.0</ele><time>2026-04-30T08:32:06.957Z</time></trkpt><trkpt lat="42.0788275" lon="12.0227081"><ele>455.0</ele><time>2026-04-30T08:32:09.088Z</time></trkpt><trkpt lat="42.0789137" lon="12.0226348"><ele>455.0</ele><time>2026-04-30T08:32:10.983Z</time></trkpt><trkpt lat="42.0789842" lon="12.0226101"><ele>455.0</ele><time>2026-04-30T08:32:12.039Z</time></trkpt><trkpt lat="42.079138" lon="12.0225426"><ele>453.4</ele><time>2026-04-30T08:32:15.036Z</time></trkpt><trkpt lat="42.0792023" lon="12.0225408"><ele>451.8</ele><time>2026-04-30T08:32:16.171Z</time></trkpt><trkpt lat="42.0793255" lon="12.0225362"><ele>450.20000000000005</ele><time>2026-04-30T08:32:18.121Z</time></trkpt><trkpt lat="42.0794363" lon="12.0224672"><ele>448.6</ele><time>2026-04-30T08:32:20.128Z</time></trkpt><trkpt lat="42.0794941" lon="12.022357"><ele>447.0</ele><time>2026-04-30T08:32:22.08Z</time></trkpt><trkpt lat="42.0795433" lon="12.0222233"><ele>447.0</ele><time>2026-04-30T08:32:24.062Z</time></trkpt><trkpt lat="42.0796223" lon="12.0221064"><ele>447.00000000000006</ele><time>2026-04-30T08:32:26.102Z</time></trkpt><trkpt lat="42.0796618" lon="12.0220392"><ele>447.00000000000006</ele><time>2026-04-30T08:32:27.06Z</time></trkpt><trkpt lat="42.0797248" lon="12.02191"><ele>447.0</ele><time>2026-04-30T08:32:29.182Z</time></trkpt><trkpt lat="42.0797837" lon="12.0218625"><ele>447.0</ele><time>2026-04-30T08:32:31.132Z</time></trkpt><trkpt lat="42.0798693" lon="12.0218245"><ele>442.8</ele><time>2026-04-30T08:32:33.125Z</time></trkpt><trkpt lat="42.0800015" lon="12.0217712"><ele>438.6</ele><time>2026-04-30T08:32:36.066Z</time></trkpt><trkpt lat="42.0800951" lon="12.0217677"><ele>434.40000000000003</ele><time>2026-04-30T08:32:38.072Z</time></trkpt><trkpt lat="42.0801844" lon="12.0217508"><ele>430.20000000000005</ele><time>2026-04-30T08:32:40.093Z</time></trkpt><trkpt lat="42.0802724" lon="12.0217396"><ele>426.0</ele><time>2026-04-30T08:32:41.855Z</time></trkpt><trkpt lat="42.0803416" lon="12.0217084"><ele>426.0</ele><time>2026-04-30T08:32:44.08Z</time></trkpt><trkpt lat="42.0804163" lon="12.0216557"><ele>426.0</ele><time>2026-04-30T08:32:46.137Z</time></trkpt><trkpt lat="42.0805046" lon="12.0215921"><ele>426.0</ele><time>2026-04-30T08:32:48.059Z</time></trkpt><trkpt lat="42.0805413" lon="12.021506"><ele>426.0</ele><time>2026-04-30T08:32:50.901Z</time></trkpt><trkpt lat="42.0806321" lon="12.0214334"><ele>426.0</ele><time>2026-04-30T08:32:53.008Z</time></trkpt><trkpt lat="42.0807288" lon="12.0213678"><ele>424.0</ele><time>2026-04-30T08:32:54.996Z</time></trkpt><trkpt lat="42.0807808" lon="12.0213092"><ele>422.0</ele><time>2026-04-30T08:32:56.005Z</time></trkpt><trkpt lat="42.080862" lon="12.0211866"><ele>420.0</ele><time>2026-04-30T08:32:58.067Z</time></trkpt><trkpt lat="42.080924" lon="12.0210662"><ele>418.0</ele><time>2026-04-30T08:32:59.965Z</time></trkpt><trkpt lat="42.0809921" lon="12.0209038"><ele>416.0</ele><time>2026-04-30T08:33:03.048Z</time></trkpt><trkpt lat="42.081104" lon="12.0207869"><ele>420.20000000000005</ele><time>2026-04-30T08:33:05.998Z</time></trkpt><trkpt lat="42.0811946" lon="12.0207446"><ele>424.40000000000003</ele><time>2026-04-30T08:33:09.116Z</time></trkpt><trkpt lat="42.0812659" lon="12.0207061"><ele>428.6</ele><time>2026-04-30T08:33:10.84Z</time></trkpt><trkpt lat="42.081397" lon="12.0206525"><ele>432.8</ele><time>2026-04-30T08:33:13.017Z</time></trkpt><trkpt lat="42.0815004" lon="12.020554"><ele>437.0</ele><time>2026-04-30T08:33:15.019Z</time></trkpt><trkpt lat="42.0815619" lon="12.0204756"><ele>431.25</ele><time>2026-04-30T08:33:17.703Z</time></trkpt><trkpt lat="42.0816739" lon="12.0203716"><ele>425.5</ele><time>2026-04-30T08:33:18.935Z</time></trkpt><trkpt lat="42.0817991" lon="12.0202774"><ele>419.75</ele><time>2026-04-30T08:33:21.079Z</time></trkpt><trkpt lat="42.0819133" lon="12.0201842"><ele>414.0</ele><time>2026-04-30T08:33:22.96Z</time></trkpt><trkpt lat="42.0819712" lon="12.0201487"><ele>414.0</ele><time>2026-04-30T08:33:23.969Z</time></trkpt><trkpt lat="42.0820365" lon="12.0201059"><ele>414.0</ele><time>2026-04-30T08:33:25.029Z</time></trkpt><trkpt lat="42.0821024" lon="12.0200785"><ele>414.0</ele><time>2026-04-30T08:33:25.937Z</time></trkpt><trkpt lat="42.0821769" lon="12.0200328"><ele>414.0</ele><time>2026-04-30T08:33:27.077Z</time></trkpt><trkpt lat="42.0822648" lon="12.0199013"><ele>414.0</ele><time>2026-04-30T08:33:29.062Z</time></trkpt><trkpt lat="42.0823166" lon="12.0197718"><ele>417.0</ele><time>2026-04-30T08:33:30.992Z</time></trkpt><trkpt lat="42.0823121" lon="12.0195531"><ele>420.0</ele><time>2026-04-30T08:33:33.981Z</time></trkpt><trkpt lat="42.0823265" lon="12.0194068"><ele>423.0</ele><time>2026-04-30T08:33:35.907Z</time></trkpt><trkpt lat="42.0823489" lon="12.0192994"><ele>426.0</ele><time>2026-04-30T08:33:37.117Z</time></trkpt><trkpt lat="42.0824076" lon="12.0191316"><ele>422.0</ele><time>2026-04-30T08:33:38.914Z</time></trkpt><trkpt lat="42.0824375" lon="12.0190293"><ele>418.0</ele><time>2026-04-30T08:33:40.003Z</time></trkpt><trkpt lat="42.082462" lon="12.0189289"><ele>414.0</ele><time>2026-04-30T08:33:41.012Z</time></trkpt><trkpt lat="42.0825071" lon="12.0187826"><ele>410.0</ele><time>2026-04-30T08:33:43.049Z</time></trkpt><trkpt lat="42.082618" lon="12.0187157"><ele>406.0</ele><time>2026-04-30T08:33:44.929Z</time></trkpt><trkpt lat="42.0827606" lon="12.0186686"><ele>406.0</ele><time>2026-04-30T08:33:47.034Z</time></trkpt><trkpt lat="42.0829421" lon="12.0185946"><ele>406.0</ele><time>2026-04-30T08:33:50.036Z</time></trkpt><trkpt lat="42.0830353" lon="12.0184978"><ele>406.0</ele><time>2026-04-30T08:33:52.039Z</time></trkpt><trkpt lat="42.083113" lon="12.0184893"><ele>406.0</ele><time>2026-04-30T08:33:53.94Z</time></trkpt><trkpt lat="42.0831837" lon="12.0185356"><ele>406.0</ele><time>2026-04-30T08:33:56.091Z</time></trkpt><trkpt lat="42.0831526" lon="12.0187577"><ele>406.0</ele><time>2026-04-30T08:33:58.929Z</time></trkpt><trkpt lat="42.083108" lon="12.0188632"><ele>406.0</ele><time>2026-04-30T08:33:59.885Z</time></trkpt><trkpt lat="42.0830605" lon="12.0189647"><ele>406.0</ele><time>2026-04-30T08:34:00.867Z</time></trkpt><trkpt lat="42.0830087" lon="12.0190675"><ele>406.0</ele><time>2026-04-30T08:34:01.983Z</time></trkpt><trkpt lat="42.0829692" lon="12.0191748"><ele>405.20000000000005</ele><time>2026-04-30T08:34:03.165Z</time></trkpt><trkpt lat="42.0829572" lon="12.0192827"><ele>404.40000000000003</ele><time>2026-04-30T08:34:04.205Z</time></trkpt><trkpt lat="42.082989" lon="12.0194864"><ele>403.6</ele><time>2026-04-30T08:34:06.069Z</time></trkpt><trkpt lat="42.0830233" lon="12.0195886"><ele>402.8</ele><time>2026-04-30T08:34:07.036Z</time></trkpt><trkpt lat="42.0830459" lon="12.019673"><ele>402.0</ele><time>2026-04-30T08:34:07.967Z</time></trkpt><trkpt lat="42.0830454" lon="12.0197762"><ele>402.0</ele><time>2026-04-30T08:34:09.104Z</time></trkpt><trkpt lat="42.0829707" lon="12.0199345"><ele>402.0</ele><time>2026-04-30T08:34:11.17Z</time></trkpt><trkpt lat="42.0828959" lon="12.0200167"><ele>402.0</ele><time>2026-04-30T08:34:12.178Z</time></trkpt><trkpt lat="42.0828143" lon="12.0201458"><ele>402.0</ele><time>2026-04-30T08:34:13.946Z</time></trkpt><trkpt lat="42.0827528" lon="12.0202136"><ele>402.0</ele><time>2026-04-30T08:34:14.948Z</time></trkpt><trkpt lat="42.0826874" lon="12.0202746"><ele>400.40000000000003</ele><time>2026-04-30T08:34:15.961Z</time></trkpt><trkpt lat="42.082549" lon="12.0204114"><ele>398.8</ele><time>2026-04-30T08:34:17.91Z</time></trkpt><trkpt lat="42.0824934" lon="12.0204997"><ele>397.2</ele><time>2026-04-30T08:34:19.036Z</time></trkpt><trkpt lat="42.0824257" lon="12.0205845"><ele>395.6</ele><time>2026-04-30T08:34:20.235Z</time></trkpt><trkpt lat="42.0823627" lon="12.020643"><ele>394.0</ele><time>2026-04-30T08:34:21.232Z</time></trkpt><trkpt lat="42.0822132" lon="12.0207255"><ele>394.1666666666667</ele><time>2026-04-30T08:34:23.08Z</time></trkpt><trkpt lat="42.0821256" lon="12.0207705"><ele>394.33333333333337</ele><time>2026-04-30T08:34:24.098Z</time></trkpt><trkpt lat="42.0820395" lon="12.0208154"><ele>394.5</ele><time>2026-04-30T08:34:25.112Z</time></trkpt><trkpt lat="42.0819592" lon="12.0208656"><ele>394.66666666666663</ele><time>2026-04-30T08:34:26.096Z</time></trkpt><trkpt lat="42.0819016" lon="12.0209183"><ele>394.8333333333333</ele><time>2026-04-30T08:34:27.012Z</time></trkpt><trkpt lat="42.0818458" lon="12.0209846"><ele>395.0</ele><time>2026-04-30T08:34:28.084Z</time></trkpt><trkpt lat="42.0817918" lon="12.0210801"><ele>395.0</ele><time>2026-04-30T08:34:30.63Z</time></trkpt><trkpt lat="42.0816921" lon="12.0212502"><ele>395.0</ele><time>2026-04-30T08:34:31.852Z</time></trkpt><trkpt lat="42.0816457" lon="12.021352"><ele>395.0</ele><time>2026-04-30T08:34:32.984Z</time></trkpt><trkpt lat="42.0816096" lon="12.0214505"><ele>395.0</ele><time>2026-04-30T08:34:34.158Z</time></trkpt><trkpt lat="42.081587" lon="12.0216475"><ele>397.5</ele><time>2026-04-30T08:34:36.081Z</time></trkpt><trkpt lat="42.0815798" lon="12.0217494"><ele>400.0</ele><time>2026-04-30T08:34:37.06Z</time></trkpt><trkpt lat="42.0816487" lon="12.0218892"><ele>402.5</ele><time>2026-04-30T08:34:39.04Z</time></trkpt><trkpt lat="42.0817744" lon="12.0220889"><ele>405.0</ele><time>2026-04-30T08:34:41.023Z</time></trkpt><trkpt lat="42.0817899" lon="12.0222"><ele>399.75</ele><time>2026-04-30T08:34:42.122Z</time></trkpt><trkpt lat="42.0817676" lon="12.0224453"><ele>394.5</ele><time>2026-04-30T08:34:44.083Z</time></trkpt><trkpt lat="42.0817773" lon="12.0225695"><ele>389.25</ele><time>2026-04-30T08:34:45.162Z</time></trkpt><trkpt lat="42.0817695" lon="12.0226596"><ele>384.0</ele><time>2026-04-30T08:34:46.119Z</time></trkpt><trkpt lat="42.08171" lon="12.0228252"><ele>383.1666666666667</ele><time>2026-04-30T08:34:48.1Z</time></trkpt><trkpt lat="42.0816663" lon="12.0228984"><ele>382.3333333333333</ele><time>2026-04-30T08:34:49.069Z</time></trkpt><trkpt lat="42.0816424" lon="12.0230883"><ele>381.5</ele><time>2026-04-30T08:34:51.053Z</time></trkpt><trkpt lat="42.0816821" lon="12.0231743"><ele>380.66666666666663</ele><time>2026-04-30T08:34:52.189Z</time></trkpt><trkpt lat="42.0817319" lon="12.0232656"><ele>379.8333333333333</ele><time>2026-04-30T08:34:53.177Z</time></trkpt><trkpt lat="42.081757" lon="12.0233558"><ele>379.0</ele><time>2026-04-30T08:34:54.098Z</time></trkpt><trkpt lat="42.0817636" lon="12.0234816"><ele>378.5</ele><time>2026-04-30T08:34:55.12Z</time></trkpt><trkpt lat="42.0817675" lon="12.0236221"><ele>378.0</ele><time>2026-04-30T08:34:56.188Z</time></trkpt><trkpt lat="42.0817861" lon="12.0237262"><ele>377.5</ele><time>2026-04-30T08:34:57.115Z</time></trkpt><trkpt lat="42.0818101" lon="12.0238306"><ele>377.0</ele><time>2026-04-30T08:34:58.016Z</time></trkpt><trkpt lat="42.0818226" lon="12.0239699"><ele>376.5</ele><time>2026-04-30T08:34:59.101Z</time></trkpt><trkpt lat="42.0818169" lon="12.0240774"><ele>376.0</ele><time>2026-04-30T08:35:00.069Z</time></trkpt><trkpt lat="42.0818183" lon="12.0242071"><ele>375.5</ele><time>2026-04-30T08:35:01.184Z</time></trkpt><trkpt lat="42.0818352" lon="12.024421"><ele>375.0</ele><time>2026-04-30T08:35:03.124Z</time></trkpt><trkpt lat="42.0818702" lon="12.0245082"><ele>374.5</ele><time>2026-04-30T08:35:04.189Z</time></trkpt><trkpt lat="42.0819963" lon="12.0246308"><ele>374.0</ele><time>2026-04-30T08:35:06.199Z</time></trkpt><trkpt lat="42.0821073" lon="12.0247255"><ele>374.0</ele><time>2026-04-30T08:35:08.094Z</time></trkpt><trkpt lat="42.0821441" lon="12.0248325"><ele>374.0</ele><time>2026-04-30T08:35:09.175Z</time></trkpt><trkpt lat="42.0821899" lon="12.0250817"><ele>374.0</ele><time>2026-04-30T08:35:11.16Z</time></trkpt><trkpt lat="42.0821763" lon="12.0252679"><ele>374.0</ele><time>2026-04-30T08:35:12.992Z</time></trkpt><trkpt lat="42.0821404" lon="12.0253476"><ele>373.79999999999995</ele><time>2026-04-30T08:35:14.082Z</time></trkpt><trkpt lat="42.0821189" lon="12.0254367"><ele>373.59999999999997</ele><time>2026-04-30T08:35:15.093Z</time></trkpt><trkpt lat="42.0821024" lon="12.0255518"><ele>373.4</ele><time>2026-04-30T08:35:16.08Z</time></trkpt><trkpt lat="42.0820983" lon="12.0256752"><ele>373.2</ele><time>2026-04-30T08:35:17.004Z</time></trkpt><trkpt lat="42.0820929" lon="12.0258055"><ele>373.0</ele><time>2026-04-30T08:35:18.186Z</time></trkpt><trkpt lat="42.0822431" lon="12.0259043"><ele>371.5</ele><time>2026-04-30T08:35:21.116Z</time></trkpt><trkpt lat="42.0823919" lon="12.025928"><ele>370.0</ele><time>2026-04-30T08:35:23.18Z</time></trkpt><trkpt lat="42.082443" lon="12.0260396"><ele>368.5</ele><time>2026-04-30T08:35:25.148Z</time></trkpt><trkpt lat="42.0824439" lon="12.0262188"><ele>367.0</ele><time>2026-04-30T08:35:28.071Z</time></trkpt><trkpt lat="42.0824365" lon="12.0263214"><ele>367.0</ele><time>2026-04-30T08:35:29.976Z</time></trkpt><trkpt lat="42.0824153" lon="12.0264672"><ele>367.0</ele><time>2026-04-30T08:35:32.098Z</time></trkpt><trkpt lat="42.0823845" lon="12.0266355"><ele>367.0</ele><time>2026-04-30T08:35:34.091Z</time></trkpt><trkpt lat="42.0823943" lon="12.0267378"><ele>367.0</ele><time>2026-04-30T08:35:35.243Z</time></trkpt><trkpt lat="42.0824316" lon="12.026913"><ele>362.75</ele><time>2026-04-30T08:35:36.892Z</time></trkpt><trkpt lat="42.0824717" lon="12.0270474"><ele>358.5</ele><time>2026-04-30T08:35:38.108Z</time></trkpt><trkpt lat="42.0825226" lon="12.0271762"><ele>354.25</ele><time>2026-04-30T08:35:39.24Z</time></trkpt><trkpt lat="42.0826277" lon="12.0273709"><ele>350.0</ele><time>2026-04-30T08:35:41.188Z</time></trkpt><trkpt lat="42.0826912" lon="12.0274371"><ele>348.8</ele><time>2026-04-30T08:35:42.179Z</time></trkpt><trkpt lat="42.0827954" lon="12.027515"><ele>347.6</ele><time>2026-04-30T08:35:44.186Z</time></trkpt><trkpt lat="42.0828992" lon="12.02755"><ele>346.4</ele><time>2026-04-30T08:35:46.235Z</time></trkpt><trkpt lat="42.0830203" lon="12.0275278"><ele>345.2</ele><time>2026-04-30T08:35:48.199Z</time></trkpt><trkpt lat="42.0830856" lon="12.0275042"><ele>344.0</ele><time>2026-04-30T08:35:49.102Z</time></trkpt><trkpt lat="42.0831534" lon="12.0274875"><ele>344.0</ele><time>2026-04-30T08:35:50.173Z</time></trkpt><trkpt lat="42.0832147" lon="12.0275529"><ele>344.0</ele><time>2026-04-30T08:35:52.091Z</time></trkpt><trkpt lat="42.0832378" lon="12.0277255"><ele>344.0</ele><time>2026-04-30T08:35:54.16Z</time></trkpt><trkpt lat="42.0832193" lon="12.027893"><ele>344.0</ele><time>2026-04-30T08:35:55.988Z</time></trkpt><trkpt lat="42.0831799" lon="12.0279994"><ele>344.0</ele><time>2026-04-30T08:35:57.15Z</time></trkpt><trkpt lat="42.0831412" lon="12.0281292"><ele>344.0</ele><time>2026-04-30T08:35:58.873Z</time></trkpt><trkpt lat="42.0831297" lon="12.0282138"><ele>344.0</ele><time>2026-04-30T08:36:01.019Z</time></trkpt><trkpt lat="42.0830766" lon="12.0281223"><ele>344.0</ele><time>2026-04-30T08:36:04.207Z</time></trkpt><trkpt lat="42.0831337" lon="12.0280614"><ele>344.0</ele><time>2026-04-30T08:36:05.966Z</time></trkpt><trkpt lat="42.0831963" lon="12.0279537"><ele>344.0</ele><time>2026-04-30T08:36:08.12Z</time></trkpt><trkpt lat="42.0833045" lon="12.0278898"><ele>344.0</ele><time>2026-04-30T08:36:10.028Z</time></trkpt><trkpt lat="42.0833896" lon="12.0277876"><ele>343.79999999999995</ele><time>2026-04-30T08:36:12.028Z</time></trkpt><trkpt lat="42.0834934" lon="12.0277233"><ele>343.59999999999997</ele><time>2026-04-30T08:36:14.088Z</time></trkpt><trkpt lat="42.0836004" lon="12.0276256"><ele>343.4</ele><time>2026-04-30T08:36:15.922Z</time></trkpt><trkpt lat="42.0836639" lon="12.0275698"><ele>343.2</ele><time>2026-04-30T08:36:17.124Z</time></trkpt><trkpt lat="42.083723" lon="12.02753"><ele>343.0</ele><time>2026-04-30T08:36:18.112Z</time></trkpt><trkpt lat="42.0838099" lon="12.0274246"><ele>343.0</ele><time>2026-04-30T08:36:19.89Z</time></trkpt><trkpt lat="42.0838591" lon="12.0273428"><ele>343.0</ele><time>2026-04-30T08:36:20.918Z</time></trkpt><trkpt lat="42.0839261" lon="12.0272384"><ele>343.0</ele><time>2026-04-30T08:36:23.223Z</time></trkpt><trkpt lat="42.0839902" lon="12.0271599"><ele>343.0</ele><time>2026-04-30T08:36:25.134Z</time></trkpt><trkpt lat="42.0840215" lon="12.0270447"><ele>343.0</ele><time>2026-04-30T08:36:26.908Z</time></trkpt><trkpt lat="42.0841188" lon="12.0268412"><ele>340.25</ele><time>2026-04-30T08:36:30.259Z</time></trkpt><trkpt lat="42.0841937" lon="12.0267204"><ele>337.5</ele><time>2026-04-30T08:36:32.13Z</time></trkpt><trkpt lat="42.0843093" lon="12.0266382"><ele>334.75</ele><time>2026-04-30T08:36:34.081Z</time></trkpt><trkpt lat="42.0843961" lon="12.0265978"><ele>332.0</ele><time>2026-04-30T08:36:35.195Z</time></trkpt><trkpt lat="42.0845055" lon="12.0265501"><ele>332.0</ele><time>2026-04-30T08:36:36.908Z</time></trkpt><trkpt lat="42.084569" lon="12.0265295"><ele>332.0</ele><time>2026-04-30T08:36:38.058Z</time></trkpt><trkpt lat="42.084622" lon="12.0264696"><ele>332.0</ele><time>2026-04-30T08:36:40.64Z</time></trkpt><trkpt lat="42.084699" lon="12.0263249"><ele>332.0</ele><time>2026-04-30T08:36:42.072Z</time></trkpt><trkpt lat="42.0847818" lon="12.0262166"><ele>332.0</ele><time>2026-04-30T08:36:44.05Z</time></trkpt><trkpt lat="42.084847" lon="12.0261429"><ele>332.0</ele><time>2026-04-30T08:36:45.139Z</time></trkpt><trkpt lat="42.0849279" lon="12.0260407"><ele>332.0</ele><time>2026-04-30T08:36:46.233Z</time></trkpt><trkpt lat="42.0849959" lon="12.0258783"><ele>332.0</ele><time>2026-04-30T08:36:48.189Z</time></trkpt><trkpt lat="42.0849938" lon="12.0256905"><ele>332.0</ele><time>2026-04-30T08:36:49.913Z</time></trkpt><trkpt lat="42.0850153" lon="12.0255513"><ele>331.0</ele><time>2026-04-30T08:36:51.789Z</time></trkpt><trkpt lat="42.0850647" lon="12.0254646"><ele>330.0</ele><time>2026-04-30T08:36:53.135Z</time></trkpt><trkpt lat="42.0851192" lon="12.025319"><ele>329.0</ele><time>2026-04-30T08:36:55.215Z</time></trkpt><trkpt lat="42.0852076" lon="12.0252376"><ele>328.0</ele><time>2026-04-30T08:36:57.84Z</time></trkpt><trkpt lat="42.0852926" lon="12.0252366"><ele>327.0</ele><time>2026-04-30T08:36:59.843Z</time></trkpt><trkpt lat="42.0853881" lon="12.0251809"><ele>327.0</ele><time>2026-04-30T08:37:02.282Z</time></trkpt><trkpt lat="42.0854478" lon="12.0251185"><ele>327.0</ele><time>2026-04-30T08:37:03.917Z</time></trkpt><trkpt lat="42.0854889" lon="12.0249653"><ele>327.0</ele><time>2026-04-30T08:37:05.983Z</time></trkpt><trkpt lat="42.0855214" lon="12.024856"><ele>327.0</ele><time>2026-04-30T08:37:07.108Z</time></trkpt><trkpt lat="42.0855672" lon="12.0246969"><ele>327.0</ele><time>2026-04-30T08:37:09.103Z</time></trkpt><trkpt lat="42.0856155" lon="12.0245814"><ele>327.6</ele><time>2026-04-30T08:37:10.976Z</time></trkpt><trkpt lat="42.0856478" lon="12.024506"><ele>328.20000000000005</ele><time>2026-04-30T08:37:11.965Z</time></trkpt><trkpt lat="42.0857062" lon="12.0243346"><ele>328.8</ele><time>2026-04-30T08:37:14.07Z</time></trkpt><trkpt lat="42.0857936" lon="12.0241944"><ele>329.4</ele><time>2026-04-30T08:37:16.051Z</time></trkpt><trkpt lat="42.0858447" lon="12.024122"><ele>330.0</ele><time>2026-04-30T08:37:17.078Z</time></trkpt><trkpt lat="42.08591" lon="12.0240146"><ele>327.25</ele><time>2026-04-30T08:37:19.061Z</time></trkpt><trkpt lat="42.0860106" lon="12.023897"><ele>324.5</ele><time>2026-04-30T08:37:21.059Z</time></trkpt><trkpt lat="42.0861353" lon="12.0238376"><ele>321.75</ele><time>2026-04-30T08:37:23.055Z</time></trkpt><trkpt lat="42.0861979" lon="12.0237788"><ele>319.0</ele><time>2026-04-30T08:37:24.081Z</time></trkpt><trkpt lat="42.0862768" lon="12.0236683"><ele>319.0</ele><time>2026-04-30T08:37:26.029Z</time></trkpt><trkpt lat="42.0863121" lon="12.0235974"><ele>319.0</ele><time>2026-04-30T08:37:27.009Z</time></trkpt><trkpt lat="42.0863861" lon="12.0234703"><ele>319.0</ele><time>2026-04-30T08:37:29.009Z</time></trkpt><trkpt lat="42.0864772" lon="12.0233519"><ele>319.0</ele><time>2026-04-30T08:37:31.207Z</time></trkpt><trkpt lat="42.0865403" lon="12.0232625"><ele>319.0</ele><time>2026-04-30T08:37:32.927Z</time></trkpt><trkpt lat="42.0866341" lon="12.0232094"><ele>317.66666666666663</ele><time>2026-04-30T08:37:35.105Z</time></trkpt><trkpt lat="42.0867626" lon="12.023106"><ele>316.3333333333333</ele><time>2026-04-30T08:37:38.027Z</time></trkpt><trkpt lat="42.0868978" lon="12.0229617"><ele>315.0</ele><time>2026-04-30T08:37:40.929Z</time></trkpt><trkpt lat="42.0869961" lon="12.0228145"><ele>315.0</ele><time>2026-04-30T08:37:43.88Z</time></trkpt><trkpt lat="42.0870753" lon="12.0226569"><ele>315.0</ele><time>2026-04-30T08:37:47.039Z</time></trkpt><trkpt lat="42.0870667" lon="12.0225004"><ele>315.0</ele><time>2026-04-30T08:37:50.985Z</time></trkpt><trkpt lat="42.0870748" lon="12.0223868"><ele>315.0</ele><time>2026-04-30T08:37:53.144Z</time></trkpt><trkpt lat="42.08718" lon="12.02234"><ele>315.8</ele><time>2026-04-30T08:37:56.013Z</time></trkpt><trkpt lat="42.0872521" lon="12.0223542"><ele>316.6</ele><time>2026-04-30T08:37:57.908Z</time></trkpt><trkpt lat="42.0873471" lon="12.0223188"><ele>317.4</ele><time>2026-04-30T08:38:00.071Z</time></trkpt><trkpt lat="42.0874198" lon="12.0222572"><ele>318.2</ele><time>2026-04-30T08:38:01.185Z</time></trkpt><trkpt lat="42.0875231" lon="12.0222197"><ele>319.0</ele><time>2026-04-30T08:38:03.09Z</time></trkpt><trkpt lat="42.0876368" lon="12.0222157"><ele>319.0</ele><time>2026-04-30T08:38:05.939Z</time></trkpt><trkpt lat="42.0877214" lon="12.0221778"><ele>319.0</ele><time>2026-04-30T08:38:07.968Z</time></trkpt><trkpt lat="42.0878052" lon="12.0221052"><ele>319.0</ele><time>2026-04-30T08:38:10.112Z</time></trkpt><trkpt lat="42.0878991" lon="12.0220729"><ele>319.0</ele><time>2026-04-30T08:38:11.885Z</time></trkpt><trkpt lat="42.0879659" lon="12.0220472"><ele>319.0</ele><time>2026-04-30T08:38:13.068Z</time></trkpt><trkpt lat="42.0880562" lon="12.0219987"><ele>319.0</ele><time>2026-04-30T08:38:15.023Z</time></trkpt><trkpt lat="42.0881677" lon="12.0219603"><ele>319.0</ele><time>2026-04-30T08:38:17.023Z</time></trkpt><trkpt lat="42.0882665" lon="12.0219317"><ele>319.0</ele><time>2026-04-30T08:38:19.005Z</time></trkpt><trkpt lat="42.0883719" lon="12.0219427"><ele>319.0</ele><time>2026-04-30T08:38:21.198Z</time></trkpt><trkpt lat="42.0884924" lon="12.0218711"><ele>319.8333333333333</ele><time>2026-04-30T08:38:23.048Z</time></trkpt><trkpt lat="42.0885621" lon="12.0217959"><ele>320.66666666666663</ele><time>2026-04-30T08:38:24.017Z</time></trkpt><trkpt lat="42.0886136" lon="12.0217442"><ele>321.5</ele><time>2026-04-30T08:38:25.016Z</time></trkpt><trkpt lat="42.0886706" lon="12.0216973"><ele>322.3333333333333</ele><time>2026-04-30T08:38:26.144Z</time></trkpt><trkpt lat="42.0887342" lon="12.0216685"><ele>323.1666666666667</ele><time>2026-04-30T08:38:27.184Z</time></trkpt><trkpt lat="42.0888373" lon="12.0216114"><ele>324.0</ele><time>2026-04-30T08:38:29.151Z</time></trkpt><trkpt lat="42.0889138" lon="12.0215489"><ele>324.0</ele><time>2026-04-30T08:38:31.048Z</time></trkpt><trkpt lat="42.0890164" lon="12.0214941"><ele>324.0</ele><time>2026-04-30T08:38:32.991Z</time></trkpt><trkpt lat="42.0891436" lon="12.0215507"><ele>324.0</ele><time>2026-04-30T08:38:35.043Z</time></trkpt><trkpt lat="42.0892725" lon="12.02164"><ele>324.0</ele><time>2026-04-30T08:38:37.096Z</time></trkpt><trkpt lat="42.0893895" lon="12.0217294"><ele>318.5</ele><time>2026-04-30T08:38:38.943Z</time></trkpt><trkpt lat="42.0894951" lon="12.0217879"><ele>313.0</ele><time>2026-04-30T08:38:40.922Z</time></trkpt><trkpt lat="42.0895607" lon="12.0218205"><ele>307.5</ele><time>2026-04-30T08:38:42.071Z</time></trkpt><trkpt lat="42.0896635" lon="12.0218763"><ele>302.0</ele><time>2026-04-30T08:38:43.975Z</time></trkpt><trkpt lat="42.0897368" lon="12.0218764"><ele>296.5</ele><time>2026-04-30T08:38:47.161Z</time></trkpt><trkpt lat="42.0898053" lon="12.0218926"><ele>291.0</ele><time>2026-04-30T08:38:49.201Z</time></trkpt><trkpt lat="42.0899263" lon="12.021944"><ele>289.3333333333333</ele><time>2026-04-30T08:38:50.934Z</time></trkpt><trkpt lat="42.0899882" lon="12.0219759"><ele>287.6666666666667</ele><time>2026-04-30T08:38:51.926Z</time></trkpt><trkpt lat="42.0900484" lon="12.0220169"><ele>286.0</ele><time>2026-04-30T08:38:53Z</time></trkpt><trkpt lat="42.0901259" lon="12.0220808"><ele>284.33333333333337</ele><time>2026-04-30T08:38:54.978Z</time></trkpt><trkpt lat="42.0901649" lon="12.0221496"><ele>282.6666666666667</ele><time>2026-04-30T08:38:56.112Z</time></trkpt><trkpt lat="42.0902716" lon="12.0222534"><ele>281.0</ele><time>2026-04-30T08:38:58.01Z</time></trkpt><trkpt lat="42.0903334" lon="12.0223036"><ele>281.0</ele><time>2026-04-30T08:38:59.082Z</time></trkpt><trkpt lat="42.0903861" lon="12.0223644"><ele>281.0</ele><time>2026-04-30T08:39:00.1Z</time></trkpt><trkpt lat="42.0904469" lon="12.022422"><ele>281.0</ele><time>2026-04-30T08:39:01.039Z</time></trkpt><trkpt lat="42.0905126" lon="12.0224683"><ele>281.0</ele><time>2026-04-30T08:39:02.071Z</time></trkpt><trkpt lat="42.0905605" lon="12.0225299"><ele>281.0</ele><time>2026-04-30T08:39:03.006Z</time></trkpt><trkpt lat="42.0906278" lon="12.022576"><ele>281.0</ele><time>2026-04-30T08:39:04.104Z</time></trkpt><trkpt lat="42.0907682" lon="12.0225943"><ele>278.1666666666667</ele><time>2026-04-30T08:39:05.936Z</time></trkpt><trkpt lat="42.0908367" lon="12.0225988"><ele>275.33333333333337</ele><time>2026-04-30T08:39:07.016Z</time></trkpt><trkpt lat="42.0909016" lon="12.0226098"><ele>272.5</ele><time>2026-04-30T08:39:08.089Z</time></trkpt><trkpt lat="42.0909835" lon="12.0226381"><ele>269.6666666666667</ele><time>2026-04-30T08:39:10.138Z</time></trkpt><trkpt lat="42.0910706" lon="12.0226598"><ele>266.8333333333333</ele><time>2026-04-30T08:39:12.087Z</time></trkpt><trkpt lat="42.0911399" lon="12.0227127"><ele>264.0</ele><time>2026-04-30T08:39:13.977Z</time></trkpt><trkpt lat="42.091224" lon="12.0227267"><ele>264.0</ele><time>2026-04-30T08:39:16.041Z</time></trkpt><trkpt lat="42.0913387" lon="12.0227368"><ele>264.0</ele><time>2026-04-30T08:39:18.205Z</time></trkpt><trkpt lat="42.0914739" lon="12.022759"><ele>264.0</ele><time>2026-04-30T08:39:20.103Z</time></trkpt><trkpt lat="42.0916053" lon="12.0227999"><ele>264.0</ele><time>2026-04-30T08:39:22.057Z</time></trkpt><trkpt lat="42.0917248" lon="12.0228041"><ele>261.5</ele><time>2026-04-30T08:39:24.061Z</time></trkpt><trkpt lat="42.0918336" lon="12.0227754"><ele>259.0</ele><time>2026-04-30T08:39:26.11Z</time></trkpt><trkpt lat="42.0918982" lon="12.0227598"><ele>256.5</ele><time>2026-04-30T08:39:27.115Z</time></trkpt><trkpt lat="42.0919642" lon="12.0227501"><ele>254.0</ele><time>2026-04-30T08:39:28.208Z</time></trkpt><trkpt lat="42.0920293" lon="12.0228521"><ele>251.5</ele><time>2026-04-30T08:39:31.19Z</time></trkpt><trkpt lat="42.0919901" lon="12.0229578"><ele>249.0</ele><time>2026-04-30T08:39:32.988Z</time></trkpt><trkpt lat="42.0919699" lon="12.0230406"><ele>249.0</ele><time>2026-04-30T08:39:33.932Z</time></trkpt><trkpt lat="42.0919668" lon="12.0231787"><ele>248.99999999999997</ele><time>2026-04-30T08:39:36.13Z</time></trkpt><trkpt lat="42.0920367" lon="12.0233291"><ele>248.99999999999997</ele><time>2026-04-30T08:39:37.886Z</time></trkpt><trkpt lat="42.0920853" lon="12.0234119"><ele>249.0</ele><time>2026-04-30T08:39:38.915Z</time></trkpt><trkpt lat="42.0921361" lon="12.023471"><ele>249.0</ele><time>2026-04-30T08:39:40.201Z</time></trkpt><trkpt lat="42.0922038" lon="12.0235499"><ele>248.0</ele><time>2026-04-30T08:39:42.076Z</time></trkpt><trkpt lat="42.0923142" lon="12.0236231"><ele>247.0</ele><time>2026-04-30T08:39:44.035Z</time></trkpt><trkpt lat="42.0923726" lon="12.0236919"><ele>246.0</ele><time>2026-04-30T08:39:45.972Z</time></trkpt><trkpt lat="42.0924204" lon="12.0239558"><ele>245.0</ele><time>2026-04-30T08:39:49.064Z</time></trkpt><trkpt lat="42.0924445" lon="12.0241591"><ele>245.4</ele><time>2026-04-30T08:39:51.064Z</time></trkpt><trkpt lat="42.09244" lon="12.024257"><ele>245.8</ele><time>2026-04-30T08:39:51.978Z</time></trkpt><trkpt lat="42.0924157" lon="12.0243644"><ele>246.2</ele><time>2026-04-30T08:39:52.892Z</time></trkpt><trkpt lat="42.092385" lon="12.0245081"><ele>246.6</ele><time>2026-04-30T08:39:53.909Z</time></trkpt><trkpt lat="42.0923631" lon="12.0247005"><ele>247.0</ele><time>2026-04-30T08:39:55.089Z</time></trkpt><trkpt lat="42.0923467" lon="12.0249011"><ele>247.39999999999998</ele><time>2026-04-30T08:39:57.067Z</time></trkpt><trkpt lat="42.0923545" lon="12.0250237"><ele>247.79999999999998</ele><time>2026-04-30T08:39:58.879Z</time></trkpt><trkpt lat="42.0923942" lon="12.0251066"><ele>248.2</ele><time>2026-04-30T08:40:00.909Z</time></trkpt><trkpt lat="42.0925198" lon="12.0251727"><ele>248.6</ele><time>2026-04-30T08:40:03.939Z</time></trkpt><trkpt lat="42.0926033" lon="12.025196"><ele>249.0</ele><time>2026-04-30T08:40:04.927Z</time></trkpt><trkpt lat="42.0926735" lon="12.0252121"><ele>245.0</ele><time>2026-04-30T08:40:05.918Z</time></trkpt><trkpt lat="42.0928079" lon="12.0251131"><ele>241.0</ele><time>2026-04-30T08:40:08.958Z</time></trkpt><trkpt lat="42.092903" lon="12.0250946"><ele>237.0</ele><time>2026-04-30T08:40:10.942Z</time></trkpt><trkpt lat="42.0929769" lon="12.0250688"><ele>233.0</ele><time>2026-04-30T08:40:12.051Z</time></trkpt><trkpt lat="42.0931148" lon="12.0250432"><ele>235.5</ele><time>2026-04-30T08:40:14.013Z</time></trkpt><trkpt lat="42.0933704" lon="12.0250491"><ele>238.0</ele><time>2026-04-30T08:40:17.114Z</time></trkpt><trkpt lat="42.093448" lon="12.0250345"><ele>240.5</ele><time>2026-04-30T08:40:18.07Z</time></trkpt><trkpt lat="42.0935202" lon="12.0250296"><ele>243.0</ele><time>2026-04-30T08:40:19.021Z</time></trkpt><trkpt lat="42.0936533" lon="12.0250172"><ele>243.0</ele><time>2026-04-30T08:40:21.03Z</time></trkpt><trkpt lat="42.0937398" lon="12.0250174"><ele>243.0</ele><time>2026-04-30T08:40:22.114Z</time></trkpt><trkpt lat="42.0938144" lon="12.0250218"><ele>243.0</ele><time>2026-04-30T08:40:23.144Z</time></trkpt><trkpt lat="42.0938797" lon="12.0250316"><ele>243.0</ele><time>2026-04-30T08:40:24.057Z</time></trkpt><trkpt lat="42.0939515" lon="12.0250652"><ele>243.0</ele><time>2026-04-30T08:40:25.257Z</time></trkpt><trkpt lat="42.0940632" lon="12.0250814"><ele>243.0</ele><time>2026-04-30T08:40:27.07Z</time></trkpt><trkpt lat="42.0941271" lon="12.0250672"><ele>247.25</ele><time>2026-04-30T08:40:28.057Z</time></trkpt><trkpt lat="42.0942561" lon="12.0249426"><ele>251.5</ele><time>2026-04-30T08:40:30.098Z</time></trkpt><trkpt lat="42.0943762" lon="12.0248142"><ele>255.75</ele><time>2026-04-30T08:40:31.967Z</time></trkpt><trkpt lat="42.0944562" lon="12.0247677"><ele>260.0</ele><time>2026-04-30T08:40:33.06Z</time></trkpt><trkpt lat="42.0945213" lon="12.0247247"><ele>260.0</ele><time>2026-04-30T08:40:33.978Z</time></trkpt><trkpt lat="42.0946095" lon="12.0246602"><ele>260.0</ele><time>2026-04-30T08:40:34.987Z</time></trkpt><trkpt lat="42.0947176" lon="12.024555"><ele>260.0</ele><time>2026-04-30T08:40:36.101Z</time></trkpt><trkpt lat="42.0948618" lon="12.0243694"><ele>260.0</ele><time>2026-04-30T08:40:37.966Z</time></trkpt><trkpt lat="42.0949374" lon="12.0243018"><ele>261.5</ele><time>2026-04-30T08:40:39.069Z</time></trkpt><trkpt lat="42.0950097" lon="12.0242684"><ele>263.0</ele><time>2026-04-30T08:40:40.038Z</time></trkpt><trkpt lat="42.0951276" lon="12.0242342"><ele>264.5</ele><time>2026-04-30T08:40:41.253Z</time></trkpt><trkpt lat="42.0953632" lon="12.0241489"><ele>266.0</ele><time>2026-04-30T08:40:44.003Z</time></trkpt><trkpt lat="42.0954231" lon="12.0240689"><ele>266.8</ele><time>2026-04-30T08:40:45.02Z</time></trkpt><trkpt lat="42.0954949" lon="12.0239498"><ele>267.6</ele><time>2026-04-30T08:40:46.076Z</time></trkpt><trkpt lat="42.0955516" lon="12.0238847"><ele>268.4</ele><time>2026-04-30T08:40:47.057Z</time></trkpt><trkpt lat="42.0956278" lon="12.023832"><ele>269.2</ele><time>2026-04-30T08:40:48.07Z</time></trkpt><trkpt lat="42.095725" lon="12.0238029"><ele>270.0</ele><time>2026-04-30T08:40:49.068Z</time></trkpt><trkpt lat="42.0958396" lon="12.0237782"><ele>273.0</ele><time>2026-04-30T08:40:50.092Z</time></trkpt><trkpt lat="42.0959321" lon="12.0237859"><ele>276.0</ele><time>2026-04-30T08:40:51.081Z</time></trkpt><trkpt lat="42.096032" lon="12.0237862"><ele>279.0</ele><time>2026-04-30T08:40:52.012Z</time></trkpt><trkpt lat="42.0961559" lon="12.0237415"><ele>282.0</ele><time>2026-04-30T08:40:53.058Z</time></trkpt><trkpt lat="42.0964167" lon="12.0236102"><ele>285.0</ele><time>2026-04-30T08:40:55.117Z</time></trkpt><trkpt lat="42.0966953" lon="12.0234894"><ele>288.0</ele><time>2026-04-30T08:40:57.122Z</time></trkpt><trkpt lat="42.0967911" lon="12.0234098"><ele>291.0</ele><time>2026-04-30T08:40:58.044Z</time></trkpt><trkpt lat="42.0968719" lon="12.0233147"><ele>291.0</ele><time>2026-04-30T08:40:59.1Z</time></trkpt><trkpt lat="42.0969422" lon="12.0232152"><ele>291.0</ele><time>2026-04-30T08:41:00.067Z</time></trkpt><trkpt lat="42.0970063" lon="12.0231604"><ele>291.0</ele><time>2026-04-30T08:41:01.185Z</time></trkpt><trkpt lat="42.0971233" lon="12.0231523"><ele>291.0</ele><time>2026-04-30T08:41:02.86Z</time></trkpt><trkpt lat="42.0972345" lon="12.0231814"><ele>291.0</ele><time>2026-04-30T08:41:04.268Z</time></trkpt><trkpt lat="42.0936533" lon="12.0250172"><ele>284.6666666666667</ele><time>2026-04-30T08:40:21.03Z</time></trkpt><trkpt lat="42.0937398" lon="12.0250174"><ele>278.3333333333333</ele><time>2026-04-30T08:40:22.114Z</time></trkpt><trkpt lat="42.0938144" lon="12.0250218"><ele>272.0</ele><time>2026-04-30T08:40:23.144Z</time></trkpt><trkpt lat="42.0938797" lon="12.0250316"><ele>265.66666666666663</ele><time>2026-04-30T08:40:24.057Z</time></trkpt><trkpt lat="42.0939515" lon="12.0250652"><ele>259.3333333333333</ele><time>2026-04-30T08:40:25.257Z</time></trkpt><trkpt lat="42.0940632" lon="12.0250814"><ele>253.0</ele><time>2026-04-30T08:40:27.07Z</time></trkpt><trkpt lat="42.0941271" lon="12.0250672"><ele>254.75</ele><time>2026-04-30T08:40:28.057Z</time></trkpt><trkpt lat="42.0942561" lon="12.0249426"><ele>256.5</ele><time>2026-04-30T08:40:30.098Z</time></trkpt><trkpt lat="42.0943762" lon="12.0248142"><ele>258.25</ele><time>2026-04-30T08:40:31.967Z</time></trkpt><trkpt lat="42.0944562" lon="12.0247677"><ele>260.0</ele><time>2026-04-30T08:40:33.06Z</time></trkpt><trkpt lat="42.0945213" lon="12.0247247"><ele>260.0</ele><time>2026-04-30T08:40:33.978Z</time></trkpt><trkpt lat="42.0946095" lon="12.0246602"><ele>260.0</ele><time>2026-04-30T08:40:34.987Z</time></trkpt><trkpt lat="42.0947176" lon="12.024555"><ele>260.0</ele><time>2026-04-30T08:40:36.101Z</time></trkpt><trkpt lat="42.0948618" lon="12.0243694"><ele>260.0</ele><time>2026-04-30T08:40:37.966Z</time></trkpt><trkpt lat="42.0949374" lon="12.0243018"><ele>261.5</ele><time>2026-04-30T08:40:39.069Z</time></trkpt><trkpt lat="42.0950097" lon="12.0242684"><ele>263.0</ele><time>2026-04-30T08:40:40.038Z</time></trkpt><trkpt lat="42.0951276" lon="12.0242342"><ele>264.5</ele><time>2026-04-30T08:40:41.253Z</time></trkpt><trkpt lat="42.0953632" lon="12.0241489"><ele>266.0</ele><time>2026-04-30T08:40:44.003Z</time></trkpt><trkpt lat="42.0954231" lon="12.0240689"><ele>266.8</ele><time>2026-04-30T08:40:45.02Z</time></trkpt><trkpt lat="42.0954949" lon="12.0239498"><ele>267.6</ele><time>2026-04-30T08:40:46.076Z</time></trkpt><trkpt lat="42.0955516" lon="12.0238847"><ele>268.4</ele><time>2026-04-30T08:40:47.057Z</time></trkpt><trkpt lat="42.0956278" lon="12.023832"><ele>269.2</ele><time>2026-04-30T08:40:48.07Z</time></trkpt><trkpt lat="42.095725" lon="12.0238029"><ele>270.0</ele><time>2026-04-30T08:40:49.068Z</time></trkpt><trkpt lat="42.0958396" lon="12.0237782"><ele>273.0</ele><time>2026-04-30T08:40:50.092Z</time></trkpt><trkpt lat="42.0959321" lon="12.0237859"><ele>276.0</ele><time>2026-04-30T08:40:51.081Z</time></trkpt><trkpt lat="42.096032" lon="12.0237862"><ele>279.0</ele><time>2026-04-30T08:40:52.012Z</time></trkpt><trkpt lat="42.0961559" lon="12.0237415"><ele>282.0</ele><time>2026-04-30T08:40:53.058Z</time></trkpt><trkpt lat="42.0964167" lon="12.0236102"><ele>285.0</ele><time>2026-04-30T08:40:55.117Z</time></trkpt><trkpt lat="42.0966953" lon="12.0234894"><ele>288.0</ele><time>2026-04-30T08:40:57.122Z</time></trkpt><trkpt lat="42.0967911" lon="12.0234098"><ele>291.0</ele><time>2026-04-30T08:40:58.044Z</time></trkpt><trkpt lat="42.0968719" lon="12.0233147"><ele>291.0</ele><time>2026-04-30T08:40:59.1Z</time></trkpt><trkpt lat="42.0969422" lon="12.0232152"><ele>291.0</ele><time>2026-04-30T08:41:00.067Z</time></trkpt><trkpt lat="42.0970063" lon="12.0231604"><ele>291.0</ele><time>2026-04-30T08:41:01.185Z</time></trkpt><trkpt lat="42.0971233" lon="12.0231523"><ele>291.0</ele><time>2026-04-30T08:41:02.86Z</time></trkpt><trkpt lat="42.0972345" lon="12.0231814"><ele>291.0</ele><time>2026-04-30T08:41:04.268Z</time></trkpt><trkpt lat="42.0973763" lon="12.0232082"><ele>294.6666666666667</ele><time>2026-04-30T08:41:06.148Z</time></trkpt><trkpt lat="42.0975616" lon="12.023276"><ele>298.33333333333337</ele><time>2026-04-30T08:41:07.962Z</time></trkpt><trkpt lat="42.0976929" lon="12.0233319"><ele>302.0</ele><time>2026-04-30T08:41:09.105Z</time></trkpt><trkpt lat="42.0978252" lon="12.023384"><ele>302.0</ele><time>2026-04-30T08:41:10.078Z</time></trkpt><trkpt lat="42.0980204" lon="12.0235305"><ele>302.0</ele><time>2026-04-30T08:41:12.04Z</time></trkpt><trkpt lat="42.0981563" lon="12.0236404"><ele>302.0</ele><time>2026-04-30T08:41:13.132Z</time></trkpt><trkpt lat="42.098255" lon="12.0237229"><ele>307.0</ele><time>2026-04-30T08:41:14.291Z</time></trkpt><trkpt lat="42.0983647" lon="12.0238494"><ele>312.0</ele><time>2026-04-30T08:41:16.223Z</time></trkpt><trkpt lat="42.0985725" lon="12.0240051"><ele>317.0</ele><time>2026-04-30T08:41:18.171Z</time></trkpt><trkpt lat="42.0986978" lon="12.0241139"><ele>313.33333333333337</ele><time>2026-04-30T08:41:19.212Z</time></trkpt><trkpt lat="42.0988858" lon="12.0243201"><ele>309.6666666666667</ele><time>2026-04-30T08:41:21.078Z</time></trkpt><trkpt lat="42.0989784" lon="12.0244236"><ele>306.0</ele><time>2026-04-30T08:41:21.988Z</time></trkpt><trkpt lat="42.0990743" lon="12.0245295"><ele>312.0</ele><time>2026-04-30T08:41:23.145Z</time></trkpt><trkpt lat="42.0992025" lon="12.0246579"><ele>318.0</ele><time>2026-04-30T08:41:25.123Z</time></trkpt><trkpt lat="42.0993193" lon="12.0246766"><ele>324.0</ele><time>2026-04-30T08:41:27.188Z</time></trkpt><trkpt lat="42.0995141" lon="12.024584"><ele>324.0</ele><time>2026-04-30T08:41:29.995Z</time></trkpt><trkpt lat="42.0996091" lon="12.0245386"><ele>324.0</ele><time>2026-04-30T08:41:31.105Z</time></trkpt><trkpt lat="42.0997063" lon="12.02449"><ele>324.0</ele><time>2026-04-30T08:41:32.177Z</time></trkpt><trkpt lat="42.0997747" lon="12.0243385"><ele>324.0</ele><time>2026-04-30T08:41:34.094Z</time></trkpt><trkpt lat="42.0997739" lon="12.0242511"><ele>324.0</ele><time>2026-04-30T08:41:35.154Z</time></trkpt><trkpt lat="42.0997515" lon="12.024068"><ele>328.0</ele><time>2026-04-30T08:41:36.935Z</time></trkpt><trkpt lat="42.099628" lon="12.02372"><ele>332.0</ele><time>2026-04-30T08:41:39.18Z</time></trkpt><trkpt lat="42.0995213" lon="12.0234227"><ele>334.6666666666667</ele><time>2026-04-30T08:41:41.216Z</time></trkpt><trkpt lat="42.0994859" lon="12.0232646"><ele>337.3333333333333</ele><time>2026-04-30T08:41:42.254Z</time></trkpt><trkpt lat="42.0994537" lon="12.0229906"><ele>340.0</ele><time>2026-04-30T08:41:44.241Z</time></trkpt><trkpt lat="42.0994541" lon="12.0227862"><ele>340.0</ele><time>2026-04-30T08:41:46.124Z</time></trkpt><trkpt lat="42.0994434" lon="12.0226731"><ele>340.0</ele><time>2026-04-30T08:41:47.114Z</time></trkpt><trkpt lat="42.0994277" lon="12.0225483"><ele>340.0</ele><time>2026-04-30T08:41:48.168Z</time></trkpt><trkpt lat="42.0993828" lon="12.0223582"><ele>340.0</ele><time>2026-04-30T08:41:49.863Z</time></trkpt><trkpt lat="42.0993539" lon="12.0222019"><ele>340.0</ele><time>2026-04-30T08:41:51.285Z</time></trkpt><trkpt lat="42.0993308" lon="12.0219962"><ele>340.4</ele><time>2026-04-30T08:41:53.081Z</time></trkpt><trkpt lat="42.0993119" lon="12.0219018"><ele>340.8</ele><time>2026-04-30T08:41:54.098Z</time></trkpt><trkpt lat="42.0992951" lon="12.0217945"><ele>341.20000000000005</ele><time>2026-04-30T08:41:55.153Z</time></trkpt><trkpt lat="42.0992826" lon="12.0216861"><ele>341.6</ele><time>2026-04-30T08:41:56.128Z</time></trkpt><trkpt lat="42.0992606" lon="12.0215616"><ele>342.0</ele><time>2026-04-30T08:41:57.154Z</time></trkpt><trkpt lat="42.0992215" lon="12.0212375"><ele>343.75</ele><time>2026-04-30T08:41:59.172Z</time></trkpt><trkpt lat="42.0992074" lon="12.0210581"><ele>345.5</ele><time>2026-04-30T08:42:00.098Z</time></trkpt><trkpt lat="42.0991894" lon="12.020922"><ele>347.25</ele><time>2026-04-30T08:42:01.073Z</time></trkpt><trkpt lat="42.0991713" lon="12.0206491"><ele>349.0</ele><time>2026-04-30T08:42:03.151Z</time></trkpt><trkpt lat="42.0991537" lon="12.0205337"><ele>349.0</ele><time>2026-04-30T08:42:04.062Z</time></trkpt><trkpt lat="42.0991221" lon="12.0204226"><ele>349.0</ele><time>2026-04-30T08:42:05.108Z</time></trkpt><trkpt lat="42.0990888" lon="12.0202749"><ele>349.0</ele><time>2026-04-30T08:42:06.28Z</time></trkpt><trkpt lat="42.0990063" lon="12.019934"><ele>349.0</ele><time>2026-04-30T08:42:08.094Z</time></trkpt><trkpt lat="42.0989826" lon="12.0198166"><ele>349.0</ele><time>2026-04-30T08:42:09.071Z</time></trkpt><trkpt lat="42.0989525" lon="12.0196748"><ele>349.0</ele><time>2026-04-30T08:42:10.064Z</time></trkpt><trkpt lat="42.098922" lon="12.0195554"><ele>349.0</ele><time>2026-04-30T08:42:11.203Z</time></trkpt><trkpt lat="42.0988415" lon="12.0193577"><ele>349.0</ele><time>2026-04-30T08:42:13.183Z</time></trkpt><trkpt lat="42.0988315" lon="12.0192551"><ele>349.0</ele><time>2026-04-30T08:42:14.183Z</time></trkpt><trkpt lat="42.0988472" lon="12.0190071"><ele>349.0</ele><time>2026-04-30T08:42:16.099Z</time></trkpt><trkpt lat="42.0989462" lon="12.018784"><ele>349.6</ele><time>2026-04-30T08:42:18.123Z</time></trkpt><trkpt lat="42.098993" lon="12.0186412"><ele>350.2</ele><time>2026-04-30T08:42:19.127Z</time></trkpt><trkpt lat="42.0990223" lon="12.018546"><ele>350.8</ele><time>2026-04-30T08:42:20.122Z</time></trkpt><trkpt lat="42.0990654" lon="12.0184498"><ele>351.40000000000003</ele><time>2026-04-30T08:42:21.112Z</time></trkpt><trkpt lat="42.0991138" lon="12.0183582"><ele>352.0</ele><time>2026-04-30T08:42:22.073Z</time></trkpt><trkpt lat="42.0991712" lon="12.0182244"><ele>355.5</ele><time>2026-04-30T08:42:23.068Z</time></trkpt><trkpt lat="42.0992145" lon="12.0180659"><ele>359.0</ele><time>2026-04-30T08:42:24.079Z</time></trkpt><trkpt lat="42.0992387" lon="12.0179571"><ele>362.5</ele><time>2026-04-30T08:42:25.092Z</time></trkpt><trkpt lat="42.0992468" lon="12.0178554"><ele>366.0</ele><time>2026-04-30T08:42:26.045Z</time></trkpt><trkpt lat="42.0992056" lon="12.0176153"><ele>366.0</ele><time>2026-04-30T08:42:28.008Z</time></trkpt><trkpt lat="42.0991873" lon="12.0175337"><ele>366.0</ele><time>2026-04-30T08:42:29.667Z</time></trkpt><trkpt lat="42.0991266" lon="12.0171525"><ele>366.0</ele><time>2026-04-30T08:42:31.163Z</time></trkpt><trkpt lat="42.0991173" lon="12.0169915"><ele>366.3333333333333</ele><time>2026-04-30T08:42:32.067Z</time></trkpt><trkpt lat="42.0990996" lon="12.0168123"><ele>366.66666666666663</ele><time>2026-04-30T08:42:33.216Z</time></trkpt><trkpt lat="42.0990551" lon="12.0165681"><ele>367.0</ele><time>2026-04-30T08:42:34.915Z</time></trkpt><trkpt lat="42.0990411" lon="12.0163416"><ele>367.66666666666663</ele><time>2026-04-30T08:42:36.16Z</time></trkpt><trkpt lat="42.0990659" lon="12.0161686"><ele>368.3333333333333</ele><time>2026-04-30T08:42:37.147Z</time></trkpt><trkpt lat="42.0991343" lon="12.0159076"><ele>369.0</ele><time>2026-04-30T08:42:39.119Z</time></trkpt><trkpt lat="42.0991845" lon="12.0157277"><ele>369.0</ele><time>2026-04-30T08:42:40.264Z</time></trkpt><trkpt lat="42.0992686" lon="12.0154369"><ele>369.0</ele><time>2026-04-30T08:42:41.964Z</time></trkpt><trkpt lat="42.0993051" lon="12.0152511"><ele>369.0</ele><time>2026-04-30T08:42:43.226Z</time></trkpt><trkpt lat="42.0992966" lon="12.0151339"><ele>369.0</ele><time>2026-04-30T08:42:44.115Z</time></trkpt><trkpt lat="42.0992908" lon="12.0149742"><ele>369.0</ele><time>2026-04-30T08:42:45.14Z</time></trkpt><trkpt lat="42.0992861" lon="12.0147832"><ele>369.0</ele><time>2026-04-30T08:42:46.175Z</time></trkpt><trkpt lat="42.0993103" lon="12.014598"><ele>369.0</ele><time>2026-04-30T08:42:47.159Z</time></trkpt><trkpt lat="42.0994057" lon="12.0142262"><ele>368.0</ele><time>2026-04-30T08:42:49.137Z</time></trkpt><trkpt lat="42.0994476" lon="12.0140621"><ele>367.0</ele><time>2026-04-30T08:42:50.17Z</time></trkpt><trkpt lat="42.0994451" lon="12.0139085"><ele>366.0</ele><time>2026-04-30T08:42:51.201Z</time></trkpt><trkpt lat="42.099449" lon="12.0135825"><ele>366.0</ele><time>2026-04-30T08:42:53.248Z</time></trkpt><trkpt lat="42.0995273" lon="12.0133386"><ele>366.0</ele><time>2026-04-30T08:42:54.918Z</time></trkpt><trkpt lat="42.0995864" lon="12.0131685"><ele>366.0</ele><time>2026-04-30T08:42:56.225Z</time></trkpt><trkpt lat="42.0997164" lon="12.0128502"><ele>366.5</ele><time>2026-04-30T08:42:58.148Z</time></trkpt><trkpt lat="42.099774" lon="12.0125697"><ele>367.0</ele><time>2026-04-30T08:43:00.061Z</time></trkpt><trkpt lat="42.09977" lon="12.0124451"><ele>367.5</ele><time>2026-04-30T08:43:01.039Z</time></trkpt><trkpt lat="42.0997488" lon="12.0123204"><ele>368.0</ele><time>2026-04-30T08:43:02.017Z</time></trkpt><trkpt lat="42.0997118" lon="12.0121768"><ele>368.0</ele><time>2026-04-30T08:43:03.022Z</time></trkpt><trkpt lat="42.0996974" lon="12.0120545"><ele>368.0</ele><time>2026-04-30T08:43:04Z</time></trkpt><trkpt lat="42.0996949" lon="12.0119295"><ele>368.0</ele><time>2026-04-30T08:43:05.015Z</time></trkpt><trkpt lat="42.09968" lon="12.0117723"><ele>368.0</ele><time>2026-04-30T08:43:06.103Z</time></trkpt><trkpt lat="42.0996603" lon="12.0116074"><ele>368.0</ele><time>2026-04-30T08:43:07.073Z</time></trkpt><trkpt lat="42.0996436" lon="12.0113984"><ele>369.75</ele><time>2026-04-30T08:43:08.145Z</time></trkpt><trkpt lat="42.0996194" lon="12.0112572"><ele>371.5</ele><time>2026-04-30T08:43:09.098Z</time></trkpt><trkpt lat="42.0995851" lon="12.0111015"><ele>373.25</ele><time>2026-04-30T08:43:10.138Z</time></trkpt><trkpt lat="42.0995247" lon="12.0109865"><ele>375.0</ele><time>2026-04-30T08:43:11.187Z</time></trkpt><trkpt lat="42.0993162" lon="12.0107281"><ele>373.6666666666667</ele><time>2026-04-30T08:43:14.045Z</time></trkpt><trkpt lat="42.0992278" lon="12.0105729"><ele>372.33333333333337</ele><time>2026-04-30T08:43:15.054Z</time></trkpt><trkpt lat="42.0991414" lon="12.0103792"><ele>371.0</ele><time>2026-04-30T08:43:16.173Z</time></trkpt><trkpt lat="42.0989995" lon="12.010115"><ele>379.5</ele><time>2026-04-30T08:43:18.237Z</time></trkpt><trkpt lat="42.0989103" lon="12.009799"><ele>388.0</ele><time>2026-04-30T08:43:20.176Z</time></trkpt><trkpt lat="42.0988226" lon="12.0095364"><ele>388.0</ele><time>2026-04-30T08:43:22.143Z</time></trkpt><trkpt lat="42.0987481" lon="12.009438"><ele>388.0</ele><time>2026-04-30T08:43:23.149Z</time></trkpt><trkpt lat="42.0985419" lon="12.0092738"><ele>388.0</ele><time>2026-04-30T08:43:25.145Z</time></trkpt><trkpt lat="42.0984039" lon="12.0092025"><ele>389.0</ele><time>2026-04-30T08:43:26.119Z</time></trkpt><trkpt lat="42.0982202" lon="12.0091299"><ele>390.0</ele><time>2026-04-30T08:43:27.373Z</time></trkpt><trkpt lat="42.0979626" lon="12.0091083"><ele>390.0</ele><time>2026-04-30T08:43:29.2Z</time></trkpt><trkpt lat="42.0978458" lon="12.009093"><ele>390.0</ele><time>2026-04-30T08:43:30.252Z</time></trkpt><trkpt lat="42.0976582" lon="12.0089881"><ele>390.0</ele><time>2026-04-30T08:43:32.235Z</time></trkpt><trkpt lat="42.0974937" lon="12.0088216"><ele>381.6666666666667</ele><time>2026-04-30T08:43:34.13Z</time></trkpt><trkpt lat="42.0973986" lon="12.0086036"><ele>373.33333333333337</ele><time>2026-04-30T08:43:36.086Z</time></trkpt><trkpt lat="42.0973699" lon="12.0084598"><ele>365.0</ele><time>2026-04-30T08:43:37.061Z</time></trkpt><trkpt lat="42.0973303" lon="12.0082292"><ele>365.0</ele><time>2026-04-30T08:43:38.182Z</time></trkpt><trkpt lat="42.0973104" lon="12.0080849"><ele>365.0</ele><time>2026-04-30T08:43:39.087Z</time></trkpt><trkpt lat="42.0972767" lon="12.0079371"><ele>365.0</ele><time>2026-04-30T08:43:40.046Z</time></trkpt><trkpt lat="42.0972885" lon="12.0077427"><ele>365.0</ele><time>2026-04-30T08:43:41.024Z</time></trkpt><trkpt lat="42.0973064" lon="12.0075184"><ele>367.0</ele><time>2026-04-30T08:43:42.079Z</time></trkpt><trkpt lat="42.0973227" lon="12.0072934"><ele>369.0</ele><time>2026-04-30T08:43:43.011Z</time></trkpt><trkpt lat="42.09735" lon="12.0070489"><ele>371.0</ele><time>2026-04-30T08:43:44.158Z</time></trkpt><trkpt lat="42.0973824" lon="12.0067795"><ele>376.0</ele><time>2026-04-30T08:43:46.055Z</time></trkpt><trkpt lat="42.097359" lon="12.0066288"><ele>381.0</ele><time>2026-04-30T08:43:47.192Z</time></trkpt><trkpt lat="42.0972162" lon="12.0062754"><ele>386.0</ele><time>2026-04-30T08:43:49.032Z</time></trkpt><trkpt lat="42.0971398" lon="12.0060654"><ele>386.0</ele><time>2026-04-30T08:43:50.001Z</time></trkpt><trkpt lat="42.0970846" lon="12.0058996"><ele>386.0</ele><time>2026-04-30T08:43:50.927Z</time></trkpt><trkpt lat="42.0970177" lon="12.005727"><ele>386.0</ele><time>2026-04-30T08:43:52.032Z</time></trkpt><trkpt lat="42.0969401" lon="12.0056163"><ele>386.0</ele><time>2026-04-30T08:43:53.012Z</time></trkpt><trkpt lat="42.0968567" lon="12.0055323"><ele>389.66666666666663</ele><time>2026-04-30T08:43:54.024Z</time></trkpt><trkpt lat="42.0966536" lon="12.0054445"><ele>393.33333333333337</ele><time>2026-04-30T08:43:56.103Z</time></trkpt><trkpt lat="42.0965178" lon="12.0054333"><ele>397.0</ele><time>2026-04-30T08:43:57.115Z</time></trkpt><trkpt lat="42.0962412" lon="12.0054244"><ele>397.0</ele><time>2026-04-30T08:43:59.07Z</time></trkpt><trkpt lat="42.0961125" lon="12.0054291"><ele>397.0</ele><time>2026-04-30T08:44:00.095Z</time></trkpt><trkpt lat="42.0960316" lon="12.00542"><ele>397.0</ele><time>2026-04-30T08:44:01.164Z</time></trkpt><trkpt lat="42.0959086" lon="12.0053151"><ele>397.0</ele><time>2026-04-30T08:44:02.9Z</time></trkpt><trkpt lat="42.0958382" lon="12.0052017"><ele>397.0</ele><time>2026-04-30T08:44:04.035Z</time></trkpt><trkpt lat="42.0957942" lon="12.0050588"><ele>397.0</ele><time>2026-04-30T08:44:05.135Z</time></trkpt><trkpt lat="42.0957666" lon="12.0049047"><ele>397.0</ele><time>2026-04-30T08:44:06.048Z</time></trkpt><trkpt lat="42.0957442" lon="12.004726"><ele>397.0</ele><time>2026-04-30T08:44:07.205Z</time></trkpt><trkpt lat="42.0956112" lon="12.0044035"><ele>397.0</ele><time>2026-04-30T08:44:09.158Z</time></trkpt><trkpt lat="42.0955059" lon="12.0042556"><ele>397.0</ele><time>2026-04-30T08:44:10.073Z</time></trkpt><trkpt lat="42.0953896" lon="12.0041113"><ele>397.0</ele><time>2026-04-30T08:44:11.161Z</time></trkpt><trkpt lat="42.0953127" lon="12.0039721"><ele>397.0</ele><time>2026-04-30T08:44:12.074Z</time></trkpt><trkpt lat="42.0951333" lon="12.0036431"><ele>397.0</ele><time>2026-04-30T08:44:13.967Z</time></trkpt><trkpt lat="42.0950239" lon="12.003432"><ele>397.0</ele><time>2026-04-30T08:44:15.148Z</time></trkpt><trkpt lat="42.094966" lon="12.0032969"><ele>397.0</ele><time>2026-04-30T08:44:16.15Z</time></trkpt><trkpt lat="42.0949105" lon="12.0029944"><ele>394.5</ele><time>2026-04-30T08:44:18.118Z</time></trkpt><trkpt lat="42.0949088" lon="12.0028107"><ele>392.0</ele><time>2026-04-30T08:44:19.036Z</time></trkpt><trkpt lat="42.0949014" lon="12.0026521"><ele>389.5</ele><time>2026-04-30T08:44:20.012Z</time></trkpt><trkpt lat="42.0948951" lon="12.0024881"><ele>387.0</ele><time>2026-04-30T08:44:21.119Z</time></trkpt><trkpt lat="42.0949094" lon="12.0023374"><ele>389.66666666666663</ele><time>2026-04-30T08:44:22.152Z</time></trkpt><trkpt lat="42.094993" lon="12.0020486"><ele>392.3333333333333</ele><time>2026-04-30T08:44:23.978Z</time></trkpt><trkpt lat="42.0950321" lon="12.0018965"><ele>395.0</ele><time>2026-04-30T08:44:25.011Z</time></trkpt><trkpt lat="42.0950706" lon="12.0017269"><ele>395.25</ele><time>2026-04-30T08:44:26.173Z</time></trkpt><trkpt lat="42.0951106" lon="12.0015851"><ele>395.5</ele><time>2026-04-30T08:44:27.094Z</time></trkpt><trkpt lat="42.0952171" lon="12.0013184"><ele>395.75</ele><time>2026-04-30T08:44:29.027Z</time></trkpt><trkpt lat="42.0952599" lon="12.0012085"><ele>396.0</ele><time>2026-04-30T08:44:29.975Z</time></trkpt><trkpt lat="42.0953016" lon="12.0010723"><ele>396.0</ele><time>2026-04-30T08:44:31.138Z</time></trkpt><trkpt lat="42.0953274" lon="12.0009668"><ele>396.0</ele><time>2026-04-30T08:44:32.09Z</time></trkpt><trkpt lat="42.095333" lon="12.0008566"><ele>396.0</ele><time>2026-04-30T08:44:32.998Z</time></trkpt><trkpt lat="42.0953178" lon="12.0007035"><ele>396.0</ele><time>2026-04-30T08:44:34.171Z</time></trkpt><trkpt lat="42.0952414" lon="12.0004789"><ele>394.0</ele><time>2026-04-30T08:44:35.914Z</time></trkpt><trkpt lat="42.0951967" lon="12.0003554"><ele>392.0</ele><time>2026-04-30T08:44:37.041Z</time></trkpt><trkpt lat="42.0951424" lon="12.0002421"><ele>390.0</ele><time>2026-04-30T08:44:38.074Z</time></trkpt><trkpt lat="42.0950654" lon="12.0001321"><ele>388.0</ele><time>2026-04-30T08:44:39.136Z</time></trkpt><trkpt lat="42.0949975" lon="12.0000406"><ele>386.0</ele><time>2026-04-30T08:44:40.113Z</time></trkpt><trkpt lat="42.0949235" lon="11.9999162"><ele>386.5</ele><time>2026-04-30T08:44:41.213Z</time></trkpt><trkpt lat="42.0948056" lon="11.9996945"><ele>387.0</ele><time>2026-04-30T08:44:43.19Z</time></trkpt><trkpt lat="42.0947203" lon="11.9995278"><ele>387.5</ele><time>2026-04-30T08:44:45.242Z</time></trkpt><trkpt lat="42.0946819" lon="11.9994266"><ele>388.0</ele><time>2026-04-30T08:44:47.066Z</time></trkpt><trkpt lat="42.0946841" lon="11.9993149"><ele>388.0</ele><time>2026-04-30T08:45:13.174Z</time></trkpt><trkpt lat="42.0946213" lon="11.9992027"><ele>388.0</ele><time>2026-04-30T08:47:04.136Z</time></trkpt><trkpt lat="42.0944924" lon="11.9991605"><ele>388.0</ele><time>2026-04-30T08:47:06.229Z</time></trkpt><trkpt lat="42.0942377" lon="11.9991314"><ele>387.59999999999997</ele><time>2026-04-30T08:47:08.95Z</time></trkpt><trkpt lat="42.0941351" lon="11.9991192"><ele>387.2</ele><time>2026-04-30T08:47:10.078Z</time></trkpt><trkpt lat="42.0940328" lon="11.999099"><ele>386.8</ele><time>2026-04-30T08:47:11.139Z</time></trkpt><trkpt lat="42.0939372" lon="11.9990765"><ele>386.4</ele><time>2026-04-30T08:47:12.061Z</time></trkpt><trkpt lat="42.0938456" lon="11.9990559"><ele>386.0</ele><time>2026-04-30T08:47:12.98Z</time></trkpt><trkpt lat="42.0937355" lon="11.9990257"><ele>387.3333333333333</ele><time>2026-04-30T08:47:14.15Z</time></trkpt><trkpt lat="42.0935197" lon="11.9989866"><ele>388.66666666666663</ele><time>2026-04-30T08:47:16.111Z</time></trkpt><trkpt lat="42.093305" lon="11.9989374"><ele>390.0</ele><time>2026-04-30T08:47:18.11Z</time></trkpt><trkpt lat="42.0931822" lon="11.9989125"><ele>391.0</ele><time>2026-04-30T08:47:19.193Z</time></trkpt><trkpt lat="42.0930613" lon="11.9988865"><ele>392.0</ele><time>2026-04-30T08:47:20.18Z</time></trkpt><trkpt lat="42.0928944" lon="11.9988618"><ele>393.0</ele><time>2026-04-30T08:47:21.341Z</time></trkpt><trkpt lat="42.0926549" lon="11.9987551"><ele>393.0</ele><time>2026-04-30T08:47:23.225Z</time></trkpt><trkpt lat="42.0925287" lon="11.9987466"><ele>393.0</ele><time>2026-04-30T08:47:24.188Z</time></trkpt><trkpt lat="42.0923998" lon="11.9987264"><ele>393.0</ele><time>2026-04-30T08:47:25.189Z</time></trkpt><trkpt lat="42.0923066" lon="11.9987139"><ele>393.0</ele><time>2026-04-30T08:47:26.147Z</time></trkpt><trkpt lat="42.0921774" lon="11.9986882"><ele>393.5</ele><time>2026-04-30T08:47:27.081Z</time></trkpt><trkpt lat="42.0920306" lon="11.9986678"><ele>394.0</ele><time>2026-04-30T08:47:28.167Z</time></trkpt><trkpt lat="42.0919153" lon="11.9986768"><ele>394.5</ele><time>2026-04-30T08:47:29.071Z</time></trkpt><trkpt lat="42.0917457" lon="11.9986979"><ele>395.0</ele><time>2026-04-30T08:47:30.24Z</time></trkpt><trkpt lat="42.0915184" lon="11.9987167"><ele>399.0</ele><time>2026-04-30T08:47:31.972Z</time></trkpt><trkpt lat="42.0913801" lon="11.9987369"><ele>403.0</ele><time>2026-04-30T08:47:33.067Z</time></trkpt><trkpt lat="42.0911484" lon="11.9987745"><ele>407.0</ele><time>2026-04-30T08:47:34.954Z</time></trkpt><trkpt lat="42.0910198" lon="11.9987923"><ele>407.0</ele><time>2026-04-30T08:47:36.151Z</time></trkpt><trkpt lat="42.090801" lon="11.9988147"><ele>407.0</ele><time>2026-04-30T08:47:38.106Z</time></trkpt><trkpt lat="42.0906758" lon="11.9988171"><ele>407.0</ele><time>2026-04-30T08:47:39.192Z</time></trkpt><trkpt lat="42.0905156" lon="11.9988388"><ele>407.8</ele><time>2026-04-30T08:47:41.126Z</time></trkpt><trkpt lat="42.0904172" lon="11.9988487"><ele>408.6</ele><time>2026-04-30T08:47:42.06Z</time></trkpt><trkpt lat="42.0903031" lon="11.998847"><ele>409.40000000000003</ele><time>2026-04-30T08:47:43.064Z</time></trkpt><trkpt lat="42.0901925" lon="11.9988336"><ele>410.20000000000005</ele><time>2026-04-30T08:47:44.022Z</time></trkpt><trkpt lat="42.0900687" lon="11.9988218"><ele>411.0</ele><time>2026-04-30T08:47:45.083Z</time></trkpt><trkpt lat="42.0899671" lon="11.9988036"><ele>412.33333333333337</ele><time>2026-04-30T08:47:45.992Z</time></trkpt><trkpt lat="42.0898511" lon="11.9987769"><ele>413.6666666666667</ele><time>2026-04-30T08:47:46.97Z</time></trkpt><trkpt lat="42.0897447" lon="11.998764"><ele>415.0</ele><time>2026-04-30T08:47:47.912Z</time></trkpt><trkpt lat="42.0894931" lon="11.9987329"><ele>415.0</ele><time>2026-04-30T08:47:50.108Z</time></trkpt><trkpt lat="42.089371" lon="11.9987149"><ele>415.0</ele><time>2026-04-30T08:47:51.124Z</time></trkpt><trkpt lat="42.0892612" lon="11.9986989"><ele>415.0</ele><time>2026-04-30T08:47:52.069Z</time></trkpt><trkpt lat="42.089169" lon="11.9986852"><ele>415.0</ele><time>2026-04-30T08:47:52.838Z</time></trkpt><trkpt lat="42.0890288" lon="11.9986645"><ele>415.5</ele><time>2026-04-30T08:47:53.981Z</time></trkpt><trkpt lat="42.0889046" lon="11.9986434"><ele>416.0</ele><time>2026-04-30T08:47:55.04Z</time></trkpt><trkpt lat="42.0888051" lon="11.998632"><ele>416.5</ele><time>2026-04-30T08:47:55.943Z</time></trkpt><trkpt lat="42.0886675" lon="11.9986272"><ele>417.0</ele><time>2026-04-30T08:47:57.154Z</time></trkpt><trkpt lat="42.0884746" lon="11.9985977"><ele>417.0</ele><time>2026-04-30T08:47:58.957Z</time></trkpt><trkpt lat="42.0883538" lon="11.998568"><ele>417.0</ele><time>2026-04-30T08:48:00.04Z</time></trkpt><trkpt lat="42.0882431" lon="11.998541"><ele>417.0</ele><time>2026-04-30T08:48:01.008Z</time></trkpt><trkpt lat="42.088141" lon="11.9985121"><ele>417.0</ele><time>2026-04-30T08:48:01.932Z</time></trkpt><trkpt lat="42.0880383" lon="11.9984746"><ele>417.0</ele><time>2026-04-30T08:48:02.909Z</time></trkpt><trkpt lat="42.0879397" lon="11.9984362"><ele>415.6</ele><time>2026-04-30T08:48:03.943Z</time></trkpt><trkpt lat="42.0878386" lon="11.9983973"><ele>414.20000000000005</ele><time>2026-04-30T08:48:05.07Z</time></trkpt><trkpt lat="42.0877391" lon="11.9983702"><ele>412.8</ele><time>2026-04-30T08:48:06.109Z</time></trkpt><trkpt lat="42.0876461" lon="11.9983506"><ele>411.4</ele><time>2026-04-30T08:48:07.139Z</time></trkpt><trkpt lat="42.0875533" lon="11.998347"><ele>410.0</ele><time>2026-04-30T08:48:08.1Z</time></trkpt><trkpt lat="42.0874501" lon="11.998352"><ele>408.5</ele><time>2026-04-30T08:48:09.149Z</time></trkpt><trkpt lat="42.0873415" lon="11.9983515"><ele>407.0</ele><time>2026-04-30T08:48:10.198Z</time></trkpt><trkpt lat="42.0871256" lon="11.9983269"><ele>405.5</ele><time>2026-04-30T08:48:12.091Z</time></trkpt><trkpt lat="42.0870126" lon="11.9983265"><ele>404.0</ele><time>2026-04-30T08:48:13.128Z</time></trkpt><trkpt lat="42.086905" lon="11.9983276"><ele>411.0</ele><time>2026-04-30T08:48:14.095Z</time></trkpt><trkpt lat="42.0867927" lon="11.9983228"><ele>418.0</ele><time>2026-04-30T08:48:15.124Z</time></trkpt><trkpt lat="42.0866852" lon="11.9983183"><ele>425.0</ele><time>2026-04-30T08:48:16.086Z</time></trkpt><trkpt lat="42.0864825" lon="11.9983201"><ele>432.0</ele><time>2026-04-30T08:48:18.063Z</time></trkpt><trkpt lat="42.0863932" lon="11.9983137"><ele>432.5</ele><time>2026-04-30T08:48:18.992Z</time></trkpt><trkpt lat="42.0862875" lon="11.9983037"><ele>433.0</ele><time>2026-04-30T08:48:20.114Z</time></trkpt><trkpt lat="42.0861221" lon="11.9983003"><ele>433.5</ele><time>2026-04-30T08:48:21.958Z</time></trkpt><trkpt lat="42.0860182" lon="11.9983037"><ele>434.0</ele><time>2026-04-30T08:48:23.058Z</time></trkpt><trkpt lat="42.085806" lon="11.9983237"><ele>436.5</ele><time>2026-04-30T08:48:24.929Z</time></trkpt><trkpt lat="42.0857267" lon="11.998321"><ele>439.0</ele><time>2026-04-30T08:48:26.016Z</time></trkpt><trkpt lat="42.0855871" lon="11.9983177"><ele>441.5</ele><time>2026-04-30T08:48:28.124Z</time></trkpt><trkpt lat="42.0854316" lon="11.9983334"><ele>444.0</ele><time>2026-04-30T08:48:30.118Z</time></trkpt><trkpt lat="42.0853413" lon="11.9983347"><ele>441.79999999999995</ele><time>2026-04-30T08:48:31.039Z</time></trkpt><trkpt lat="42.0852327" lon="11.9983564"><ele>439.59999999999997</ele><time>2026-04-30T08:48:32.127Z</time></trkpt><trkpt lat="42.0851423" lon="11.9983766"><ele>437.4</ele><time>2026-04-30T08:48:33.102Z</time></trkpt><trkpt lat="42.0850562" lon="11.9984088"><ele>435.2</ele><time>2026-04-30T08:48:34.012Z</time></trkpt><trkpt lat="42.0849387" lon="11.9984459"><ele>433.0</ele><time>2026-04-30T08:48:35.101Z</time></trkpt><trkpt lat="42.0848517" lon="11.9984783"><ele>433.0</ele><time>2026-04-30T08:48:36.037Z</time></trkpt><trkpt lat="42.0847675" lon="11.9985161"><ele>432.99999999999994</ele><time>2026-04-30T08:48:37.095Z</time></trkpt><trkpt lat="42.0846691" lon="11.9985183"><ele>432.99999999999994</ele><time>2026-04-30T08:48:38.975Z</time></trkpt><trkpt lat="42.0845541" lon="11.9985049"><ele>433.0</ele><time>2026-04-30T08:48:41.037Z</time></trkpt><trkpt lat="42.0844411" lon="11.9985888"><ele>433.0</ele><time>2026-04-30T08:48:43.079Z</time></trkpt><trkpt lat="42.0843352" lon="11.9986846"><ele>433.00000000000006</ele><time>2026-04-30T08:48:44.989Z</time></trkpt><trkpt lat="42.0842818" lon="11.9987342"><ele>433.0</ele><time>2026-04-30T08:48:45.92Z</time></trkpt><trkpt lat="42.0842229" lon="11.9987986"><ele>433.0</ele><time>2026-04-30T08:48:46.953Z</time></trkpt><trkpt lat="42.0841673" lon="11.998847"><ele>433.0</ele><time>2026-04-30T08:48:47.936Z</time></trkpt><trkpt lat="42.0841037" lon="11.9988891"><ele>433.00000000000006</ele><time>2026-04-30T08:48:48.836Z</time></trkpt><trkpt lat="42.0840258" lon="11.9989443"><ele>433.0</ele><time>2026-04-30T08:48:49.796Z</time></trkpt><trkpt lat="42.0839356" lon="11.999008"><ele>432.79999999999995</ele><time>2026-04-30T08:48:50.889Z</time></trkpt><trkpt lat="42.0838384" lon="11.9990765"><ele>432.59999999999997</ele><time>2026-04-30T08:48:52.099Z</time></trkpt><trkpt lat="42.0837539" lon="11.9991284"><ele>432.40000000000003</ele><time>2026-04-30T08:48:53.066Z</time></trkpt><trkpt lat="42.083668" lon="11.9991917"><ele>432.20000000000005</ele><time>2026-04-30T08:48:54.001Z</time></trkpt><trkpt lat="42.0835795" lon="11.9992601"><ele>432.0</ele><time>2026-04-30T08:48:55.023Z</time></trkpt><trkpt lat="42.0834977" lon="11.9993181"><ele>432.0</ele><time>2026-04-30T08:48:55.98Z</time></trkpt><trkpt lat="42.0834072" lon="11.9993783"><ele>432.00000000000006</ele><time>2026-04-30T08:48:57.006Z</time></trkpt><trkpt lat="42.0833032" lon="11.9994384"><ele>432.00000000000006</ele><time>2026-04-30T08:48:58.105Z</time></trkpt><trkpt lat="42.0832198" lon="11.999477"><ele>432.0</ele><time>2026-04-30T08:48:59.016Z</time></trkpt><trkpt lat="42.0831326" lon="11.9995105"><ele>432.0</ele><time>2026-04-30T08:48:59.976Z</time></trkpt><trkpt lat="42.0830369" lon="11.9995399"><ele>433.75</ele><time>2026-04-30T08:49:00.986Z</time></trkpt><trkpt lat="42.0829201" lon="11.999563"><ele>435.5</ele><time>2026-04-30T08:49:02.236Z</time></trkpt><trkpt lat="42.08277" lon="11.9995875"><ele>437.25</ele><time>2026-04-30T08:49:03.851Z</time></trkpt><trkpt lat="42.0826621" lon="11.9996094"><ele>439.0</ele><time>2026-04-30T08:49:05.034Z</time></trkpt><trkpt lat="42.0825742" lon="11.9996315"><ele>439.0</ele><time>2026-04-30T08:49:06.047Z</time></trkpt><trkpt lat="42.0825004" lon="11.9996491"><ele>439.0</ele><time>2026-04-30T08:49:06.991Z</time></trkpt><trkpt lat="42.0823714" lon="11.9996879"><ele>439.0</ele><time>2026-04-30T08:49:08.882Z</time></trkpt><trkpt lat="42.0822938" lon="11.9997208"><ele>439.0</ele><time>2026-04-30T08:49:10.012Z</time></trkpt><trkpt lat="42.082157" lon="11.999822"><ele>439.0</ele><time>2026-04-30T08:49:11.996Z</time></trkpt><trkpt lat="42.0820779" lon="11.9998835"><ele>441.79999999999995</ele><time>2026-04-30T08:49:13.069Z</time></trkpt><trkpt lat="42.0820006" lon="11.9999505"><ele>444.59999999999997</ele><time>2026-04-30T08:49:14.024Z</time></trkpt><trkpt lat="42.0819281" lon="12.0000159"><ele>447.4</ele><time>2026-04-30T08:49:14.953Z</time></trkpt><trkpt lat="42.0818499" lon="12.000089"><ele>450.2</ele><time>2026-04-30T08:49:15.917Z</time></trkpt><trkpt lat="42.0817782" lon="12.0001577"><ele>453.0</ele><time>2026-04-30T08:49:16.93Z</time></trkpt><trkpt lat="42.0817033" lon="12.0002297"><ele>453.0</ele><time>2026-04-30T08:49:18.001Z</time></trkpt><trkpt lat="42.0816483" lon="12.0002769"><ele>453.0</ele><time>2026-04-30T08:49:18.926Z</time></trkpt><trkpt lat="42.0815681" lon="12.0003587"><ele>453.0</ele><time>2026-04-30T08:49:20.101Z</time></trkpt><trkpt lat="42.0814978" lon="12.0004249"><ele>453.0</ele><time>2026-04-30T08:49:21.054Z</time></trkpt><trkpt lat="42.0814236" lon="12.0004983"><ele>453.0</ele><time>2026-04-30T08:49:22.056Z</time></trkpt><trkpt lat="42.0813438" lon="12.0005817"><ele>453.0</ele><time>2026-04-30T08:49:23.162Z</time></trkpt><trkpt lat="42.0812179" lon="12.0006876"><ele>452.75</ele><time>2026-04-30T08:49:24.856Z</time></trkpt><trkpt lat="42.0811174" lon="12.0007703"><ele>452.5</ele><time>2026-04-30T08:49:26.133Z</time></trkpt><trkpt lat="42.0809935" lon="12.0008973"><ele>452.25</ele><time>2026-04-30T08:49:28.001Z</time></trkpt><trkpt lat="42.0809127" lon="12.0009504"><ele>452.0</ele><time>2026-04-30T08:49:29.012Z</time></trkpt><trkpt lat="42.0808099" lon="12.0009984"><ele>450.25</ele><time>2026-04-30T08:49:29.99Z</time></trkpt><trkpt lat="42.080704" lon="12.0010428"><ele>448.5</ele><time>2026-04-30T08:49:30.936Z</time></trkpt><trkpt lat="42.0806066" lon="12.0010824"><ele>446.75</ele><time>2026-04-30T08:49:31.97Z</time></trkpt><trkpt lat="42.0805006" lon="12.0011029"><ele>445.0</ele><time>2026-04-30T08:49:33.125Z</time></trkpt><trkpt lat="42.0803443" lon="12.0011013"><ele>445.0</ele><time>2026-04-30T08:49:34.894Z</time></trkpt><trkpt lat="42.0802301" lon="12.0010947"><ele>445.0</ele><time>2026-04-30T08:49:36.148Z</time></trkpt><trkpt lat="42.0800231" lon="12.0010387"><ele>445.0</ele><time>2026-04-30T08:49:38.143Z</time></trkpt><trkpt lat="42.0798451" lon="12.0009769"><ele>443.5</ele><time>2026-04-30T08:49:39.974Z</time></trkpt><trkpt lat="42.0797311" lon="12.0009354"><ele>442.0</ele><time>2026-04-30T08:49:41.199Z</time></trkpt><trkpt lat="42.0796503" lon="12.0009085"><ele>440.5</ele><time>2026-04-30T08:49:42.221Z</time></trkpt><trkpt lat="42.0795453" lon="12.0008974"><ele>439.0</ele><time>2026-04-30T08:49:44.129Z</time></trkpt><trkpt lat="42.0794027" lon="12.0008567"><ele>437.0</ele><time>2026-04-30T08:49:45.923Z</time></trkpt><trkpt lat="42.0793026" lon="12.0008248"><ele>435.0</ele><time>2026-04-30T08:49:47.088Z</time></trkpt><trkpt lat="42.0792216" lon="12.0008104"><ele>433.0</ele><time>2026-04-30T08:49:48.073Z</time></trkpt><trkpt lat="42.0791183" lon="12.0007853"><ele>431.0</ele><time>2026-04-30T08:49:49.165Z</time></trkpt><trkpt lat="42.0789518" lon="12.0007329"><ele>428.0</ele><time>2026-04-30T08:49:50.78Z</time></trkpt><trkpt lat="42.0788241" lon="12.0006999"><ele>425.0</ele><time>2026-04-30T08:49:52.091Z</time></trkpt><trkpt lat="42.0786288" lon="12.0006447"><ele>422.0</ele><time>2026-04-30T08:49:53.975Z</time></trkpt><trkpt lat="42.0785086" lon="12.000606"><ele>422.0</ele><time>2026-04-30T08:49:55.182Z</time></trkpt><trkpt lat="42.0783222" lon="12.0005421"><ele>422.0</ele><time>2026-04-30T08:49:57.043Z</time></trkpt><trkpt lat="42.0782365" lon="12.0005176"><ele>422.0</ele><time>2026-04-30T08:49:57.965Z</time></trkpt><trkpt lat="42.0781386" lon="12.0005029"><ele>422.0</ele><time>2026-04-30T08:49:58.945Z</time></trkpt><trkpt lat="42.0780267" lon="12.000473"><ele>420.0</ele><time>2026-04-30T08:49:59.943Z</time></trkpt><trkpt lat="42.077915" lon="12.0004429"><ele>418.0</ele><time>2026-04-30T08:50:00.972Z</time></trkpt><trkpt lat="42.0776924" lon="12.0003768"><ele>416.0</ele><time>2026-04-30T08:50:02.98Z</time></trkpt><trkpt lat="42.0776012" lon="12.0003557"><ele>414.0</ele><time>2026-04-30T08:50:03.88Z</time></trkpt><trkpt lat="42.0774902" lon="12.0003172"><ele>413.0</ele><time>2026-04-30T08:50:04.966Z</time></trkpt><trkpt lat="42.0773848" lon="12.0002733"><ele>412.0</ele><time>2026-04-30T08:50:06.048Z</time></trkpt><trkpt lat="42.0772979" lon="12.0002267"><ele>411.0</ele><time>2026-04-30T08:50:06.979Z</time></trkpt><trkpt lat="42.0772059" lon="12.0001716"><ele>410.0</ele><time>2026-04-30T08:50:07.989Z</time></trkpt><trkpt lat="42.077119" lon="12.0000913"><ele>409.0</ele><time>2026-04-30T08:50:09.068Z</time></trkpt><trkpt lat="42.0770385" lon="12.000004"><ele>409.0</ele><time>2026-04-30T08:50:10.079Z</time></trkpt><trkpt lat="42.0769649" lon="11.9999147"><ele>409.0</ele><time>2026-04-30T08:50:11.031Z</time></trkpt><trkpt lat="42.076895" lon="11.9998252"><ele>409.0</ele><time>2026-04-30T08:50:11.999Z</time></trkpt><trkpt lat="42.0768258" lon="11.99972"><ele>409.0</ele><time>2026-04-30T08:50:13.074Z</time></trkpt><trkpt lat="42.0767589" lon="11.9996168"><ele>409.0</ele><time>2026-04-30T08:50:14.09Z</time></trkpt><trkpt lat="42.0766419" lon="11.9994253"><ele>408.5</ele><time>2026-04-30T08:50:16.017Z</time></trkpt><trkpt lat="42.076566" lon="11.9993031"><ele>408.0</ele><time>2026-04-30T08:50:17.164Z</time></trkpt><trkpt lat="42.0764504" lon="11.9991235"><ele>407.5</ele><time>2026-04-30T08:50:18.834Z</time></trkpt><trkpt lat="42.0763789" lon="11.9989935"><ele>407.0</ele><time>2026-04-30T08:50:19.993Z</time></trkpt><trkpt lat="42.0763271" lon="11.9988871"><ele>407.0</ele><time>2026-04-30T08:50:21.019Z</time></trkpt><trkpt lat="42.0762719" lon="11.9987898"><ele>407.0</ele><time>2026-04-30T08:50:21.971Z</time></trkpt><trkpt lat="42.0761886" lon="11.9986682"><ele>407.0</ele><time>2026-04-30T08:50:23.103Z</time></trkpt><trkpt lat="42.0760493" lon="11.9984809"><ele>407.0</ele><time>2026-04-30T08:50:24.956Z</time></trkpt><trkpt lat="42.0759559" lon="11.9983719"><ele>406.0</ele><time>2026-04-30T08:50:26.005Z</time></trkpt><trkpt lat="42.0757669" lon="11.9981991"><ele>405.0</ele><time>2026-04-30T08:50:28.069Z</time></trkpt><trkpt lat="42.075606" lon="11.9980489"><ele>404.0</ele><time>2026-04-30T08:50:29.892Z</time></trkpt><trkpt lat="42.0755119" lon="11.9979696"><ele>404.0</ele><time>2026-04-30T08:50:30.907Z</time></trkpt><trkpt lat="42.075414" lon="11.9978954"><ele>404.0</ele><time>2026-04-30T08:50:31.961Z</time></trkpt><trkpt lat="42.0753104" lon="11.9978262"><ele>404.0</ele><time>2026-04-30T08:50:33.083Z</time></trkpt><trkpt lat="42.0751327" lon="11.9976995"><ele>404.0</ele><time>2026-04-30T08:50:35.082Z</time></trkpt><trkpt lat="42.0750582" lon="11.9976271"><ele>404.0</ele><time>2026-04-30T08:50:35.986Z</time></trkpt><trkpt lat="42.0749798" lon="11.997538"><ele>404.0</ele><time>2026-04-30T08:50:37.049Z</time></trkpt><trkpt lat="42.0748205" lon="11.99733"><ele>404.0</ele><time>2026-04-30T08:50:39.154Z</time></trkpt><trkpt lat="42.0746821" lon="11.9971409"><ele>403.75</ele><time>2026-04-30T08:50:41.095Z</time></trkpt><trkpt lat="42.074611" lon="11.997051"><ele>403.5</ele><time>2026-04-30T08:50:42.073Z</time></trkpt><trkpt lat="42.0745308" lon="11.996943"><ele>403.25</ele><time>2026-04-30T08:50:43.155Z</time></trkpt><trkpt lat="42.0744002" lon="11.9967579"><ele>403.0</ele><time>2026-04-30T08:50:44.957Z</time></trkpt><trkpt lat="42.0743276" lon="11.9966532"><ele>404.6666666666667</ele><time>2026-04-30T08:50:46.09Z</time></trkpt><trkpt lat="42.074164" lon="11.996479"><ele>406.33333333333337</ele><time>2026-04-30T08:50:48.167Z</time></trkpt><trkpt lat="42.0740072" lon="11.9963493"><ele>408.0</ele><time>2026-04-30T08:50:49.973Z</time></trkpt><trkpt lat="42.0739036" lon="11.9962899"><ele>408.0</ele><time>2026-04-30T08:50:51.126Z</time></trkpt><trkpt lat="42.0738184" lon="11.99625"><ele>408.0</ele><time>2026-04-30T08:50:52.059Z</time></trkpt><trkpt lat="42.0737329" lon="11.9962239"><ele>408.0</ele><time>2026-04-30T08:50:52.968Z</time></trkpt><trkpt lat="42.0736287" lon="11.9962002"><ele>408.0</ele><time>2026-04-30T08:50:54.033Z</time></trkpt><trkpt lat="42.073522" lon="11.9961836"><ele>408.0</ele><time>2026-04-30T08:50:55.105Z</time></trkpt><trkpt lat="42.0734174" lon="11.9961672"><ele>408.0</ele><time>2026-04-30T08:50:56.099Z</time></trkpt><trkpt lat="42.0733177" lon="11.996155"><ele>408.0</ele><time>2026-04-30T08:50:57.036Z</time></trkpt><trkpt lat="42.0732052" lon="11.9961426"><ele>408.0</ele><time>2026-04-30T08:50:58.081Z</time></trkpt><trkpt lat="42.0729822" lon="11.9961145"><ele>408.0</ele><time>2026-04-30T08:51:00.103Z</time></trkpt><trkpt lat="42.0728809" lon="11.9961056"><ele>405.2</ele><time>2026-04-30T08:51:01.028Z</time></trkpt><trkpt lat="42.0727743" lon="11.9960918"><ele>402.4</ele><time>2026-04-30T08:51:01.948Z</time></trkpt><trkpt lat="42.0726688" lon="11.9960813"><ele>399.59999999999997</ele><time>2026-04-30T08:51:02.999Z</time></trkpt><trkpt lat="42.0725785" lon="11.9960619"><ele>396.79999999999995</ele><time>2026-04-30T08:51:03.93Z</time></trkpt><trkpt lat="42.0724704" lon="11.9960306"><ele>394.0</ele><time>2026-04-30T08:51:05.076Z</time></trkpt><trkpt lat="42.0722915" lon="11.9959264"><ele>396.0</ele><time>2026-04-30T08:51:07.132Z</time></trkpt><trkpt lat="42.0722003" lon="11.9958667"><ele>398.0</ele><time>2026-04-30T08:51:08.159Z</time></trkpt><trkpt lat="42.0720333" lon="11.9957798"><ele>400.0</ele><time>2026-04-30T08:51:09.874Z</time></trkpt><trkpt lat="42.071908" lon="11.9957161"><ele>402.0</ele><time>2026-04-30T08:51:11.091Z</time></trkpt><trkpt lat="42.0717247" lon="11.9956318"><ele>400.75</ele><time>2026-04-30T08:51:12.939Z</time></trkpt><trkpt lat="42.0715984" lon="11.9955906"><ele>399.5</ele><time>2026-04-30T08:51:14.234Z</time></trkpt><trkpt lat="42.0714143" lon="11.9955864"><ele>398.25</ele><time>2026-04-30T08:51:16.034Z</time></trkpt><trkpt lat="42.0712967" lon="11.9956143"><ele>397.0</ele><time>2026-04-30T08:51:17.195Z</time></trkpt><trkpt lat="42.0711184" lon="11.9957112"><ele>397.0</ele><time>2026-04-30T08:51:19.076Z</time></trkpt><trkpt lat="42.0710371" lon="11.9957435"><ele>397.0</ele><time>2026-04-30T08:51:20.003Z</time></trkpt><trkpt lat="42.0708547" lon="11.9957725"><ele>397.0</ele><time>2026-04-30T08:51:22.047Z</time></trkpt><trkpt lat="42.0707437" lon="11.995757"><ele>397.0</ele><time>2026-04-30T08:51:23.145Z</time></trkpt><trkpt lat="42.0706479" lon="11.9957115"><ele>393.25</ele><time>2026-04-30T08:51:24.179Z</time></trkpt><trkpt lat="42.070555" lon="11.9956448"><ele>389.5</ele><time>2026-04-30T08:51:25.239Z</time></trkpt><trkpt lat="42.0704206" lon="11.9955376"><ele>385.75</ele><time>2026-04-30T08:51:27.07Z</time></trkpt><trkpt lat="42.0703156" lon="11.9954433"><ele>382.0</ele><time>2026-04-30T08:51:28.023Z</time></trkpt><trkpt lat="42.0702336" lon="11.9953403"><ele>382.0</ele><time>2026-04-30T08:51:29.136Z</time></trkpt><trkpt lat="42.0701778" lon="11.9952505"><ele>382.0</ele><time>2026-04-30T08:51:30.114Z</time></trkpt><trkpt lat="42.0700439" lon="11.9950308"><ele>382.0</ele><time>2026-04-30T08:51:32.196Z</time></trkpt><trkpt lat="42.0699778" lon="11.9949212"><ele>382.0</ele><time>2026-04-30T08:51:33.234Z</time></trkpt><trkpt lat="42.0698735" lon="11.9947288"><ele>381.40000000000003</ele><time>2026-04-30T08:51:35.104Z</time></trkpt><trkpt lat="42.0698397" lon="11.9946456"><ele>380.8</ele><time>2026-04-30T08:51:36.04Z</time></trkpt><trkpt lat="42.0698068" lon="11.9944422"><ele>380.2</ele><time>2026-04-30T08:51:38.923Z</time></trkpt><trkpt lat="42.0697803" lon="11.9943568"><ele>379.6</ele><time>2026-04-30T08:51:40.236Z</time></trkpt><trkpt lat="42.0697351" lon="11.9942382"><ele>379.0</ele><time>2026-04-30T08:51:42.119Z</time></trkpt><trkpt lat="42.0697128" lon="11.9941523"><ele>379.0</ele><time>2026-04-30T08:51:45.156Z</time></trkpt><trkpt lat="42.0697119" lon="11.9940674"><ele>379.0</ele><time>2026-04-30T08:52:08.172Z</time></trkpt><trkpt lat="42.0697923" lon="11.9940571"><ele>379.0</ele><time>2026-04-30T08:52:29.164Z</time></trkpt><trkpt lat="42.0698421" lon="11.9941104"><ele>379.0</ele><time>2026-04-30T08:52:30.201Z</time></trkpt><trkpt lat="42.0698905" lon="11.9942233"><ele>379.0</ele><time>2026-04-30T08:52:32.145Z</time></trkpt><trkpt lat="42.0700399" lon="11.9943771"><ele>380.4</ele><time>2026-04-30T08:52:35.236Z</time></trkpt><trkpt lat="42.0701292" lon="11.9944167"><ele>381.79999999999995</ele><time>2026-04-30T08:52:36.889Z</time></trkpt><trkpt lat="42.0702073" lon="11.9944491"><ele>383.20000000000005</ele><time>2026-04-30T08:52:38.231Z</time></trkpt><trkpt lat="42.0702899" lon="11.9944419"><ele>384.6</ele><time>2026-04-30T08:52:39.16Z</time></trkpt><trkpt lat="42.0703648" lon="11.9944895"><ele>386.0</ele><time>2026-04-30T08:52:41.339Z</time></trkpt><trkpt lat="42.0704054" lon="11.9946537"><ele>386.0</ele><time>2026-04-30T08:52:43.128Z</time></trkpt><trkpt lat="42.070485" lon="11.9947568"><ele>386.0</ele><time>2026-04-30T08:52:45.09Z</time></trkpt><trkpt lat="42.0705372" lon="11.9948868"><ele>386.0</ele><time>2026-04-30T08:52:47.26Z</time></trkpt><trkpt lat="42.0706835" lon="11.9948055"><ele>386.0</ele><time>2026-04-30T08:52:51.284Z</time></trkpt><trkpt lat="42.0707517" lon="11.9948738"><ele>390.4</ele><time>2026-04-30T08:52:53.267Z</time></trkpt><trkpt lat="42.0708733" lon="11.9949563"><ele>394.8</ele><time>2026-04-30T08:52:55.065Z</time></trkpt><trkpt lat="42.0709462" lon="11.9949737"><ele>399.2</ele><time>2026-04-30T08:52:56.119Z</time></trkpt><trkpt lat="42.0710551" lon="11.9949806"><ele>403.59999999999997</ele><time>2026-04-30T08:52:58.211Z</time></trkpt><trkpt lat="42.0711579" lon="11.9949423"><ele>408.0</ele><time>2026-04-30T08:53:00.226Z</time></trkpt><trkpt lat="42.0712657" lon="11.9949084"><ele>408.0</ele><time>2026-04-30T08:53:02.119Z</time></trkpt><trkpt lat="42.0713963" lon="11.9948634"><ele>408.0</ele><time>2026-04-30T08:53:05.094Z</time></trkpt><trkpt lat="42.0714894" lon="11.9948653"><ele>408.0</ele><time>2026-04-30T08:53:07.144Z</time></trkpt><trkpt lat="42.0715747" lon="11.9948494"><ele>408.0</ele><time>2026-04-30T08:53:09.106Z</time></trkpt><trkpt lat="42.0716726" lon="11.9948194"><ele>408.0</ele><time>2026-04-30T08:53:11.216Z</time></trkpt><trkpt lat="42.0717374" lon="11.9947422"><ele>411.0</ele><time>2026-04-30T08:53:13.19Z</time></trkpt><trkpt lat="42.0717437" lon="11.9946511"><ele>414.0</ele><time>2026-04-30T08:53:15.021Z</time></trkpt><trkpt lat="42.0717888" lon="11.9944953"><ele>417.0</ele><time>2026-04-30T08:53:17.925Z</time></trkpt><trkpt lat="42.071902" lon="11.9945505"><ele>420.0</ele><time>2026-04-30T08:53:20.997Z</time></trkpt><trkpt lat="42.0719881" lon="11.994578"><ele>423.0</ele><time>2026-04-30T08:53:22.95Z</time></trkpt><trkpt lat="42.0720679" lon="11.9945813"><ele>423.0</ele><time>2026-04-30T08:53:24.19Z</time></trkpt><trkpt lat="42.072194" lon="11.9945804"><ele>423.0</ele><time>2026-04-30T08:53:25.942Z</time></trkpt><trkpt lat="42.0722587" lon="11.9946229"><ele>423.0</ele><time>2026-04-30T08:53:27.094Z</time></trkpt><trkpt lat="42.0723278" lon="11.9946303"><ele>423.0</ele><time>2026-04-30T08:53:28.97Z</time></trkpt><trkpt lat="42.0724164" lon="11.9945362"><ele>423.0</ele><time>2026-04-30T08:53:33.035Z</time></trkpt><trkpt lat="42.0724745" lon="11.9944464"><ele>426.0</ele><time>2026-04-30T08:53:35.095Z</time></trkpt><trkpt lat="42.0725248" lon="11.99439"><ele>429.0</ele><time>2026-04-30T08:53:36.049Z</time></trkpt><trkpt lat="42.0726144" lon="11.9943137"><ele>431.99999999999994</ele><time>2026-04-30T08:53:38.061Z</time></trkpt><trkpt lat="42.0727279" lon="11.9942466"><ele>435.0</ele><time>2026-04-30T08:53:41.027Z</time></trkpt><trkpt lat="42.0727953" lon="11.9941532"><ele>438.0</ele><time>2026-04-30T08:53:42.908Z</time></trkpt><trkpt lat="42.0728089" lon="11.9939815"><ele>441.75</ele><time>2026-04-30T08:53:45.101Z</time></trkpt><trkpt lat="42.0728212" lon="11.9938175"><ele>445.5</ele><time>2026-04-30T08:53:47.106Z</time></trkpt><trkpt lat="42.0728189" lon="11.993639"><ele>449.25</ele><time>2026-04-30T08:53:49.227Z</time></trkpt><trkpt lat="42.0728199" lon="11.9934728"><ele>453.0</ele><time>2026-04-30T08:53:51.151Z</time></trkpt><trkpt lat="42.072826" lon="11.9933258"><ele>454.59999999999997</ele><time>2026-04-30T08:53:52.989Z</time></trkpt><trkpt lat="42.0728165" lon="11.9931987"><ele>456.19999999999993</ele><time>2026-04-30T08:53:54.887Z</time></trkpt><trkpt lat="42.0728118" lon="11.9931019"><ele>457.8</ele><time>2026-04-30T08:53:56.217Z</time></trkpt><trkpt lat="42.0728518" lon="11.9928457"><ele>459.4</ele><time>2026-04-30T08:53:58.223Z</time></trkpt><trkpt lat="42.0728547" lon="11.9927597"><ele>461.0</ele><time>2026-04-30T08:53:59.15Z</time></trkpt><trkpt lat="42.0728645" lon="11.9925838"><ele>462.6</ele><time>2026-04-30T08:54:01.209Z</time></trkpt><trkpt lat="42.0728881" lon="11.9924406"><ele>464.20000000000005</ele><time>2026-04-30T08:54:03.146Z</time></trkpt><trkpt lat="42.0729333" lon="11.9922798"><ele>465.79999999999995</ele><time>2026-04-30T08:54:05.195Z</time></trkpt><trkpt lat="42.0729732" lon="11.9921173"><ele>467.4</ele><time>2026-04-30T08:54:06.956Z</time></trkpt><trkpt lat="42.0729804" lon="11.9920323"><ele>469.0</ele><time>2026-04-30T08:54:08.027Z</time></trkpt><trkpt lat="42.0729815" lon="11.9919403"><ele>469.0</ele><time>2026-04-30T08:54:09.195Z</time></trkpt><trkpt lat="42.0729863" lon="11.9918533"><ele>469.0</ele><time>2026-04-30T08:54:10.116Z</time></trkpt><trkpt lat="42.073007" lon="11.9916062"><ele>469.0</ele><time>2026-04-30T08:54:12.143Z</time></trkpt><trkpt lat="42.0730011" lon="11.9915161"><ele>469.0</ele><time>2026-04-30T08:54:14.307Z</time></trkpt><trkpt lat="42.0729789" lon="11.9913755"><ele>469.0</ele><time>2026-04-30T08:54:16.097Z</time></trkpt><trkpt lat="42.0728452" lon="11.9912388"><ele>471.0</ele><time>2026-04-30T08:54:18.076Z</time></trkpt><trkpt lat="42.0727994" lon="11.9911193"><ele>473.0</ele><time>2026-04-30T08:54:19.033Z</time></trkpt><trkpt lat="42.0727545" lon="11.9910299"><ele>475.0</ele><time>2026-04-30T08:54:19.984Z</time></trkpt><trkpt lat="42.0727327" lon="11.990923"><ele>477.0</ele><time>2026-04-30T08:54:21.097Z</time></trkpt><trkpt lat="42.0727703" lon="11.9907834"><ele>479.0</ele><time>2026-04-30T08:54:23.105Z</time></trkpt><trkpt lat="42.0727661" lon="11.9906189"><ele>480.75</ele><time>2026-04-30T08:54:25.137Z</time></trkpt><trkpt lat="42.0726801" lon="11.9904797"><ele>482.5</ele><time>2026-04-30T08:54:27.052Z</time></trkpt><trkpt lat="42.0726105" lon="11.9904069"><ele>484.25</ele><time>2026-04-30T08:54:28.108Z</time></trkpt><trkpt lat="42.072519" lon="11.9903587"><ele>486.0</ele><time>2026-04-30T08:54:29.078Z</time></trkpt><trkpt lat="42.07294" lon="11.9901419"><ele>486.0</ele><time>2026-04-30T08:54:30.18Z</time></trkpt><trkpt lat="42.072903" lon="11.9900727"><ele>486.0</ele><time>2026-04-30T08:54:31.123Z</time></trkpt><trkpt lat="42.0728701" lon="11.9899971"><ele>486.0</ele><time>2026-04-30T08:54:32.037Z</time></trkpt><trkpt lat="42.072811" lon="11.9897304"><ele>486.0</ele><time>2026-04-30T08:54:35.108Z</time></trkpt><trkpt lat="42.0727347" lon="11.9897048"><ele>486.0</ele><time>2026-04-30T08:54:36.138Z</time></trkpt><trkpt lat="42.0726613" lon="11.9896673"><ele>487.25</ele><time>2026-04-30T08:54:37.237Z</time></trkpt><trkpt lat="42.0725744" lon="11.9895815"><ele>488.5</ele><time>2026-04-30T08:54:39.164Z</time></trkpt><trkpt lat="42.0725523" lon="11.989454"><ele>489.75</ele><time>2026-04-30T08:54:41.197Z</time></trkpt><trkpt lat="42.0725688" lon="11.9892785"><ele>491.0</ele><time>2026-04-30T08:54:43.065Z</time></trkpt><trkpt lat="42.0725791" lon="11.9890994"><ele>491.0</ele><time>2026-04-30T08:54:44.138Z</time></trkpt><trkpt lat="42.0725768" lon="11.9889121"><ele>491.0</ele><time>2026-04-30T08:54:45.277Z</time></trkpt><trkpt lat="42.0724589" lon="11.9887226"><ele>491.0</ele><time>2026-04-30T08:54:47.125Z</time></trkpt><trkpt lat="42.0724575" lon="11.9886267"><ele>491.0</ele><time>2026-04-30T08:54:48.166Z</time></trkpt><trkpt lat="42.0724534" lon="11.988512"><ele>491.0</ele><time>2026-04-30T08:54:49.099Z</time></trkpt><trkpt lat="42.0724483" lon="11.9883976"><ele>491.0</ele><time>2026-04-30T08:54:50.086Z</time></trkpt><trkpt lat="42.072438" lon="11.9882962"><ele>491.0</ele><time>2026-04-30T08:54:51.103Z</time></trkpt><trkpt lat="42.0724267" lon="11.9881074"><ele>491.0</ele><time>2026-04-30T08:54:52.995Z</time></trkpt><trkpt lat="42.072406" lon="11.9879945"><ele>491.0</ele><time>2026-04-30T08:54:54.011Z</time></trkpt><trkpt lat="42.0723559" lon="11.987863"><ele>487.99999999999994</ele><time>2026-04-30T08:54:56.22Z</time></trkpt><trkpt lat="42.0723089" lon="11.9877841"><ele>485.0</ele><time>2026-04-30T08:54:57.231Z</time></trkpt><trkpt lat="42.0722658" lon="11.9876276"><ele>482.0</ele><time>2026-04-30T08:54:58.998Z</time></trkpt><trkpt lat="42.0722372" lon="11.9875445"><ele>479.0</ele><time>2026-04-30T08:55:00.078Z</time></trkpt><trkpt lat="42.0722108" lon="11.9874346"><ele>475.99999999999994</ele><time>2026-04-30T08:55:01.945Z</time></trkpt><trkpt lat="42.0721883" lon="11.9873448"><ele>473.0</ele><time>2026-04-30T08:55:03.875Z</time></trkpt><trkpt lat="42.0721143" lon="11.9871902"><ele>473.0</ele><time>2026-04-30T08:55:07.098Z</time></trkpt><trkpt lat="42.0720588" lon="11.987065"><ele>473.0</ele><time>2026-04-30T08:55:22.139Z</time></trkpt><trkpt lat="42.0719942" lon="11.986954"><ele>473.0</ele><time>2026-04-30T08:55:24.254Z</time></trkpt><trkpt lat="42.0719094" lon="11.9868239"><ele>473.0</ele><time>2026-04-30T08:55:26.177Z</time></trkpt><trkpt lat="42.0718182" lon="11.9866694"><ele>473.0</ele><time>2026-04-30T08:55:28.29Z</time></trkpt><trkpt lat="42.0717589" lon="11.9865541"><ele>473.0</ele><time>2026-04-30T08:55:30.111Z</time></trkpt><trkpt lat="42.0716625" lon="11.986428"><ele>473.0</ele><time>2026-04-30T08:55:32.155Z</time></trkpt><trkpt lat="42.0715914" lon="11.9863474"><ele>473.0</ele><time>2026-04-30T08:55:33.086Z</time></trkpt><trkpt lat="42.0714768" lon="11.9862662"><ele>469.0</ele><time>2026-04-30T08:55:35.084Z</time></trkpt><trkpt lat="42.071423" lon="11.9862081"><ele>464.99999999999994</ele><time>2026-04-30T08:55:36.11Z</time></trkpt><trkpt lat="42.0713148" lon="11.9860888"><ele>460.99999999999994</ele><time>2026-04-30T08:55:38.143Z</time></trkpt><trkpt lat="42.0712309" lon="11.9860082"><ele>457.0</ele><time>2026-04-30T08:55:39.994Z</time></trkpt><trkpt lat="42.0711569" lon="11.9859434"><ele>453.0</ele><time>2026-04-30T08:55:41.146Z</time></trkpt><trkpt lat="42.0711016" lon="11.9858813"><ele>452.0</ele><time>2026-04-30T08:55:42.149Z</time></trkpt><trkpt lat="42.0710289" lon="11.9857958"><ele>451.0</ele><time>2026-04-30T08:55:43.166Z</time></trkpt><trkpt lat="42.0708624" lon="11.985671"><ele>450.0</ele><time>2026-04-30T08:55:46.182Z</time></trkpt><trkpt lat="42.0708013" lon="11.9856229"><ele>449.0</ele><time>2026-04-30T08:55:47.191Z</time></trkpt><trkpt lat="42.0707063" lon="11.9855388"><ele>449.0</ele><time>2026-04-30T08:55:49.192Z</time></trkpt><trkpt lat="42.0706006" lon="11.9854507"><ele>449.0</ele><time>2026-04-30T08:55:51.247Z</time></trkpt><trkpt lat="42.0705477" lon="11.985397"><ele>449.0</ele><time>2026-04-30T08:55:52.387Z</time></trkpt><trkpt lat="42.0704502" lon="11.9852683"><ele>449.0</ele><time>2026-04-30T08:55:54.198Z</time></trkpt><trkpt lat="42.0703753" lon="11.9851561"><ele>449.0</ele><time>2026-04-30T08:55:56.197Z</time></trkpt><trkpt lat="42.0703312" lon="11.985076"><ele>449.5</ele><time>2026-04-30T08:55:57.234Z</time></trkpt><trkpt lat="42.0702243" lon="11.9849506"><ele>450.0</ele><time>2026-04-30T08:55:59.191Z</time></trkpt><trkpt lat="42.0701099" lon="11.9848358"><ele>450.5</ele><time>2026-04-30T08:56:01.057Z</time></trkpt><trkpt lat="42.0700516" lon="11.9847468"><ele>451.0</ele><time>2026-04-30T08:56:02.205Z</time></trkpt><trkpt lat="42.0699348" lon="11.9845892"><ele>447.8</ele><time>2026-04-30T08:56:04.293Z</time></trkpt><trkpt lat="42.0698054" lon="11.9844663"><ele>444.6</ele><time>2026-04-30T08:56:06.131Z</time></trkpt><trkpt lat="42.0697299" lon="11.984421"><ele>441.4</ele><time>2026-04-30T08:56:07.089Z</time></trkpt><trkpt lat="42.0696433" lon="11.9843349"><ele>438.2</ele><time>2026-04-30T08:56:08.826Z</time></trkpt><trkpt lat="42.0695711" lon="11.9842692"><ele>435.0</ele><time>2026-04-30T08:56:10.165Z</time></trkpt><trkpt lat="42.0694846" lon="11.9842028"><ele>434.8</ele><time>2026-04-30T08:56:12.075Z</time></trkpt><trkpt lat="42.0694496" lon="11.9841143"><ele>434.6</ele><time>2026-04-30T08:56:13.219Z</time></trkpt><trkpt lat="42.0693766" lon="11.9840107"><ele>434.4</ele><time>2026-04-30T08:56:15.097Z</time></trkpt><trkpt lat="42.0693157" lon="11.9839304"><ele>434.2</ele><time>2026-04-30T08:56:16.183Z</time></trkpt><trkpt lat="42.0692555" lon="11.983847"><ele>434.0</ele><time>2026-04-30T08:56:17.241Z</time></trkpt><trkpt lat="42.0691152" lon="11.9836871"><ele>430.8333333333333</ele><time>2026-04-30T08:56:20.092Z</time></trkpt><trkpt lat="42.0690458" lon="11.9836193"><ele>427.66666666666663</ele><time>2026-04-30T08:56:21.165Z</time></trkpt><trkpt lat="42.0689871" lon="11.9835595"><ele>424.5</ele><time>2026-04-30T08:56:22.094Z</time></trkpt><trkpt lat="42.0689322" lon="11.9835064"><ele>421.33333333333337</ele><time>2026-04-30T08:56:23.053Z</time></trkpt><trkpt lat="42.0688836" lon="11.9834445"><ele>418.1666666666667</ele><time>2026-04-30T08:56:24.119Z</time></trkpt><trkpt lat="42.0688141" lon="11.9833971"><ele>415.0</ele><time>2026-04-30T08:56:25.227Z</time></trkpt><trkpt lat="42.0687413" lon="11.983332"><ele>414.8</ele><time>2026-04-30T08:56:27.066Z</time></trkpt><trkpt lat="42.0686521" lon="11.9832986"><ele>414.6</ele><time>2026-04-30T08:56:30.01Z</time></trkpt><trkpt lat="42.0685787" lon="11.9832296"><ele>414.4</ele><time>2026-04-30T08:56:32.053Z</time></trkpt><trkpt lat="42.0684696" lon="11.9831207"><ele>414.2</ele><time>2026-04-30T08:56:35.071Z</time></trkpt><trkpt lat="42.0683754" lon="11.9830468"><ele>414.0</ele><time>2026-04-30T08:56:37.029Z</time></trkpt><trkpt lat="42.0682921" lon="11.9830049"><ele>409.79999999999995</ele><time>2026-04-30T08:56:39.153Z</time></trkpt><trkpt lat="42.0682231" lon="11.9829513"><ele>405.59999999999997</ele><time>2026-04-30T08:56:41.21Z</time></trkpt><trkpt lat="42.0681574" lon="11.9828779"><ele>401.4</ele><time>2026-04-30T08:56:43.072Z</time></trkpt><trkpt lat="42.0680385" lon="11.9828228"><ele>397.2</ele><time>2026-04-30T08:56:46.032Z</time></trkpt><trkpt lat="42.0679017" lon="11.9827485"><ele>393.0</ele><time>2026-04-30T08:56:49.268Z</time></trkpt><trkpt lat="42.0678183" lon="11.9827072"><ele>393.0</ele><time>2026-04-30T08:56:51.249Z</time></trkpt><trkpt lat="42.0677468" lon="11.9826567"><ele>393.0</ele><time>2026-04-30T08:56:52.872Z</time></trkpt><trkpt lat="42.0676591" lon="11.9826057"><ele>393.0</ele><time>2026-04-30T08:56:55.974Z</time></trkpt><trkpt lat="42.0675937" lon="11.9825391"><ele>393.0</ele><time>2026-04-30T08:56:59.212Z</time></trkpt><trkpt lat="42.0675331" lon="11.9824559"><ele>393.0</ele><time>2026-04-30T08:57:01.103Z</time></trkpt><trkpt lat="42.067413" lon="11.9823851"><ele>388.0</ele><time>2026-04-30T08:57:03.942Z</time></trkpt><trkpt lat="42.0672528" lon="11.9824836"><ele>383.0</ele><time>2026-04-30T08:57:07.148Z</time></trkpt><trkpt lat="42.0671732" lon="11.9825429"><ele>378.0</ele><time>2026-04-30T08:57:08.992Z</time></trkpt><trkpt lat="42.0670851" lon="11.9824526"><ele>373.0</ele><time>2026-04-30T08:57:12.996Z</time></trkpt><trkpt lat="42.0670198" lon="11.9823026"><ele>372.8333333333333</ele><time>2026-04-30T08:57:15.217Z</time></trkpt><trkpt lat="42.0669441" lon="11.9822332"><ele>372.66666666666663</ele><time>2026-04-30T08:57:17.051Z</time></trkpt><trkpt lat="42.0668609" lon="11.9821564"><ele>372.5</ele><time>2026-04-30T08:57:19.14Z</time></trkpt><trkpt lat="42.0667962" lon="11.9821287"><ele>372.3333333333333</ele><time>2026-04-30T08:57:20.134Z</time></trkpt><trkpt lat="42.0667301" lon="11.9820976"><ele>372.1666666666667</ele><time>2026-04-30T08:57:21.2Z</time></trkpt><trkpt lat="42.0666604" lon="11.982078"><ele>372.0</ele><time>2026-04-30T08:57:23.17Z</time></trkpt><trkpt lat="42.066548" lon="11.9820647"><ele>368.20000000000005</ele><time>2026-04-30T08:57:26.224Z</time></trkpt><trkpt lat="42.0664488" lon="11.9820552"><ele>364.4</ele><time>2026-04-30T08:57:28.174Z</time></trkpt><trkpt lat="42.066326" lon="11.9820508"><ele>360.6</ele><time>2026-04-30T08:57:30.113Z</time></trkpt><trkpt lat="42.0662333" lon="11.9820562"><ele>356.79999999999995</ele><time>2026-04-30T08:57:32.142Z</time></trkpt><trkpt lat="42.0661294" lon="11.9820231"><ele>353.0</ele><time>2026-04-30T08:57:34.185Z</time></trkpt><trkpt lat="42.0660609" lon="11.9819856"><ele>353.0</ele><time>2026-04-30T08:57:35.97Z</time></trkpt><trkpt lat="42.0659841" lon="11.981982"><ele>353.0</ele><time>2026-04-30T08:57:36.973Z</time></trkpt><trkpt lat="42.0658819" lon="11.9819381"><ele>353.0</ele><time>2026-04-30T08:57:38.953Z</time></trkpt><trkpt lat="42.0657396" lon="11.9818669"><ele>353.0</ele><time>2026-04-30T08:57:42.038Z</time></trkpt><trkpt lat="42.0656445" lon="11.9817217"><ele>349.79999999999995</ele><time>2026-04-30T08:57:45.065Z</time></trkpt><trkpt lat="42.0656009" lon="11.9816458"><ele>346.6</ele><time>2026-04-30T08:57:46.139Z</time></trkpt><trkpt lat="42.0655385" lon="11.9815191"><ele>343.4</ele><time>2026-04-30T08:57:48.206Z</time></trkpt><trkpt lat="42.0654529" lon="11.9813885"><ele>340.20000000000005</ele><time>2026-04-30T08:57:50.095Z</time></trkpt><trkpt lat="42.065397" lon="11.9813123"><ele>337.0</ele><time>2026-04-30T08:57:51.341Z</time></trkpt><trkpt lat="42.0653073" lon="11.9812272"><ele>337.0</ele><time>2026-04-30T08:57:53.207Z</time></trkpt><trkpt lat="42.0652357" lon="11.9811267"><ele>337.0</ele><time>2026-04-30T08:57:55.158Z</time></trkpt><trkpt lat="42.0651609" lon="11.9810478"><ele>337.0</ele><time>2026-04-30T08:57:57.131Z</time></trkpt><trkpt lat="42.065079" lon="11.9809824"><ele>337.0</ele><time>2026-04-30T08:57:59.189Z</time></trkpt><trkpt lat="42.0649774" lon="11.9809499"><ele>337.0</ele><time>2026-04-30T08:58:03.065Z</time></trkpt><trkpt lat="42.0649152" lon="11.9808925"><ele>333.5</ele><time>2026-04-30T08:58:06.002Z</time></trkpt><trkpt lat="42.064868" lon="11.9807399"><ele>330.0</ele><time>2026-04-30T08:58:09.163Z</time></trkpt><trkpt lat="42.0647811" lon="11.9806343"><ele>326.5</ele><time>2026-04-30T08:58:10.778Z</time></trkpt><trkpt lat="42.0647081" lon="11.9805545"><ele>323.0</ele><time>2026-04-30T08:58:12.087Z</time></trkpt><trkpt lat="42.0646146" lon="11.9804609"><ele>323.0</ele><time>2026-04-30T08:58:13.985Z</time></trkpt><trkpt lat="42.0645514" lon="11.9804224"><ele>323.0</ele><time>2026-04-30T08:58:15.039Z</time></trkpt><trkpt lat="42.0644463" lon="11.980335"><ele>323.0</ele><time>2026-04-30T08:58:17.096Z</time></trkpt><trkpt lat="42.0643528" lon="11.9802779"><ele>323.0</ele><time>2026-04-30T08:58:18.891Z</time></trkpt><trkpt lat="42.0642721" lon="11.9802187"><ele>323.0</ele><time>2026-04-30T08:58:20.085Z</time></trkpt><trkpt lat="42.0642043" lon="11.9801251"><ele>321.25</ele><time>2026-04-30T08:58:22.024Z</time></trkpt><trkpt lat="42.0641671" lon="11.9799935"><ele>319.5</ele><time>2026-04-30T08:58:24.134Z</time></trkpt><trkpt lat="42.0640107" lon="11.9798312"><ele>317.75</ele><time>2026-04-30T08:58:27.106Z</time></trkpt><trkpt lat="42.0639516" lon="11.9797752"><ele>316.0</ele><time>2026-04-30T08:58:28.11Z</time></trkpt><trkpt lat="42.0638762" lon="11.9796729"><ele>314.2</ele><time>2026-04-30T08:58:30.148Z</time></trkpt><trkpt lat="42.0638556" lon="11.9795914"><ele>312.40000000000003</ele><time>2026-04-30T08:58:31.189Z</time></trkpt><trkpt lat="42.0638462" lon="11.9794707"><ele>310.6</ele><time>2026-04-30T08:58:33.224Z</time></trkpt><trkpt lat="42.063807" lon="11.9793871"><ele>308.8</ele><time>2026-04-30T08:58:35.329Z</time></trkpt><trkpt lat="42.0637453" lon="11.9792932"><ele>307.0</ele><time>2026-04-30T08:58:36.917Z</time></trkpt><trkpt lat="42.0636511" lon="11.979138"><ele>306.8</ele><time>2026-04-30T08:58:39.221Z</time></trkpt><trkpt lat="42.0636199" lon="11.9789793"><ele>306.6</ele><time>2026-04-30T08:58:41.004Z</time></trkpt><trkpt lat="42.0635856" lon="11.9788677"><ele>306.40000000000003</ele><time>2026-04-30T08:58:42.212Z</time></trkpt><trkpt lat="42.0635015" lon="11.9787976"><ele>306.2</ele><time>2026-04-30T08:58:43.877Z</time></trkpt><trkpt lat="42.0634324" lon="11.9787501"><ele>306.0</ele><time>2026-04-30T08:58:45.018Z</time></trkpt><trkpt lat="42.063372" lon="11.978629"><ele>306.0</ele><time>2026-04-30T08:58:46.983Z</time></trkpt><trkpt lat="42.0632927" lon="11.9785345"><ele>306.0</ele><time>2026-04-30T08:58:48.084Z</time></trkpt><trkpt lat="42.0631992" lon="11.9784167"><ele>306.0</ele><time>2026-04-30T08:58:49.171Z</time></trkpt><trkpt lat="42.0631444" lon="11.9783265"><ele>306.0</ele><time>2026-04-30T08:58:50.162Z</time></trkpt><trkpt lat="42.0631031" lon="11.97822"><ele>306.0</ele><time>2026-04-30T08:58:52.155Z</time></trkpt><trkpt lat="42.0630663" lon="11.9781274"><ele>304.8</ele><time>2026-04-30T08:58:53.115Z</time></trkpt><trkpt lat="42.0630295" lon="11.9780297"><ele>303.6</ele><time>2026-04-30T08:58:54.284Z</time></trkpt><trkpt lat="42.0629556" lon="11.9778709"><ele>302.4</ele><time>2026-04-30T08:58:56.039Z</time></trkpt><trkpt lat="42.0628473" lon="11.9777639"><ele>301.2</ele><time>2026-04-30T08:58:58.079Z</time></trkpt><trkpt lat="42.0628086" lon="11.977695"><ele>300.0</ele><time>2026-04-30T08:58:59.062Z</time></trkpt><trkpt lat="42.0627653" lon="11.9775624"><ele>298.2</ele><time>2026-04-30T08:59:01.109Z</time></trkpt><trkpt lat="42.0627008" lon="11.9775074"><ele>296.4</ele><time>2026-04-30T08:59:02.904Z</time></trkpt><trkpt lat="42.0626475" lon="11.9774002"><ele>294.6</ele><time>2026-04-30T08:59:05.099Z</time></trkpt><trkpt lat="42.0625755" lon="11.9773431"><ele>292.8</ele><time>2026-04-30T08:59:07.176Z</time></trkpt><trkpt lat="42.0624797" lon="11.9773731"><ele>291.0</ele><time>2026-04-30T08:59:09.079Z</time></trkpt><trkpt lat="42.0623733" lon="11.9774054"><ele>289.8</ele><time>2026-04-30T08:59:12.181Z</time></trkpt><trkpt lat="42.062253" lon="11.9773498"><ele>288.6</ele><time>2026-04-30T08:59:14.064Z</time></trkpt><trkpt lat="42.0621534" lon="11.9773275"><ele>287.4</ele><time>2026-04-30T08:59:15.071Z</time></trkpt><trkpt lat="42.06208" lon="11.9772589"><ele>286.2</ele><time>2026-04-30T08:59:16.876Z</time></trkpt><trkpt lat="42.0620152" lon="11.9771363"><ele>285.0</ele><time>2026-04-30T08:59:18.534Z</time></trkpt><trkpt lat="42.0619662" lon="11.9770489"><ele>285.0</ele><time>2026-04-30T08:59:20.534Z</time></trkpt><trkpt lat="42.0619017" lon="11.9769869"><ele>285.0</ele><time>2026-04-30T08:59:23.18Z</time></trkpt><trkpt lat="42.0617944" lon="11.9769116"><ele>285.0</ele><time>2026-04-30T08:59:25.123Z</time></trkpt><trkpt lat="42.0617502" lon="11.9768138"><ele>285.0</ele><time>2026-04-30T08:59:26.996Z</time></trkpt><trkpt lat="42.0616929" lon="11.976696"><ele>285.0</ele><time>2026-04-30T08:59:30.094Z</time></trkpt><trkpt lat="42.0616433" lon="11.9766369"><ele>279.5</ele><time>2026-04-30T08:59:32.039Z</time></trkpt><trkpt lat="42.0615886" lon="11.9764523"><ele>274.0</ele><time>2026-04-30T08:59:34.96Z</time></trkpt><trkpt lat="42.0615501" lon="11.9763205"><ele>268.5</ele><time>2026-04-30T08:59:38.049Z</time></trkpt><trkpt lat="42.0614697" lon="11.9762476"><ele>263.0</ele><time>2026-04-30T08:59:40.908Z</time></trkpt><trkpt lat="42.0613795" lon="11.9761593"><ele>263.0</ele><time>2026-04-30T08:59:43.947Z</time></trkpt><trkpt lat="42.0613792" lon="11.9760542"><ele>263.0</ele><time>2026-04-30T08:59:45.92Z</time></trkpt><trkpt lat="42.061404" lon="11.975947"><ele>263.0</ele><time>2026-04-30T08:59:48.061Z</time></trkpt><trkpt lat="42.0614434" lon="11.9758283"><ele>263.0</ele><time>2026-04-30T08:59:50.038Z</time></trkpt><trkpt lat="42.0615183" lon="11.9757165"><ele>263.0</ele><time>2026-04-30T08:59:51.941Z</time></trkpt><trkpt lat="42.0615973" lon="11.9756182"><ele>261.25</ele><time>2026-04-30T08:59:54.173Z</time></trkpt><trkpt lat="42.0616062" lon="11.9754881"><ele>259.5</ele><time>2026-04-30T08:59:57.085Z</time></trkpt><trkpt lat="42.0616389" lon="11.9753758"><ele>257.75</ele><time>2026-04-30T08:59:59.097Z</time></trkpt><trkpt lat="42.0616823" lon="11.9752121"><ele>256.0</ele><time>2026-04-30T09:00:02.129Z</time></trkpt><trkpt lat="42.061718" lon="11.9750119"><ele>252.20000000000002</ele><time>2026-04-30T09:00:05.026Z</time></trkpt><trkpt lat="42.0617594" lon="11.9748812"><ele>248.40000000000003</ele><time>2026-04-30T09:00:07.034Z</time></trkpt><trkpt lat="42.0617789" lon="11.9747723"><ele>244.6</ele><time>2026-04-30T09:00:09.19Z</time></trkpt><trkpt lat="42.0617959" lon="11.9746828"><ele>240.8</ele><time>2026-04-30T09:00:11.795Z</time></trkpt><trkpt lat="42.0618128" lon="11.9745821"><ele>237.0</ele><time>2026-04-30T09:00:17.081Z</time></trkpt><trkpt lat="42.0618153" lon="11.9744185"><ele>237.0</ele><time>2026-04-30T09:00:26.039Z</time></trkpt><trkpt lat="42.0618505" lon="11.9742325"><ele>237.0</ele><time>2026-04-30T09:00:28.193Z</time></trkpt><trkpt lat="42.0618579" lon="11.9741447"><ele>237.0</ele><time>2026-04-30T09:00:29.173Z</time></trkpt><trkpt lat="42.0618451" lon="11.9740374"><ele>237.0</ele><time>2026-04-30T09:00:30.923Z</time></trkpt><trkpt lat="42.0618407" lon="11.9739473"><ele>237.0</ele><time>2026-04-30T09:00:32.004Z</time></trkpt><trkpt lat="42.0618423" lon="11.9738549"><ele>237.0</ele><time>2026-04-30T09:00:33.032Z</time></trkpt><trkpt lat="42.0617717" lon="11.9737137"><ele>237.0</ele><time>2026-04-30T09:00:35.175Z</time></trkpt><trkpt lat="42.0617225" lon="11.9736035"><ele>237.0</ele><time>2026-04-30T09:00:36.998Z</time></trkpt><trkpt lat="42.0616507" lon="11.9734954"><ele>237.0</ele><time>2026-04-30T09:00:39.004Z</time></trkpt><trkpt lat="42.0616146" lon="11.9734158"><ele>237.0</ele><time>2026-04-30T09:00:40.323Z</time></trkpt><trkpt lat="42.0615674" lon="11.9732974"><ele>237.0</ele><time>2026-04-30T09:00:42.042Z</time></trkpt><trkpt lat="42.0615115" lon="11.9731654"><ele>233.25</ele><time>2026-04-30T09:00:44.112Z</time></trkpt><trkpt lat="42.0614045" lon="11.9729876"><ele>229.5</ele><time>2026-04-30T09:00:46.048Z</time></trkpt><trkpt lat="42.0613344" lon="11.9729127"><ele>225.75</ele><time>2026-04-30T09:00:47.062Z</time></trkpt><trkpt lat="42.0612357" lon="11.9727837"><ele>222.0</ele><time>2026-04-30T09:00:49.931Z</time></trkpt><trkpt lat="42.0611029" lon="11.9727402"><ele>222.0</ele><time>2026-04-30T09:00:53.169Z</time></trkpt><trkpt lat="42.0609084" lon="11.9728335"><ele>222.0</ele><time>2026-04-30T09:00:56.987Z</time></trkpt><trkpt lat="42.0608666" lon="11.9729139"><ele>222.0</ele><time>2026-04-30T09:00:58.233Z</time></trkpt><trkpt lat="42.0608032" lon="11.9730921"><ele>222.0</ele><time>2026-04-30T09:01:00.323Z</time></trkpt><trkpt lat="42.0607711" lon="11.9732379"><ele>221.75</ele><time>2026-04-30T09:01:02.095Z</time></trkpt><trkpt lat="42.0607534" lon="11.973412"><ele>221.5</ele><time>2026-04-30T09:01:04.126Z</time></trkpt><trkpt lat="42.0607518" lon="11.9735086"><ele>221.25</ele><time>2026-04-30T09:01:05.205Z</time></trkpt><trkpt lat="42.0607927" lon="11.9736814"><ele>221.0</ele><time>2026-04-30T09:01:07.071Z</time></trkpt><trkpt lat="42.0608446" lon="11.973939"><ele>221.0</ele><time>2026-04-30T09:01:09.973Z</time></trkpt><trkpt lat="42.0608172" lon="11.9740639"><ele>221.00000000000003</ele><time>2026-04-30T09:01:11.986Z</time></trkpt><trkpt lat="42.0607172" lon="11.9741632"><ele>221.00000000000003</ele><time>2026-04-30T09:01:13.949Z</time></trkpt><trkpt lat="42.0606437" lon="11.9742057"><ele>221.0</ele><time>2026-04-30T09:01:15.056Z</time></trkpt><trkpt lat="42.0605748" lon="11.9742552"><ele>221.0</ele><time>2026-04-30T09:01:15.961Z</time></trkpt><trkpt lat="42.0604844" lon="11.9743108"><ele>222.33333333333334</ele><time>2026-04-30T09:01:17.142Z</time></trkpt><trkpt lat="42.0603542" lon="11.9743865"><ele>223.66666666666669</ele><time>2026-04-30T09:01:18.94Z</time></trkpt><trkpt lat="42.0602743" lon="11.9744195"><ele>225.0</ele><time>2026-04-30T09:01:20.113Z</time></trkpt><trkpt lat="42.0602166" lon="11.9744703"><ele>226.33333333333331</ele><time>2026-04-30T09:01:21.092Z</time></trkpt><trkpt lat="42.0601626" lon="11.9745375"><ele>227.66666666666666</ele><time>2026-04-30T09:01:22.046Z</time></trkpt><trkpt lat="42.0601108" lon="11.9746223"><ele>229.0</ele><time>2026-04-30T09:01:23.115Z</time></trkpt><trkpt lat="42.0600562" lon="11.9747146"><ele>229.0</ele><time>2026-04-30T09:01:24.074Z</time></trkpt><trkpt lat="42.0600008" lon="11.9748252"><ele>229.0</ele><time>2026-04-30T09:01:25.086Z</time></trkpt><trkpt lat="42.0599289" lon="11.9749629"><ele>229.0</ele><time>2026-04-30T09:01:26.101Z</time></trkpt><trkpt lat="42.0598281" lon="11.975114"><ele>229.0</ele><time>2026-04-30T09:01:27.188Z</time></trkpt><trkpt lat="42.059732" lon="11.9752547"><ele>226.0</ele><time>2026-04-30T09:01:28.261Z</time></trkpt><trkpt lat="42.0594989" lon="11.9755411"><ele>223.0</ele><time>2026-04-30T09:01:30.146Z</time></trkpt><trkpt lat="42.0594403" lon="11.9756533"><ele>220.0</ele><time>2026-04-30T09:01:31.057Z</time></trkpt><trkpt lat="42.0594659" lon="11.9758083"><ele>222.66666666666666</ele><time>2026-04-30T09:01:32.107Z</time></trkpt><trkpt lat="42.0594133" lon="11.9760199"><ele>225.33333333333331</ele><time>2026-04-30T09:01:34.002Z</time></trkpt><trkpt lat="42.0593697" lon="11.9761509"><ele>228.0</ele><time>2026-04-30T09:01:35.159Z</time></trkpt><trkpt lat="42.0592862" lon="11.9764045"><ele>228.0</ele><time>2026-04-30T09:01:37.07Z</time></trkpt><trkpt lat="42.0592281" lon="11.9765634"><ele>228.0</ele><time>2026-04-30T09:01:38.119Z</time></trkpt><trkpt lat="42.0591407" lon="11.9768064"><ele>228.0</ele><time>2026-04-30T09:01:39.058Z</time></trkpt><trkpt lat="42.059061" lon="11.9769605"><ele>225.66666666666669</ele><time>2026-04-30T09:01:40.101Z</time></trkpt><trkpt lat="42.0589798" lon="11.9770946"><ele>223.33333333333334</ele><time>2026-04-30T09:01:41.187Z</time></trkpt><trkpt lat="42.0588436" lon="11.9772893"><ele>221.0</ele><time>2026-04-30T09:01:43.11Z</time></trkpt><trkpt lat="42.0587171" lon="11.9774682"><ele>220.75</ele><time>2026-04-30T09:01:45.028Z</time></trkpt><trkpt lat="42.0586574" lon="11.9775389"><ele>220.5</ele><time>2026-04-30T09:01:46.092Z</time></trkpt><trkpt lat="42.0585542" lon="11.9776332"><ele>220.25</ele><time>2026-04-30T09:01:48.114Z</time></trkpt><trkpt lat="42.058476" lon="11.9776222"><ele>220.0</ele><time>2026-04-30T09:01:49.128Z</time></trkpt><trkpt lat="42.0581947" lon="11.977436"><ele>216.66666666666666</ele><time>2026-04-30T09:01:52.068Z</time></trkpt><trkpt lat="42.0581021" lon="11.9773604"><ele>213.33333333333331</ele><time>2026-04-30T09:01:53.155Z</time></trkpt><trkpt lat="42.0579251" lon="11.9771851"><ele>210.0</ele><time>2026-04-30T09:01:55.137Z</time></trkpt><trkpt lat="42.0577764" lon="11.977085"><ele>210.0</ele><time>2026-04-30T09:01:57.085Z</time></trkpt><trkpt lat="42.0576817" lon="11.9770406"><ele>210.0</ele><time>2026-04-30T09:01:58.164Z</time></trkpt><trkpt lat="42.0575349" lon="11.9770345"><ele>210.0</ele><time>2026-04-30T09:02:00.037Z</time></trkpt><trkpt lat="42.0573801" lon="11.9768978"><ele>210.0</ele><time>2026-04-30T09:02:03.106Z</time></trkpt><trkpt lat="42.0572979" lon="11.9768396"><ele>206.25</ele><time>2026-04-30T09:02:04.083Z</time></trkpt><trkpt lat="42.0572111" lon="11.9768147"><ele>202.5</ele><time>2026-04-30T09:02:04.993Z</time></trkpt><trkpt lat="42.0571064" lon="11.9767817"><ele>198.75</ele><time>2026-04-30T09:02:06.133Z</time></trkpt><trkpt lat="42.0569584" lon="11.9767196"><ele>195.0</ele><time>2026-04-30T09:02:07.937Z</time></trkpt><trkpt lat="42.0568477" lon="11.976692"><ele>195.2</ele><time>2026-04-30T09:02:09.004Z</time></trkpt><trkpt lat="42.0567313" lon="11.9766528"><ele>195.4</ele><time>2026-04-30T09:02:09.989Z</time></trkpt><trkpt lat="42.0566321" lon="11.9766347"><ele>195.60000000000002</ele><time>2026-04-30T09:02:10.962Z</time></trkpt><trkpt lat="42.0565376" lon="11.9765983"><ele>195.8</ele><time>2026-04-30T09:02:11.965Z</time></trkpt><trkpt lat="42.0564583" lon="11.9765554"><ele>196.0</ele><time>2026-04-30T09:02:13.002Z</time></trkpt><trkpt lat="42.0563521" lon="11.9765108"><ele>193.75</ele><time>2026-04-30T09:02:14.161Z</time></trkpt><trkpt lat="42.0562125" lon="11.9764641"><ele>191.5</ele><time>2026-04-30T09:02:16.109Z</time></trkpt><trkpt lat="42.0561008" lon="11.9764241"><ele>189.25</ele><time>2026-04-30T09:02:18.143Z</time></trkpt><trkpt lat="42.0559969" lon="11.9763502"><ele>187.0</ele><time>2026-04-30T09:02:20.011Z</time></trkpt><trkpt lat="42.0559195" lon="11.9762855"><ele>184.25</ele><time>2026-04-30T09:02:21.206Z</time></trkpt><trkpt lat="42.0557798" lon="11.9761723"><ele>181.5</ele><time>2026-04-30T09:02:23.186Z</time></trkpt><trkpt lat="42.0556476" lon="11.9761247"><ele>178.75</ele><time>2026-04-30T09:02:25.168Z</time></trkpt><trkpt lat="42.0555632" lon="11.9762137"><ele>176.0</ele><time>2026-04-30T09:02:27.122Z</time></trkpt><trkpt lat="42.0554411" lon="11.9764264"><ele>176.0</ele><time>2026-04-30T09:02:29.006Z</time></trkpt><trkpt lat="42.0553894" lon="11.9764953"><ele>176.0</ele><time>2026-04-30T09:02:29.928Z</time></trkpt><trkpt lat="42.0553215" lon="11.9765654"><ele>176.0</ele><time>2026-04-30T09:02:30.993Z</time></trkpt><trkpt lat="42.0552502" lon="11.9766571"><ele>176.0</ele><time>2026-04-30T09:02:32.084Z</time></trkpt><trkpt lat="42.0551545" lon="11.9767787"><ele>176.0</ele><time>2026-04-30T09:02:34.037Z</time></trkpt><trkpt lat="42.0550691" lon="11.9768504"><ele>176.0</ele><time>2026-04-30T09:02:36.017Z</time></trkpt><trkpt lat="42.0549815" lon="11.9768796"><ele>176.0</ele><time>2026-04-30T09:02:37.079Z</time></trkpt><trkpt lat="42.0548849" lon="11.9768777"><ele>176.0</ele><time>2026-04-30T09:02:38.029Z</time></trkpt><trkpt lat="42.0547689" lon="11.9769498"><ele>176.0</ele><time>2026-04-30T09:02:39.102Z</time></trkpt><trkpt lat="42.054674" lon="11.9769867"><ele>176.0</ele><time>2026-04-30T09:02:40.043Z</time></trkpt><trkpt lat="42.0545746" lon="11.9770144"><ele>175.83333333333331</ele><time>2026-04-30T09:02:41.148Z</time></trkpt><trkpt lat="42.0544948" lon="11.9770297"><ele>175.66666666666666</ele><time>2026-04-30T09:02:42.135Z</time></trkpt><trkpt lat="42.054414" lon="11.9770593"><ele>175.5</ele><time>2026-04-30T09:02:43.167Z</time></trkpt><trkpt lat="42.0543183" lon="11.9771645"><ele>175.33333333333334</ele><time>2026-04-30T09:02:45.037Z</time></trkpt><trkpt lat="42.0542686" lon="11.9772172"><ele>175.16666666666669</ele><time>2026-04-30T09:02:46.141Z</time></trkpt><trkpt lat="42.0541997" lon="11.9772607"><ele>175.0</ele><time>2026-04-30T09:02:47.902Z</time></trkpt><trkpt lat="42.0541387" lon="11.9772238"><ele>175.2</ele><time>2026-04-30T09:02:50.201Z</time></trkpt><trkpt lat="42.0540832" lon="11.9771585"><ele>175.4</ele><time>2026-04-30T09:02:59.856Z</time></trkpt><trkpt lat="42.054" lon="11.9771079"><ele>175.60000000000002</ele><time>2026-04-30T09:03:29.153Z</time></trkpt><trkpt lat="42.0539011" lon="11.9770957"><ele>175.8</ele><time>2026-04-30T09:03:30.953Z</time></trkpt><trkpt lat="42.0538213" lon="11.9770639"><ele>176.0</ele><time>2026-04-30T09:03:31.919Z</time></trkpt><trkpt lat="42.0537194" lon="11.9770115"><ele>176.0</ele><time>2026-04-30T09:03:33.036Z</time></trkpt><trkpt lat="42.0535417" lon="11.9769145"><ele>176.0</ele><time>2026-04-30T09:03:34.849Z</time></trkpt><trkpt lat="42.053439" lon="11.9768568"><ele>176.0</ele><time>2026-04-30T09:03:35.78Z</time></trkpt><trkpt lat="42.0532981" lon="11.9767813"><ele>176.0</ele><time>2026-04-30T09:03:37.123Z</time></trkpt><trkpt lat="42.0532354" lon="11.9766859"><ele>176.0</ele><time>2026-04-30T09:03:38.061Z</time></trkpt><trkpt lat="42.053156" lon="11.9765911"><ele>176.0</ele><time>2026-04-30T09:03:39.073Z</time></trkpt><trkpt lat="42.0530936" lon="11.9764935"><ele>176.0</ele><time>2026-04-30T09:03:40.026Z</time></trkpt><trkpt lat="42.0530226" lon="11.9763741"><ele>176.0</ele><time>2026-04-30T09:03:41.133Z</time></trkpt><trkpt lat="42.0529768" lon="11.9762684"><ele>176.0</ele><time>2026-04-30T09:03:42.067Z</time></trkpt><trkpt lat="42.052932" lon="11.9761754"><ele>176.0</ele><time>2026-04-30T09:03:43.118Z</time></trkpt><trkpt lat="42.0528009" lon="11.9760603"><ele>176.0</ele><time>2026-04-30T09:03:45.155Z</time></trkpt><trkpt lat="42.0526681" lon="11.9759255"><ele>176.0</ele><time>2026-04-30T09:03:46.96Z</time></trkpt><trkpt lat="42.0525742" lon="11.9758646"><ele>176.4</ele><time>2026-04-30T09:03:48.134Z</time></trkpt><trkpt lat="42.0524749" lon="11.9758218"><ele>176.8</ele><time>2026-04-30T09:03:49.102Z</time></trkpt><trkpt lat="42.0523719" lon="11.9757813"><ele>177.20000000000002</ele><time>2026-04-30T09:03:50.029Z</time></trkpt><trkpt lat="42.0522497" lon="11.9757213"><ele>177.60000000000002</ele><time>2026-04-30T09:03:51.146Z</time></trkpt><trkpt lat="42.0521532" lon="11.9756677"><ele>178.0</ele><time>2026-04-30T09:03:52.086Z</time></trkpt><trkpt lat="42.0519497" lon="11.9755856"><ele>178.0</ele><time>2026-04-30T09:03:53.958Z</time></trkpt><trkpt lat="42.0517269" lon="11.9755396"><ele>178.0</ele><time>2026-04-30T09:03:55.973Z</time></trkpt><trkpt lat="42.0516072" lon="11.9754985"><ele>178.0</ele><time>2026-04-30T09:03:57.118Z</time></trkpt><trkpt lat="42.0513812" lon="11.9753828"><ele>176.60000000000002</ele><time>2026-04-30T09:03:58.937Z</time></trkpt><trkpt lat="42.0512381" lon="11.9753351"><ele>175.20000000000002</ele><time>2026-04-30T09:03:59.976Z</time></trkpt><trkpt lat="42.051137" lon="11.9752997"><ele>173.8</ele><time>2026-04-30T09:04:00.908Z</time></trkpt><trkpt lat="42.0510404" lon="11.9752638"><ele>172.4</ele><time>2026-04-30T09:04:01.903Z</time></trkpt><trkpt lat="42.0509573" lon="11.9752203"><ele>171.0</ele><time>2026-04-30T09:04:02.88Z</time></trkpt><trkpt lat="42.0508624" lon="11.975156"><ele>170.0</ele><time>2026-04-30T09:04:04.012Z</time></trkpt><trkpt lat="42.0507902" lon="11.9750911"><ele>169.0</ele><time>2026-04-30T09:04:05.042Z</time></trkpt><trkpt lat="42.0507151" lon="11.9750149"><ele>168.0</ele><time>2026-04-30T09:04:06.113Z</time></trkpt><trkpt lat="42.0506453" lon="11.9749374"><ele>167.0</ele><time>2026-04-30T09:04:07.1Z</time></trkpt><trkpt lat="42.0505557" lon="11.9748393"><ele>166.0</ele><time>2026-04-30T09:04:08.104Z</time></trkpt><trkpt lat="42.0504549" lon="11.9747233"><ele>165.66666666666669</ele><time>2026-04-30T09:04:09.06Z</time></trkpt><trkpt lat="42.0503582" lon="11.9745884"><ele>165.33333333333334</ele><time>2026-04-30T09:04:10.082Z</time></trkpt><trkpt lat="42.0502485" lon="11.9744448"><ele>165.0</ele><time>2026-04-30T09:04:11.208Z</time></trkpt><trkpt lat="42.0500873" lon="11.9741609"><ele>166.0</ele><time>2026-04-30T09:04:12.977Z</time></trkpt><trkpt lat="42.049993" lon="11.9739838"><ele>167.0</ele><time>2026-04-30T09:04:13.995Z</time></trkpt><trkpt lat="42.0499011" lon="11.9738649"><ele>168.0</ele><time>2026-04-30T09:04:14.985Z</time></trkpt><trkpt lat="42.0498067" lon="11.9737717"><ele>169.0</ele><time>2026-04-30T09:04:15.987Z</time></trkpt><trkpt lat="42.0496957" lon="11.9737144"><ele>168.2</ele><time>2026-04-30T09:04:17.025Z</time></trkpt><trkpt lat="42.0495766" lon="11.9736726"><ele>167.39999999999998</ele><time>2026-04-30T09:04:18.044Z</time></trkpt><trkpt lat="42.0494812" lon="11.9736256"><ele>166.6</ele><time>2026-04-30T09:04:19.114Z</time></trkpt><trkpt lat="42.0494014" lon="11.9735678"><ele>165.8</ele><time>2026-04-30T09:04:20.172Z</time></trkpt><trkpt lat="42.0493175" lon="11.9734805"><ele>165.0</ele><time>2026-04-30T09:04:21.21Z</time></trkpt><trkpt lat="42.049206" lon="11.9732996"><ele>165.0</ele><time>2026-04-30T09:04:23.005Z</time></trkpt><trkpt lat="42.0491309" lon="11.9729644"><ele>165.0</ele><time>2026-04-30T09:04:24.964Z</time></trkpt><trkpt lat="42.0491136" lon="11.9727858"><ele>165.0</ele><time>2026-04-30T09:04:26.046Z</time></trkpt><trkpt lat="42.0491174" lon="11.9726152"><ele>166.33333333333334</ele><time>2026-04-30T09:04:27.028Z</time></trkpt><trkpt lat="42.0491291" lon="11.9724305"><ele>167.66666666666669</ele><time>2026-04-30T09:04:28.1Z</time></trkpt><trkpt lat="42.0491222" lon="11.9721667"><ele>169.0</ele><time>2026-04-30T09:04:29.87Z</time></trkpt><trkpt lat="42.0490876" lon="11.9719903"><ele>165.0</ele><time>2026-04-30T09:04:31.038Z</time></trkpt><trkpt lat="42.0489961" lon="11.9717216"><ele>161.0</ele><time>2026-04-30T09:04:32.817Z</time></trkpt><trkpt lat="42.0489144" lon="11.9715242"><ele>157.0</ele><time>2026-04-30T09:04:34.125Z</time></trkpt><trkpt lat="42.0488266" lon="11.9712587"><ele>157.0</ele><time>2026-04-30T09:04:36.121Z</time></trkpt><trkpt lat="42.0487311" lon="11.9710585"><ele>157.0</ele><time>2026-04-30T09:04:37.986Z</time></trkpt><trkpt lat="42.0485364" lon="11.9708956"><ele>157.0</ele><time>2026-04-30T09:04:40.11Z</time></trkpt><trkpt lat="42.0483042" lon="11.9707694"><ele>153.33333333333334</ele><time>2026-04-30T09:04:42.06Z</time></trkpt><trkpt lat="42.0480781" lon="11.9706886"><ele>149.66666666666666</ele><time>2026-04-30T09:04:43.92Z</time></trkpt><trkpt lat="42.0479527" lon="11.9706362"><ele>146.0</ele><time>2026-04-30T09:04:44.95Z</time></trkpt><trkpt lat="42.0478425" lon="11.9705839"><ele>146.0</ele><time>2026-04-30T09:04:46.077Z</time></trkpt><trkpt lat="42.0477436" lon="11.9705133"><ele>146.0</ele><time>2026-04-30T09:04:47.113Z</time></trkpt><trkpt lat="42.0475609" lon="11.9703998"><ele>146.0</ele><time>2026-04-30T09:04:48.968Z</time></trkpt><trkpt lat="42.047427" lon="11.9702723"><ele>140.5</ele><time>2026-04-30T09:04:50.291Z</time></trkpt><trkpt lat="42.0473169" lon="11.9700684"><ele>135.0</ele><time>2026-04-30T09:04:52.125Z</time></trkpt><trkpt lat="42.0470747" lon="11.9698221"><ele>133.8</ele><time>2026-04-30T09:04:55.123Z</time></trkpt><trkpt lat="42.0469896" lon="11.9697765"><ele>132.6</ele><time>2026-04-30T09:04:56.091Z</time></trkpt><trkpt lat="42.046899" lon="11.9697544"><ele>131.4</ele><time>2026-04-30T09:04:57.074Z</time></trkpt><trkpt lat="42.0467672" lon="11.969743"><ele>130.2</ele><time>2026-04-30T09:04:58.371Z</time></trkpt><trkpt lat="42.0466577" lon="11.9697246"><ele>129.0</ele><time>2026-04-30T09:04:59.273Z</time></trkpt><trkpt lat="42.0464605" lon="11.9696642"><ele>126.0</ele><time>2026-04-30T09:05:00.942Z</time></trkpt><trkpt lat="42.0463209" lon="11.9695787"><ele>123.0</ele><time>2026-04-30T09:05:02.174Z</time></trkpt><trkpt lat="42.0461926" lon="11.9694848"><ele>120.0</ele><time>2026-04-30T09:05:03.217Z</time></trkpt><trkpt lat="42.0459746" lon="11.9693721"><ele>120.0</ele><time>2026-04-30T09:05:04.979Z</time></trkpt><trkpt lat="42.0458334" lon="11.9693324"><ele>120.0</ele><time>2026-04-30T09:05:06.139Z</time></trkpt><trkpt lat="42.0456447" lon="11.96926"><ele>120.0</ele><time>2026-04-30T09:05:07.914Z</time></trkpt><trkpt lat="42.0455311" lon="11.9691872"><ele>118.8</ele><time>2026-04-30T09:05:09.072Z</time></trkpt><trkpt lat="42.0454362" lon="11.9690911"><ele>117.6</ele><time>2026-04-30T09:05:10.156Z</time></trkpt><trkpt lat="42.0453672" lon="11.9690008"><ele>116.4</ele><time>2026-04-30T09:05:11.098Z</time></trkpt><trkpt lat="42.045295" lon="11.9689048"><ele>115.2</ele><time>2026-04-30T09:05:12.169Z</time></trkpt><trkpt lat="42.0452322" lon="11.9688324"><ele>114.0</ele><time>2026-04-30T09:05:13.141Z</time></trkpt><trkpt lat="42.0451711" lon="11.9687608"><ele>114.0</ele><time>2026-04-30T09:05:14.125Z</time></trkpt><trkpt lat="42.0451131" lon="11.9686925"><ele>114.0</ele><time>2026-04-30T09:05:15.112Z</time></trkpt><trkpt lat="42.0450245" lon="11.9686452"><ele>114.0</ele><time>2026-04-30T09:05:16.22Z</time></trkpt><trkpt lat="42.0449095" lon="11.9686276"><ele>114.0</ele><time>2026-04-30T09:05:17.881Z</time></trkpt><trkpt lat="42.0447995" lon="11.9685266"><ele>114.0</ele><time>2026-04-30T09:05:20.887Z</time></trkpt><trkpt lat="42.04477" lon="11.968275"><ele>110.4</ele><time>2026-04-30T09:05:24.157Z</time></trkpt><trkpt lat="42.0446855" lon="11.9681992"><ele>106.80000000000001</ele><time>2026-04-30T09:05:26.009Z</time></trkpt><trkpt lat="42.0447005" lon="11.9679486"><ele>103.19999999999999</ele><time>2026-04-30T09:05:29.009Z</time></trkpt><trkpt lat="42.0447086" lon="11.9678392"><ele>99.6</ele><time>2026-04-30T09:05:30.035Z</time></trkpt><trkpt lat="42.0446972" lon="11.9677367"><ele>96.0</ele><time>2026-04-30T09:05:31.187Z</time></trkpt><trkpt lat="42.0446208" lon="11.9676571"><ele>96.0</ele><time>2026-04-30T09:05:33.132Z</time></trkpt><trkpt lat="42.0445202" lon="11.9676493"><ele>96.0</ele><time>2026-04-30T09:05:35.153Z</time></trkpt><trkpt lat="42.044466" lon="11.9676934"><ele>96.0</ele><time>2026-04-30T09:05:38.995Z</time></trkpt><trkpt lat="42.0443705" lon="11.9677411"><ele>96.0</ele><time>2026-04-30T09:06:20.202Z</time></trkpt><trkpt lat="42.0442925" lon="11.9677896"><ele>96.0</ele><time>2026-04-30T09:06:21.147Z</time></trkpt><trkpt lat="42.0441841" lon="11.9678321"><ele>94.5</ele><time>2026-04-30T09:06:22.177Z</time></trkpt><trkpt lat="42.0439723" lon="11.9679131"><ele>93.0</ele><time>2026-04-30T09:06:24.104Z</time></trkpt><trkpt lat="42.0438796" lon="11.9679427"><ele>91.5</ele><time>2026-04-30T09:06:25.091Z</time></trkpt><trkpt lat="42.0437885" lon="11.9679579"><ele>90.0</ele><time>2026-04-30T09:06:26.121Z</time></trkpt><trkpt lat="42.0436946" lon="11.9679739"><ele>90.0</ele><time>2026-04-30T09:06:27.214Z</time></trkpt><trkpt lat="42.043554" lon="11.9679175"><ele>90.0</ele><time>2026-04-30T09:06:28.997Z</time></trkpt><trkpt lat="42.0434968" lon="11.9678779"><ele>90.0</ele><time>2026-04-30T09:06:29.812Z</time></trkpt><trkpt lat="42.0434248" lon="11.9678121"><ele>90.0</ele><time>2026-04-30T09:06:30.808Z</time></trkpt><trkpt lat="42.0433441" lon="11.9676973"><ele>90.0</ele><time>2026-04-30T09:06:32.116Z</time></trkpt><trkpt lat="42.0432499" lon="11.9673992"><ele>88.0</ele><time>2026-04-30T09:06:34.015Z</time></trkpt><trkpt lat="42.043139" lon="11.96724"><ele>86.0</ele><time>2026-04-30T09:06:35.146Z</time></trkpt><trkpt lat="42.0430041" lon="11.9671115"><ele>84.0</ele><time>2026-04-30T09:06:36.057Z</time></trkpt><trkpt lat="42.0428303" lon="11.966932"><ele>84.0</ele><time>2026-04-30T09:06:37.245Z</time></trkpt><trkpt lat="42.0425601" lon="11.9667127"><ele>84.0</ele><time>2026-04-30T09:06:39.092Z</time></trkpt><trkpt lat="42.0424282" lon="11.9665985"><ele>83.0</ele><time>2026-04-30T09:06:40.157Z</time></trkpt><trkpt lat="42.0423206" lon="11.9664946"><ele>82.0</ele><time>2026-04-30T09:06:41.068Z</time></trkpt><trkpt lat="42.0422042" lon="11.9663734"><ele>81.0</ele><time>2026-04-30T09:06:42.104Z</time></trkpt><trkpt lat="42.0421012" lon="11.9662728"><ele>80.0</ele><time>2026-04-30T09:06:43.023Z</time></trkpt><trkpt lat="42.0419641" lon="11.966155"><ele>80.0</ele><time>2026-04-30T09:06:44.245Z</time></trkpt><trkpt lat="42.0417777" lon="11.9660209"><ele>80.0</ele><time>2026-04-30T09:06:46.077Z</time></trkpt><trkpt lat="42.0415555" lon="11.9659436"><ele>80.0</ele><time>2026-04-30T09:06:47.953Z</time></trkpt><trkpt lat="42.0413783" lon="11.9659129"><ele>77.66666666666667</ele><time>2026-04-30T09:06:49.214Z</time></trkpt><trkpt lat="42.041141" lon="11.9659363"><ele>75.33333333333333</ele><time>2026-04-30T09:06:51.104Z</time></trkpt><trkpt lat="42.0410406" lon="11.9659264"><ele>73.0</ele><time>2026-04-30T09:06:52.008Z</time></trkpt><trkpt lat="42.0408912" lon="11.9659021"><ele>76.66666666666666</ele><time>2026-04-30T09:06:53.239Z</time></trkpt><trkpt lat="42.0406778" lon="11.9658228"><ele>80.33333333333333</ele><time>2026-04-30T09:06:54.902Z</time></trkpt><trkpt lat="42.0405251" lon="11.9657706"><ele>84.0</ele><time>2026-04-30T09:06:56.156Z</time></trkpt><trkpt lat="42.0404102" lon="11.9657603"><ele>84.0</ele><time>2026-04-30T09:06:57.148Z</time></trkpt><trkpt lat="42.0401993" lon="11.9657169"><ele>84.0</ele><time>2026-04-30T09:06:59.124Z</time></trkpt><trkpt lat="42.0400713" lon="11.9656509"><ele>84.0</ele><time>2026-04-30T09:07:00.164Z</time></trkpt><trkpt lat="42.0399394" lon="11.9655911"><ele>82.25</ele><time>2026-04-30T09:07:01.214Z</time></trkpt><trkpt lat="42.0398216" lon="11.9655481"><ele>80.5</ele><time>2026-04-30T09:07:02.17Z</time></trkpt><trkpt lat="42.0397173" lon="11.9655219"><ele>78.75</ele><time>2026-04-30T09:07:03.159Z</time></trkpt><trkpt lat="42.0396222" lon="11.965525"><ele>77.0</ele><time>2026-04-30T09:07:04.069Z</time></trkpt><trkpt lat="42.0393639" lon="11.9656008"><ele>77.0</ele><time>2026-04-30T09:07:06.134Z</time></trkpt><trkpt lat="42.0391432" lon="11.9656861"><ele>77.0</ele><time>2026-04-30T09:07:08.118Z</time></trkpt><trkpt lat="42.0389779" lon="11.9657044"><ele>77.0</ele><time>2026-04-30T09:07:10.025Z</time></trkpt><trkpt lat="42.038853" lon="11.9656806"><ele>73.0</ele><time>2026-04-30T09:07:11.228Z</time></trkpt><trkpt lat="42.038733" lon="11.965639"><ele>69.0</ele><time>2026-04-30T09:07:12.168Z</time></trkpt><trkpt lat="42.0386215" lon="11.9655968"><ele>65.0</ele><time>2026-04-30T09:07:13.201Z</time></trkpt><trkpt lat="42.0385082" lon="11.9655493"><ele>61.0</ele><time>2026-04-30T09:07:14.171Z</time></trkpt><trkpt lat="42.0383306" lon="11.9653291"><ele>59.599999999999994</ele><time>2026-04-30T09:07:16.049Z</time></trkpt><trkpt lat="42.038251" lon="11.9652287"><ele>58.199999999999996</ele><time>2026-04-30T09:07:17.059Z</time></trkpt><trkpt lat="42.0381609" lon="11.9651751"><ele>56.800000000000004</ele><time>2026-04-30T09:07:18.077Z</time></trkpt><trkpt lat="42.0380585" lon="11.9650934"><ele>55.400000000000006</ele><time>2026-04-30T09:07:19.137Z</time></trkpt><trkpt lat="42.037957" lon="11.9650241"><ele>54.0</ele><time>2026-04-30T09:07:20.179Z</time></trkpt><trkpt lat="42.0378821" lon="11.9649994"><ele>54.0</ele><time>2026-04-30T09:07:21.095Z</time></trkpt><trkpt lat="42.0377112" lon="11.9649035"><ele>54.0</ele><time>2026-04-30T09:07:23.195Z</time></trkpt><trkpt lat="42.0375888" lon="11.964898"><ele>54.0</ele><time>2026-04-30T09:07:25.28Z</time></trkpt><trkpt lat="42.0375128" lon="11.9650134"><ele>54.0</ele><time>2026-04-30T09:07:27.038Z</time></trkpt><trkpt lat="42.0374753" lon="11.9651172"><ele>50.25</ele><time>2026-04-30T09:07:27.997Z</time></trkpt><trkpt lat="42.037439" lon="11.9652283"><ele>46.5</ele><time>2026-04-30T09:07:29.003Z</time></trkpt><trkpt lat="42.0373664" lon="11.9653408"><ele>42.75</ele><time>2026-04-30T09:07:30.214Z</time></trkpt><trkpt lat="42.0372284" lon="11.9654922"><ele>39.0</ele><time>2026-04-30T09:07:31.936Z</time></trkpt><trkpt lat="42.0371377" lon="11.9656204"><ele>39.0</ele><time>2026-04-30T09:07:33.224Z</time></trkpt><trkpt lat="42.0371041" lon="11.9656924"><ele>39.0</ele><time>2026-04-30T09:07:33.982Z</time></trkpt><trkpt lat="42.0370185" lon="11.9657842"><ele>39.0</ele><time>2026-04-30T09:07:35.229Z</time></trkpt><trkpt lat="42.0368532" lon="11.965818"><ele>39.0</ele><time>2026-04-30T09:07:37.033Z</time></trkpt><trkpt lat="42.0367503" lon="11.9658095"><ele>39.0</ele><time>2026-04-30T09:07:37.96Z</time></trkpt><trkpt lat="42.0366084" lon="11.9658112"><ele>38.333333333333336</ele><time>2026-04-30T09:07:39.096Z</time></trkpt><trkpt lat="42.0364821" lon="11.9657907"><ele>37.66666666666667</ele><time>2026-04-30T09:07:39.999Z</time></trkpt><trkpt lat="42.0362972" lon="11.9657666"><ele>37.0</ele><time>2026-04-30T09:07:41.198Z</time></trkpt><trkpt lat="42.0361471" lon="11.9657516"><ele>37.0</ele><time>2026-04-30T09:07:42.153Z</time></trkpt><trkpt lat="42.0359985" lon="11.9657424"><ele>37.0</ele><time>2026-04-30T09:07:43.056Z</time></trkpt><trkpt lat="42.0358161" lon="11.9657309"><ele>37.0</ele><time>2026-04-30T09:07:44.096Z</time></trkpt><trkpt lat="42.0356374" lon="11.965697"><ele>37.0</ele><time>2026-04-30T09:07:45.204Z</time></trkpt><trkpt lat="42.0353412" lon="11.9656732"><ele>37.0</ele><time>2026-04-30T09:07:47.126Z</time></trkpt><trkpt lat="42.0350538" lon="11.9656392"><ele>36.0</ele><time>2026-04-30T09:07:49.029Z</time></trkpt><trkpt lat="42.0348664" lon="11.9656138"><ele>35.0</ele><time>2026-04-30T09:07:50.194Z</time></trkpt><trkpt lat="42.0345366" lon="11.9655881"><ele>35.0</ele><time>2026-04-30T09:07:52.228Z</time></trkpt><trkpt lat="42.0343851" lon="11.9655768"><ele>35.0</ele><time>2026-04-30T09:07:53.221Z</time></trkpt><trkpt lat="42.0342466" lon="11.9655632"><ele>35.0</ele><time>2026-04-30T09:07:54.155Z</time></trkpt><trkpt lat="42.0339319" lon="11.9655077"><ele>34.0</ele><time>2026-04-30T09:07:56.303Z</time></trkpt><trkpt lat="42.0336536" lon="11.9654479"><ele>33.0</ele><time>2026-04-30T09:07:58.175Z</time></trkpt><trkpt lat="42.0334622" lon="11.9654255"><ele>32.0</ele><time>2026-04-30T09:07:59.339Z</time></trkpt><trkpt lat="42.0331576" lon="11.9654404"><ele>31.0</ele><time>2026-04-30T09:08:01.172Z</time></trkpt><trkpt lat="42.0330093" lon="11.9654574"><ele>31.0</ele><time>2026-04-30T09:08:02.157Z</time></trkpt><trkpt lat="42.0328501" lon="11.9654828"><ele>31.0</ele><time>2026-04-30T09:08:03.153Z</time></trkpt><trkpt lat="42.032691" lon="11.9655261"><ele>31.0</ele><time>2026-04-30T09:08:04.163Z</time></trkpt><trkpt lat="42.032533" lon="11.9655866"><ele>30.0</ele><time>2026-04-30T09:08:05.099Z</time></trkpt><trkpt lat="42.0324021" lon="11.9656219"><ele>29.0</ele><time>2026-04-30T09:08:06.065Z</time></trkpt><trkpt lat="42.0322368" lon="11.9656679"><ele>28.0</ele><time>2026-04-30T09:08:07.171Z</time></trkpt><trkpt lat="42.0320888" lon="11.9657162"><ele>28.0</ele><time>2026-04-30T09:08:08.107Z</time></trkpt><trkpt lat="42.0319121" lon="11.9657855"><ele>28.0</ele><time>2026-04-30T09:08:09.278Z</time></trkpt><trkpt lat="42.0317882" lon="11.9658399"><ele>28.0</ele><time>2026-04-30T09:08:10.191Z</time></trkpt><trkpt lat="42.0316452" lon="11.9659314"><ele>28.0</ele><time>2026-04-30T09:08:11.284Z</time></trkpt><trkpt lat="42.0314129" lon="11.9661676"><ele>28.0</ele><time>2026-04-30T09:08:13.128Z</time></trkpt><trkpt lat="42.0311653" lon="11.9664593"><ele>28.0</ele><time>2026-04-30T09:08:15.005Z</time></trkpt><trkpt lat="42.0309924" lon="11.9666919"><ele>28.0</ele><time>2026-04-30T09:08:16.319Z</time></trkpt><trkpt lat="42.030747" lon="11.9669487"><ele>27.666666666666668</ele><time>2026-04-30T09:08:18.138Z</time></trkpt><trkpt lat="42.0306128" lon="11.9670848"><ele>27.333333333333336</ele><time>2026-04-30T09:08:19.315Z</time></trkpt><trkpt lat="42.0303931" lon="11.9672264"><ele>27.0</ele><time>2026-04-30T09:08:21.224Z</time></trkpt><trkpt lat="42.0301837" lon="11.9672919"><ele>25.0</ele><time>2026-04-30T09:08:23.172Z</time></trkpt><trkpt lat="42.0299209" lon="11.9672778"><ele>23.0</ele><time>2026-04-30T09:08:25.172Z</time></trkpt><trkpt lat="42.0296395" lon="11.9672207"><ele>23.0</ele><time>2026-04-30T09:08:27.148Z</time></trkpt><trkpt lat="42.0293152" lon="11.9671603"><ele>23.0</ele><time>2026-04-30T09:08:29.168Z</time></trkpt><trkpt lat="42.028952" lon="11.9670873"><ele>22.5</ele><time>2026-04-30T09:08:31.224Z</time></trkpt><trkpt lat="42.0285751" lon="11.9670495"><ele>22.0</ele><time>2026-04-30T09:08:33.395Z</time></trkpt><trkpt lat="42.0283461" lon="11.9670474"><ele>22.333333333333332</ele><time>2026-04-30T09:08:35Z</time></trkpt><trkpt lat="42.0281957" lon="11.9670578"><ele>22.666666666666668</ele><time>2026-04-30T09:08:36.076Z</time></trkpt><trkpt lat="42.0279065" lon="11.96711"><ele>23.0</ele><time>2026-04-30T09:08:38.231Z</time></trkpt><trkpt lat="42.0276412" lon="11.9671899"><ele>23.0</ele><time>2026-04-30T09:08:40.196Z</time></trkpt><trkpt lat="42.0274949" lon="11.9672401"><ele>23.0</ele><time>2026-04-30T09:08:41.161Z</time></trkpt><trkpt lat="42.0273627" lon="11.9672902"><ele>23.0</ele><time>2026-04-30T09:08:42.121Z</time></trkpt><trkpt lat="42.0270365" lon="11.9674026"><ele>22.666666666666668</ele><time>2026-04-30T09:08:44.058Z</time></trkpt><trkpt lat="42.0268436" lon="11.9674638"><ele>22.333333333333332</ele><time>2026-04-30T09:08:45.264Z</time></trkpt><trkpt lat="42.0265996" lon="11.9675436"><ele>22.0</ele><time>2026-04-30T09:08:46.979Z</time></trkpt><trkpt lat="42.0264393" lon="11.9675998"><ele>22.0</ele><time>2026-04-30T09:08:48.145Z</time></trkpt><trkpt lat="42.0262904" lon="11.9676482"><ele>22.0</ele><time>2026-04-30T09:08:49.227Z</time></trkpt><trkpt lat="42.0261701" lon="11.9676869"><ele>22.0</ele><time>2026-04-30T09:08:50.127Z</time></trkpt><trkpt lat="42.0260371" lon="11.9677369"><ele>22.0</ele><time>2026-04-30T09:08:51.116Z</time></trkpt><trkpt lat="42.0258773" lon="11.9677911"><ele>22.0</ele><time>2026-04-30T09:08:52.29Z</time></trkpt><trkpt lat="42.0257377" lon="11.9678329"><ele>22.0</ele><time>2026-04-30T09:08:53.29Z</time></trkpt><trkpt lat="42.0254741" lon="11.967907"><ele>22.0</ele><time>2026-04-30T09:08:55.173Z</time></trkpt><trkpt lat="42.0251836" lon="11.9680069"><ele>22.0</ele><time>2026-04-30T09:08:57.194Z</time></trkpt><trkpt lat="42.0250518" lon="11.9680475"><ele>22.0</ele><time>2026-04-30T09:08:58.119Z</time></trkpt><trkpt lat="42.0249159" lon="11.9680898"><ele>22.0</ele><time>2026-04-30T09:08:59.106Z</time></trkpt><trkpt lat="42.024791" lon="11.9681344"><ele>22.0</ele><time>2026-04-30T09:09:00.046Z</time></trkpt><trkpt lat="42.0245394" lon="11.9682402"><ele>22.0</ele><time>2026-04-30T09:09:01.982Z</time></trkpt><trkpt lat="42.0244015" lon="11.9683152"><ele>22.0</ele><time>2026-04-30T09:09:03.022Z</time></trkpt><trkpt lat="42.0242558" lon="11.9684074"><ele>22.0</ele><time>2026-04-30T09:09:04.115Z</time></trkpt><trkpt lat="42.0240133" lon="11.9685684"><ele>21.333333333333332</ele><time>2026-04-30T09:09:06.018Z</time></trkpt><trkpt lat="42.0238864" lon="11.9686622"><ele>20.666666666666668</ele><time>2026-04-30T09:09:07.122Z</time></trkpt><trkpt lat="42.0236719" lon="11.968848"><ele>20.0</ele><time>2026-04-30T09:09:09.309Z</time></trkpt><trkpt lat="42.0236035" lon="11.9689145"><ele>20.0</ele><time>2026-04-30T09:09:10.231Z</time></trkpt><trkpt lat="42.0235421" lon="11.96896"><ele>20.0</ele><time>2026-04-30T09:09:11.184Z</time></trkpt><trkpt lat="42.0234321" lon="11.968985"><ele>20.0</ele><time>2026-04-30T09:09:13.35Z</time></trkpt><trkpt lat="42.0233365" lon="11.9689574"><ele>20.0</ele><time>2026-04-30T09:09:14.954Z</time></trkpt><trkpt lat="42.0232553" lon="11.9688902"><ele>20.0</ele><time>2026-04-30T09:09:15.985Z</time></trkpt><trkpt lat="42.0231633" lon="11.9688037"><ele>19.333333333333336</ele><time>2026-04-30T09:09:16.908Z</time></trkpt><trkpt lat="42.0230205" lon="11.9686551"><ele>18.666666666666668</ele><time>2026-04-30T09:09:18.228Z</time></trkpt><trkpt lat="42.0228067" lon="11.968481"><ele>18.0</ele><time>2026-04-30T09:09:20.177Z</time></trkpt><trkpt lat="42.0226825" lon="11.9683865"><ele>16.666666666666668</ele><time>2026-04-30T09:09:21.312Z</time></trkpt><trkpt lat="42.0225066" lon="11.9682526"><ele>15.333333333333334</ele><time>2026-04-30T09:09:23.02Z</time></trkpt><trkpt lat="42.0224143" lon="11.968178"><ele>14.0</ele><time>2026-04-30T09:09:24.12Z</time></trkpt><trkpt lat="42.0223135" lon="11.9680261"><ele>14.0</ele><time>2026-04-30T09:09:26.084Z</time></trkpt><trkpt lat="42.0222291" lon="11.967825"><ele>14.0</ele><time>2026-04-30T09:09:28.184Z</time></trkpt><trkpt lat="42.0220922" lon="11.9677366"><ele>14.0</ele><time>2026-04-30T09:09:30.02Z</time></trkpt><trkpt lat="42.021972" lon="11.967719"><ele>14.0</ele><time>2026-04-30T09:09:31.155Z</time></trkpt><trkpt lat="42.0217663" lon="11.9676693"><ele>14.0</ele><time>2026-04-30T09:09:33.339Z</time></trkpt><trkpt lat="42.0217055" lon="11.9675196"><ele>13.0</ele><time>2026-04-30T09:09:35.162Z</time></trkpt><trkpt lat="42.0216921" lon="11.9673699"><ele>13.0</ele><time>2026-04-30T09:09:37.11Z</time></trkpt><trkpt lat="42.021775" lon="11.9672993"><ele>13.0</ele><time>2026-04-30T09:09:40.187Z</time></trkpt></trkseg></trk></gpx>